GFSSW_925_rhum_000.txt.gz
RH
86 90 90 90 91 90 86 85 85 92 95 86 90 89 84 86 92 93 77 61 59 54 76 67 69 63 58 47 40 33 39 38 35 35 28 22 27 25 24 26 19 18 17 19 31
89 91 90 88 88 89 91 94 97 91 83 85 88 92 90 85 88 83 78 77 66 66 58 62 56 57 53 49 45 41 42 36 29 27 28 27 30 31 31 24 22 18 17 18 20
88 90 89 90 89 91 93 93 94 91 96 88 83 84 84 92 80 67 69 80 84 82 66 59 74 59 57 46 45 42 42 31 32 30 28 32 32 30 34 33 22 21 17 17 19
89 89 86 89 91 93 90 95 96 88 84 92 83 83 87 83 77 68 77 80 81 82 70 56 78 74 67 60 41 46 38 32 32 33 35 36 31 35 32 32 24 22 22 21 19
92 92 90 92 84 82 82 88 94 97 84 86 86 88 97 90 65 65 60 58 62 75 72 54 76 64 68 54 44 48 36 37 34 35 36 36 39 36 34 27 23 23 23 21 18
93 94 93 94 94 73 70 74 93 94 95 84 86 87 82 84 59 57 57 58 54 64 74 57 62 50 46 50 50 42 40 38 34 36 36 41 36 36 28 22 22 21 22 21 23
94 95 88 87 85 96 78 80 92 94 95 89 83 90 76 65 57 57 57 54 56 52 60 60 55 67 48 58 45 40 50 42 39 39 38 36 38 33 24 19 21 20 21 30 35
93 97 95 88 82 82 78 80 86 90 90 84 84 89 70 64 62 62 57 56 59 51 57 58 59 78 79 45 51 56 52 54 37 38 37 35 40 26 21 20 20 22 26 32 36
93 94 91 90 86 80 76 83 88 85 86 86 84 78 70 67 65 60 56 52 59 56 52 60 67 83 71 70 74 61 63 55 42 37 37 37 35 22 21 22 21 20 27 31 33
92 88 87 87 83 83 86 90 90 90 90 88 86 80 63 64 58 58 58 52 57 60 64 71 78 94 86 83 81 66 58 45 47 36 35 34 36 26 22 23 22 22 28 31 33
85 84 83 84 87 80 88 93 97 99 86 74 68 56 58 54 66 62 60 55 56 64 82 66 90 92 70 76 48 39 44 49 39 34 37 38 36 28 26 24 24 25 29 32 34
84 87 84 82 90 85 97 97 78 70 95 71 68 58 62 60 68 56 61 58 66 80 80 66 89 66 79 61 56 45 47 47 34 36 37 38 40 33 26 24 23 25 29 32 36
87 87 83 86 92 90 99 98 88 82 92 82 74 70 62 59 67 63 58 52 63 73 86 80 74 58 83 64 65 50 50 41 42 44 41 38 37 31 25 25 26 25 29 31 33
84 82 81 92 93 95 99 100 89 82 100 87 88 70 66 60 72 49 54 48 64 70 89 60 54 78 77 73 57 57 42 45 52 64 57 38 46 32 24 27 30 33 34 35 37
83 82 84 79 98 95 99 99 92 85 95 66 80 53 54 58 50 61 54 47 62 79 87 76 79 87 78 68 48 48 47 49 53 60 55 46 44 30 28 28 31 34 34 36 37
92 89 78 96 99 98 99 92 82 97 92 92 80 80 80 62 50 63 67 45 54 67 70 52 81 80 61 54 52 48 50 52 48 52 62 41 41 31 25 22 26 33 35 38 40
99 88 89 93 77 100 99 92 100 97 85 99 98 93 74 65 54 76 72 73 92 99 100 83 89 91 59 81 64 49 60 97 90 79 58 38 42 28 24 24 24 32 36 37 40
100 98 90 88 94 100 95 97 99 84 94 83 86 88 80 60 55 77 64 63 70 82 64 100 99 93 65 63 80 61 52 52 62 58 46 43 43 26 24 24 23 25 31 36 40
100 96 97 95 99 100 94 100 85 93 86 95 79 91 66 59 54 76 55 54 71 73 73 96 99 82 68 60 54 82 79 39 46 48 45 37 34 27 28 29 29 28 33 40 41
92 92 87 89 99 96 98 98 94 82 82 62 58 56 60 56 73 76 52 39 61 62 60 57 91 66 62 63 62 61 49 66 53 60 56 41 39 30 26 27 31 30 35 39 41
92 96 88 96 99 95 100 97 87 74 68 43 47 51 49 54 83 55 49 48 47 52 57 55 51 67 58 73 73 56 73 62 44 44 43 41 34 24 25 26 28 28 31 38 43
86 96 100 100 98 93 98 89 85 82 67 38 40 42 42 48 73 64 48 54 35 54 67 58 41 79 64 47 42 44 48 47 54 56 44 41 33 24 25 28 29 28 31 37 38
77 92 100 90 97 96 87 90 85 81 62 45 54 50 47 52 73 69 54 36 44 58 59 44 45 66 74 58 46 56 48 48 37 38 44 44 35 26 28 31 33 31 34 37 40
78 97 100 99 88 95 94 91 92 69 54 56 54 57 58 58 48 57 55 57 60 51 61 46 46 40 53 48 44 54 47 47 48 51 42 38 31 28 27 32 34 32 31 35 40
82 79 76 90 95 96 95 88 88 84 72 77 62 57 50 59 69 66 57 70 59 65 61 54 48 46 44 42 40 44 49 44 46 42 43 35 36 28 23 29 30 31 31 33 39
70 76 73 73 78 92 96 93 89 93 82 87 93 57 52 55 56 69 71 65 69 66 62 51 52 41 45 49 41 43 42 45 44 40 35 33 34 27 26 28 31 30 32 38 43
83 80 66 56 60 85 88 91 88 83 92 88 74 62 58 51 43 49 51 48 51 59 64 54 47 46 49 42 43 52 43 42 38 33 32 38 31 30 37 34 33 36 39 42 44

GFSSW_925_rhum_003.txt.gz
RH
90 88 90 89 88 87 88 84 79 89 90 88 90 92 86 84 92 87 66 54 52 54 74 56 49 50 47 43 35 31 38 38 30 28 25 19 23 19 20 22 19 16 16 15 18
92 88 90 89 87 88 87 84 83 82 75 81 83 86 91 90 80 76 67 70 73 82 58 46 43 38 49 44 39 40 40 34 24 22 24 21 23 24 26 23 20 18 14 15 16
91 89 89 88 88 87 91 88 86 83 87 82 84 90 93 92 74 63 59 68 77 86 67 50 46 48 48 43 40 40 41 28 25 22 24 25 26 23 28 30 22 20 17 16 17
90 90 89 87 90 90 88 87 81 84 81 89 79 81 82 79 66 59 73 74 75 77 67 51 44 64 58 53 37 42 34 30 26 25 29 31 26 27 27 27 22 22 20 20 19
90 92 92 91 93 92 91 90 81 82 90 83 83 86 85 75 60 64 56 54 54 69 61 51 44 48 68 46 45 43 34 28 28 26 28 29 31 31 30 24 21 19 19 20 19
90 93 94 94 96 96 87 86 91 84 76 81 83 80 75 76 47 48 52 51 49 53 60 53 44 36 45 55 49 42 35 32 28 29 29 33 31 29 27 23 21 18 16 17 17
90 92 94 86 93 94 98 93 93 70 68 76 85 85 65 56 46 47 48 47 44 43 44 53 46 43 44 56 42 42 45 37 32 30 30 30 37 33 25 22 17 14 14 17 22
92 92 93 87 84 84 86 96 87 81 80 85 82 76 78 50 50 50 48 46 46 45 44 44 48 46 54 67 70 51 57 62 38 33 29 34 45 25 19 17 17 17 18 24 28
98 94 95 90 77 86 80 85 88 89 86 87 82 74 70 58 57 48 47 43 40 46 44 43 51 59 61 96 92 78 75 66 46 30 32 36 38 24 19 18 18 17 17 22 27
95 91 80 82 78 80 80 88 97 95 88 88 82 81 57 59 49 51 49 46 41 40 47 49 62 72 75 88 93 76 72 53 56 33 34 36 36 27 19 20 20 17 19 24 27
87 87 80 75 84 88 84 86 93 97 91 80 72 53 50 47 52 56 48 49 45 45 65 56 79 85 59 75 70 55 62 49 42 31 33 37 33 26 22 22 22 19 22 25 28
89 87 82 81 78 88 93 91 75 79 95 69 55 57 49 53 60 53 49 55 53 64 49 66 87 52 43 53 76 63 56 45 42 32 34 32 32 26 25 25 22 19 22 25 30
87 86 80 78 86 96 94 82 88 78 95 84 74 66 54 58 58 53 48 50 49 57 52 68 61 45 44 58 86 58 64 53 45 36 34 35 41 35 28 23 22 19 21 25 28
86 86 77 88 96 78 81 86 94 91 100 87 93 80 64 76 80 46 45 47 54 59 49 56 46 62 49 68 73 82 56 36 41 44 49 36 39 25 25 24 23 22 24 27 28
91 78 81 82 88 95 98 100 99 87 96 63 87 61 64 84 44 44 41 52 59 55 68 68 69 80 63 64 73 81 57 40 45 47 57 52 48 30 22 24 25 23 26 28 30
93 86 78 97 95 91 100 98 86 99 92 83 75 84 76 82 54 44 47 45 41 56 70 52 55 60 62 64 81 63 56 55 48 46 59 38 41 28 26 23 21 24 27 31 31
97 92 86 74 69 97 88 87 100 97 76 97 98 88 75 77 63 62 70 76 86 99 100 80 81 84 74 94 91 72 79 82 70 67 49 31 37 29 20 19 18 25 28 31 32
100 97 89 77 82 100 94 98 99 64 75 91 95 95 99 64 54 54 75 86 61 80 92 91 84 86 74 90 92 80 69 48 58 54 41 35 43 28 20 18 18 23 27 30 34
98 100 99 91 88 98 94 100 84 69 90 96 96 100 100 74 38 44 70 86 47 64 100 85 89 76 84 67 64 83 75 39 40 35 38 38 29 23 22 24 21 24 28 32 33
98 94 86 81 88 97 99 97 87 69 88 84 85 62 75 66 46 53 63 51 43 46 70 89 96 88 87 68 81 72 42 54 43 51 46 36 30 29 26 25 24 23 29 31 33
90 91 69 84 98 98 97 97 78 70 79 62 45 47 41 43 44 51 45 32 34 41 72 87 94 93 89 78 84 83 68 48 34 36 39 40 33 22 22 22 24 24 25 30 34
85 91 96 98 98 94 96 93 79 80 80 54 32 32 32 33 43 46 39 34 27 37 94 78 93 99 93 47 47 59 60 41 43 50 37 36 33 20 20 23 23 23 25 28 33
87 66 100 89 98 96 81 92 85 84 70 50 38 33 29 35 44 43 39 28 35 39 70 57 78 98 94 62 52 61 44 40 38 35 39 37 33 20 21 25 25 24 24 29 34
71 96 100 98 84 89 94 94 95 72 69 44 38 38 42 41 35 45 46 33 39 36 62 50 54 47 50 44 53 65 55 40 38 44 37 35 30 23 23 26 27 26 26 30 33
76 82 69 95 95 92 92 88 95 90 68 45 61 48 49 45 43 55 42 43 40 49 48 59 54 40 34 34 41 44 49 51 51 44 42 32 32 25 22 23 24 25 27 31 34
80 57 69 81 72 83 93 92 95 85 68 76 89 48 47 43 36 46 40 42 60 51 56 55 59 42 45 41 36 41 40 43 44 42 39 32 32 23 22 21 23 25 26 30 33
86 68 61 54 61 76 83 86 86 81 83 58 74 68 50 42 34 35 32 40 46 50 64 68 66 46 50 43 44 51 38 38 39 36 35 41 32 24 29 27 26 26 28 30 32

GFSSW_925_rhum_006.txt.gz
RH
91 91 88 89 89 88 88 91 92 88 87 98 94 92 94 91 93 94 76 57 61 54 43 54 48 45 48 52 44 37 57 53 43 38 32 21 23 20 19 24 22 20 19 18 17
92 92 89 90 90 88 89 90 93 88 84 83 83 82 85 93 89 82 71 66 72 62 63 46 42 38 48 54 50 51 61 51 31 28 27 23 23 23 26 28 26 22 18 15 16
93 92 90 90 88 89 89 93 93 93 86 88 78 83 88 88 86 71 65 70 72 79 76 59 46 45 51 49 51 50 61 40 30 25 24 25 28 23 28 34 29 26 24 24 20
91 91 91 90 89 92 91 92 94 94 84 87 82 75 87 90 82 64 61 61 67 70 72 63 49 56 63 58 45 53 43 39 36 29 27 31 28 31 29 30 27 26 24 24 24
91 91 92 92 93 94 93 92 94 94 96 83 89 82 86 73 63 55 51 50 55 71 68 59 57 50 61 55 48 50 42 34 31 31 29 28 35 35 32 28 26 25 25 26 24
96 92 93 90 95 94 96 92 93 96 96 86 82 82 84 76 44 45 52 52 48 48 58 55 53 43 44 50 57 46 44 44 36 31 30 32 34 34 32 27 27 26 24 18 20
96 92 91 91 91 93 90 95 95 95 94 94 84 89 71 61 44 44 45 48 45 43 42 44 47 56 42 48 48 48 67 48 45 36 32 31 39 38 31 28 28 26 17 18 22
95 96 89 87 91 85 82 78 88 88 89 85 82 79 75 55 53 46 44 45 42 40 41 41 41 51 56 51 63 73 68 85 49 38 35 35 48 35 28 28 27 18 17 26 29
84 92 90 84 86 83 85 76 80 86 84 84 88 76 66 53 54 49 46 44 40 37 42 40 40 58 61 70 87 78 82 83 67 42 37 38 45 35 30 25 23 20 20 29 33
82 84 90 77 84 81 84 79 82 88 86 84 72 82 62 56 50 51 47 45 42 40 42 50 56 67 73 79 89 79 90 65 72 51 40 41 41 36 31 25 24 22 20 30 34
81 74 87 76 80 85 88 89 85 93 94 70 65 57 47 46 51 48 47 45 46 50 65 53 77 85 71 69 66 60 60 74 52 47 44 43 40 37 31 30 29 26 24 32 39
80 80 85 75 80 82 88 78 74 86 94 81 61 58 49 50 56 49 46 55 59 73 57 64 84 59 51 53 64 65 74 80 54 45 46 42 41 35 32 29 28 28 26 36 41
84 81 80 74 84 91 94 79 78 83 99 86 79 68 57 55 60 53 49 53 58 67 62 72 59 52 51 51 59 62 74 79 69 46 49 42 46 38 30 26 28 27 26 35 39
88 81 81 84 85 79 87 82 85 87 100 88 91 79 66 75 86 49 43 52 58 63 56 61 49 46 56 57 52 66 56 64 79 68 76 43 63 42 34 34 31 28 30 36 39
92 84 81 72 84 78 93 87 92 90 97 76 87 66 66 89 69 63 53 52 64 57 53 75 54 53 55 62 48 61 52 68 82 85 74 51 58 42 34 39 32 29 34 37 39
94 84 79 87 89 95 96 98 82 99 94 83 83 92 91 87 76 66 59 52 50 64 53 55 46 54 59 52 66 52 64 76 92 90 95 76 54 47 37 31 30 28 36 37 39
98 88 77 82 75 96 93 90 100 99 66 95 92 80 74 91 91 85 70 71 77 91 94 94 79 65 79 87 64 68 79 95 100 99 82 45 54 35 26 24 25 28 35 38 42
100 94 86 75 87 88 84 96 100 55 71 85 91 91 99 90 94 88 75 77 65 74 90 85 76 79 70 91 77 81 84 100 96 98 59 38 52 40 24 22 25 27 34 38 42
100 100 99 86 90 84 90 99 78 70 77 96 97 100 100 96 88 80 70 92 61 59 98 100 86 59 56 61 80 91 97 79 99 37 54 50 34 28 28 26 30 33 37 41 42
100 100 98 91 100 93 98 88 83 71 87 93 98 73 84 84 70 61 57 47 58 54 60 90 95 70 70 74 75 88 68 99 87 56 65 54 46 43 36 34 31 36 40 41 42
96 99 78 96 100 98 97 90 75 67 81 93 70 61 52 67 58 45 45 42 46 49 72 90 97 96 88 96 86 98 98 93 80 55 56 61 48 33 32 32 31 34 36 40 42
96 99 83 100 98 97 96 81 86 82 78 82 73 64 39 47 52 44 50 49 38 41 69 90 99 100 96 78 75 80 78 78 57 60 49 53 46 26 30 28 31 30 33 37 40
96 95 99 87 97 97 86 87 89 90 86 81 60 37 31 33 42 38 49 38 36 67 80 89 99 99 99 92 86 91 77 63 57 46 57 48 47 30 33 32 27 32 37 38 43
95 96 100 98 86 87 91 96 96 81 84 71 58 40 36 37 32 59 42 41 43 42 74 89 90 100 91 74 77 87 81 66 55 57 45 42 40 32 36 36 32 33 36 42 43
94 89 82 98 96 93 90 92 96 96 79 70 57 45 48 48 42 39 46 40 44 46 70 84 96 74 44 56 57 60 61 56 54 44 49 35 36 30 33 37 36 34 38 43 44
95 78 82 83 68 82 88 93 95 90 92 73 63 59 61 47 40 44 40 44 44 52 52 57 79 65 51 43 48 56 55 56 55 48 48 46 42 32 28 31 34 37 38 41 43
94 77 75 62 75 88 86 87 86 87 85 78 73 56 70 47 38 30 35 34 45 52 64 70 76 64 60 44 46 55 48 51 51 48 48 55 42 32 32 31 34 34 37 41 44

GFSSW_925_rhum_009.txt.gz
RH
92 92 91 90 92 91 90 90 93 92 89 92 100 100 95 95 96 98 87 60 66 59 51 43 41 46 46 57 57 51 74 74 62 51 41 32 24 20 20 24 23 22 21 20 27
91 94 92 91 91 90 90 91 94 96 77 83 84 92 92 95 94 94 69 62 72 73 60 58 55 47 58 63 67 70 83 68 45 41 38 32 27 24 25 29 29 27 23 21 27
91 94 93 92 91 89 92 92 94 94 92 84 75 80 84 92 86 76 56 76 77 76 74 73 66 56 62 56 68 66 74 56 45 38 35 33 30 26 29 33 31 31 28 25 21
93 91 92 94 93 92 94 93 94 92 92 87 88 77 86 84 91 68 63 62 71 73 77 76 69 66 67 78 54 79 60 55 50 44 42 40 30 33 32 34 29 32 30 28 28
95 94 92 94 95 92 95 88 92 95 90 88 84 82 85 92 78 55 47 49 56 63 73 75 78 70 71 64 66 72 58 50 45 44 40 37 39 37 36 33 30 29 29 32 32
95 97 94 94 90 85 89 91 91 91 92 78 80 83 91 94 51 52 53 49 51 65 73 72 70 61 65 59 63 57 57 52 45 44 40 39 38 39 37 33 33 32 33 34 29
93 96 89 83 87 81 88 92 93 95 83 76 75 87 88 77 50 49 48 52 52 46 47 57 60 61 62 68 54 61 71 59 60 48 50 44 45 42 36 33 35 34 34 25 30
85 90 88 78 80 88 78 85 87 92 85 87 75 89 92 57 54 51 49 46 46 47 44 41 43 50 62 58 64 74 76 85 58 56 48 46 60 39 34 37 38 37 34 31 33
80 88 90 81 76 85 79 87 78 81 86 82 80 86 86 52 60 58 52 45 43 41 41 41 42 58 64 79 84 87 85 88 78 54 52 47 55 42 36 36 39 37 28 37 39
84 83 86 88 71 84 82 87 76 84 84 91 83 84 70 60 52 54 51 47 47 46 48 54 64 78 82 90 87 72 88 67 83 61 58 63 56 43 38 36 39 32 27 43 44
80 88 85 89 71 80 88 78 87 95 94 82 77 63 46 52 49 53 51 50 51 55 77 62 88 85 82 77 74 64 66 66 60 56 60 56 58 45 38 40 38 34 37 47 49
80 87 79 89 70 80 89 88 76 81 94 80 75 66 54 51 60 55 49 62 66 76 73 77 83 69 63 64 70 73 86 84 66 61 72 63 57 47 40 38 39 37 40 50 51
81 85 84 85 78 91 92 77 78 76 92 80 81 80 69 58 67 63 56 60 71 84 79 85 63 54 61 66 72 75 88 81 76 64 65 73 73 55 43 37 35 35 36 45 48
83 88 90 82 90 88 91 85 83 80 100 80 88 79 70 70 84 55 50 55 68 82 74 78 59 59 62 72 64 79 56 59 66 70 89 65 82 61 47 40 37 37 44 50 50
86 91 85 62 71 86 88 79 89 87 96 75 81 64 66 83 72 72 52 62 78 71 73 80 67 69 70 64 59 68 51 56 62 78 83 76 89 53 43 43 39 45 44 47 47
89 93 83 79 85 89 92 86 80 94 93 91 85 87 88 89 76 63 66 58 68 86 75 71 50 57 59 50 47 54 72 72 72 78 97 85 86 64 45 38 35 39 44 46 48
96 93 82 89 93 96 86 85 98 95 59 92 90 83 80 82 87 75 92 94 98 99 99 83 89 69 80 81 67 70 78 92 98 98 87 72 95 76 41 36 33 36 44 46 48
100 97 83 84 80 82 76 94 97 66 75 79 83 77 96 75 87 82 98 99 89 85 92 95 89 75 80 78 73 81 75 84 93 83 66 78 100 59 39 33 30 39 42 46 53
100 100 96 95 86 75 91 98 83 68 74 95 94 100 100 91 85 96 98 98 69 77 89 94 90 61 59 61 61 76 87 63 98 90 86 91 78 53 36 35 38 44 45 50 56
99 98 95 96 93 81 94 84 81 66 84 92 100 96 78 79 97 98 91 75 73 62 57 81 95 66 70 61 65 60 58 90 99 98 96 86 57 49 40 42 46 48 49 51 54
96 98 99 99 98 96 100 89 73 65 74 94 96 91 76 83 86 81 64 53 58 56 57 82 95 79 89 89 79 91 94 73 75 85 99 97 60 39 36 39 45 47 47 51 54
97 98 100 100 98 97 97 76 65 76 70 84 92 81 79 67 76 68 59 44 54 51 71 89 100 99 84 75 65 71 81 60 72 84 97 58 49 33 37 36 40 44 46 47 50
95 98 100 89 98 98 83 81 72 79 82 89 92 68 60 60 83 59 54 47 55 65 89 93 100 97 100 96 90 80 76 74 62 94 93 62 52 36 39 37 38 44 46 48 52
98 98 99 99 90 89 88 87 94 83 89 84 84 72 65 57 53 54 46 47 50 54 72 90 100 100 99 87 79 91 74 75 93 97 56 56 50 42 40 39 41 45 47 50 51
95 93 83 97 97 92 83 87 96 97 89 83 86 81 68 55 46 53 53 47 58 72 85 87 100 100 91 80 71 76 83 92 100 66 45 46 45 45 42 40 40 47 48 51 52
97 93 84 88 79 95 92 95 92 94 92 87 88 62 59 73 48 49 49 51 53 74 81 86 99 95 80 80 75 82 84 71 58 49 50 52 46 31 38 40 42 53 49 50 51
96 85 77 82 83 93 88 85 83 82 85 79 79 86 75 65 57 41 48 40 41 61 68 83 90 83 71 61 70 72 62 62 57 50 50 58 43 36 39 39 43 50 49 52 53

GFSSW_925_rhum_012.txt.gz
RH
90 92 92 92 93 92 91 92 90 80 81 86 96 98 99 96 97 100 94 62 60 63 55 50 41 43 48 50 56 57 83 86 66 58 46 35 32 25 22 26 24 22 25 22 24
90 91 92 93 93 92 92 91 95 84 70 79 85 85 93 97 100 97 71 65 74 76 68 59 64 63 62 64 63 81 92 78 58 50 47 40 33 28 27 31 30 28 25 26 34
91 93 91 94 93 91 93 92 86 84 78 76 84 75 86 89 89 80 61 74 80 79 75 66 71 64 66 60 73 79 85 63 54 46 45 45 39 32 32 35 32 29 29 26 36
93 95 93 90 95 93 93 83 84 83 86 81 83 77 82 93 86 68 63 69 80 84 80 77 75 74 72 80 64 80 70 62 58 52 54 53 39 42 34 33 28 31 31 31 31
81 96 95 94 96 92 89 87 80 90 88 83 81 82 87 97 86 56 56 59 73 80 82 82 88 78 77 69 67 80 67 60 58 57 53 49 53 47 41 34 33 33 31 33 34
79 89 97 93 95 89 78 86 79 82 85 82 83 83 88 96 53 53 53 54 59 66 75 79 83 74 75 71 71 60 59 61 57 55 52 55 51 46 40 36 37 35 34 36 35
80 79 91 85 93 88 79 86 92 85 84 84 83 84 95 79 54 51 52 58 53 54 61 74 73 76 70 72 59 63 78 71 62 59 61 50 60 58 42 37 38 38 36 36 35
80 79 87 86 81 89 82 90 81 93 85 86 81 90 95 58 53 49 49 52 55 50 48 45 43 51 59 60 69 77 78 90 59 60 60 56 75 50 41 42 42 41 41 41 34
80 82 83 83 80 79 89 84 80 75 83 83 83 85 90 57 63 50 55 55 45 44 44 42 43 56 57 80 85 87 95 83 73 55 61 64 64 47 42 45 44 42 43 40 41
81 84 84 82 83 80 88 87 80 86 88 94 84 91 74 64 53 54 54 52 48 48 49 52 64 77 85 89 90 76 86 80 71 67 65 66 66 56 46 45 45 40 42 38 46
76 82 87 86 86 79 92 81 84 90 96 87 77 74 50 54 52 55 55 52 54 57 79 63 87 79 81 74 78 83 79 75 67 54 60 61 66 56 51 49 49 45 46 38 50
74 76 88 85 89 79 87 88 74 69 94 83 81 70 59 57 65 59 53 66 69 85 76 80 90 62 64 68 78 78 84 88 70 56 56 66 75 62 48 48 43 43 42 49 52
75 76 86 83 89 90 93 84 76 69 91 79 81 84 74 64 70 66 57 64 73 74 67 81 64 56 67 77 83 83 86 76 75 66 60 60 60 59 58 48 43 42 41 48 51
81 77 85 93 93 96 96 83 76 74 95 83 88 78 75 73 84 54 52 56 74 80 75 74 65 67 67 77 76 89 67 70 73 78 88 63 82 64 58 58 49 43 46 50 56
85 83 87 83 68 95 77 81 82 77 67 66 87 65 71 77 72 75 52 58 87 84 81 87 79 81 78 69 65 78 59 64 68 79 84 74 90 67 60 60 55 43 47 50 52
98 89 92 81 82 79 75 85 84 86 77 90 88 91 91 85 74 66 70 64 78 85 74 73 61 64 63 54 54 63 69 69 72 83 96 67 76 63 66 54 51 44 46 52 53
100 94 91 78 95 85 87 86 92 91 55 92 88 90 82 84 83 80 87 96 99 99 98 100 96 72 70 75 65 63 74 92 100 98 82 57 78 63 52 42 39 40 50 53 53
89 94 92 84 75 91 78 88 97 64 80 73 76 85 88 74 84 73 92 95 87 98 100 95 96 83 72 70 74 73 70 86 91 99 72 68 87 72 54 43 43 43 44 52 58
89 100 97 83 82 82 82 97 81 69 76 78 78 94 95 82 78 84 93 88 73 91 96 97 88 66 63 63 59 79 87 59 76 79 88 86 79 67 61 53 41 43 51 56 60
99 98 95 89 85 80 90 86 80 70 81 78 92 88 86 84 88 95 91 75 80 77 69 76 97 70 65 66 64 68 62 89 82 99 90 83 88 71 62 47 53 55 56 57 62
99 96 99 100 87 94 98 89 76 80 76 88 93 98 88 80 84 86 84 70 71 66 73 74 91 95 93 85 77 84 78 71 63 78 98 82 77 51 51 46 54 56 53 60 66
97 100 100 100 98 97 100 80 64 72 76 78 78 94 87 77 94 86 82 56 60 56 80 67 98 96 81 63 73 63 67 62 74 69 71 98 75 38 37 42 49 54 53 58 61
96 98 100 90 98 97 85 74 72 77 77 83 91 86 75 74 79 74 63 46 57 57 76 93 100 96 91 90 72 95 67 69 77 66 81 98 81 43 45 47 48 52 56 59 62
96 99 98 97 94 93 87 84 85 78 72 82 86 83 83 84 63 60 63 48 52 57 77 89 100 98 85 98 80 97 78 65 75 84 72 78 71 63 51 48 56 58 57 60 62
97 94 82 98 98 85 79 80 84 89 87 86 94 92 83 78 64 72 54 49 59 74 87 94 100 100 95 86 95 92 78 86 96 71 77 59 70 54 55 43 52 55 59 61 62
97 96 83 82 81 91 85 91 85 88 90 93 96 79 83 90 59 52 50 56 73 81 88 94 99 100 96 92 93 79 78 70 78 84 93 88 89 41 42 47 57 57 58 59 60
94 82 73 84 81 92 94 84 82 81 82 79 84 84 93 79 64 63 52 48 58 79 87 97 100 100 100 84 92 96 82 84 95 89 89 98 62 41 44 45 59 63 55 56 58

GFSSW_925_rhum_015.txt.gz
RH
88 91 90 91 91 94 94 92 94 93 83 86 86 96 95 95 93 100 95 68 60 56 60 55 48 54 51 52 58 62 84 87 66 64 46 37 35 30 25 24 27 24 32 24 26
82 92 91 83 93 93 94 93 93 96 83 79 85 94 88 93 100 98 77 71 79 81 76 62 64 65 64 65 63 85 94 73 59 52 49 39 38 35 33 35 32 30 26 34 39
82 81 93 90 93 93 92 95 93 86 85 85 78 78 83 96 89 78 66 86 86 82 81 66 70 66 67 63 74 83 84 64 59 53 48 50 44 37 37 40 34 32 30 32 44
85 85 94 94 84 93 93 96 92 90 84 83 85 71 89 94 91 66 74 77 83 87 80 79 76 76 76 80 68 80 72 69 63 55 59 61 48 46 40 37 32 33 31 30 38
83 82 87 96 93 95 95 97 93 92 88 81 79 83 90 92 82 55 61 73 79 86 86 85 88 79 80 74 70 81 74 64 62 66 64 60 63 63 53 42 36 36 37 38 37
80 82 83 92 96 89 90 94 94 94 90 80 80 88 87 86 48 55 58 58 72 85 89 86 86 80 83 76 72 65 65 64 60 63 62 64 61 60 52 43 42 40 39 38 39
78 81 82 85 92 92 86 93 91 92 85 79 81 86 93 75 56 52 53 56 59 65 76 79 80 83 80 83 66 67 80 72 69 62 65 56 65 64 53 51 48 44 42 39 39
78 80 84 86 88 89 84 92 89 94 91 84 82 89 90 57 58 56 55 52 54 56 49 48 72 62 60 60 68 77 80 93 60 63 62 62 69 53 49 50 50 47 47 44 43
78 75 84 84 85 78 83 82 83 83 88 88 82 83 82 57 65 49 54 53 49 50 48 47 47 58 58 79 83 86 91 90 73 59 62 72 68 52 47 50 52 50 48 44 44
86 78 79 80 82 76 75 92 88 83 87 93 84 88 75 63 58 54 54 53 50 50 50 55 66 74 78 84 88 82 98 85 81 62 63 72 66 57 56 55 54 49 45 49 45
97 81 80 80 80 76 92 90 83 85 98 84 80 78 55 56 54 59 57 56 55 61 78 64 88 93 76 74 78 88 90 92 73 57 70 75 71 59 57 59 56 59 51 50 43
98 87 83 86 84 85 94 87 74 67 93 81 84 71 62 62 68 60 54 68 74 90 80 83 95 75 63 71 76 79 91 87 77 63 65 66 69 58 56 54 56 52 52 49 45
88 96 85 83 87 97 94 80 69 67 87 76 83 85 77 68 70 69 59 68 80 92 90 88 67 59 67 74 82 85 92 82 80 62 60 64 58 40 38 45 50 51 47 44 46
80 99 95 89 98 100 94 86 72 70 93 76 94 83 80 75 81 58 54 61 72 87 80 78 60 64 70 78 78 83 72 75 77 82 93 65 62 45 47 46 46 51 51 49 53
86 99 96 98 91 96 79 86 75 60 78 69 90 68 72 77 69 72 56 59 76 84 83 87 89 77 82 76 66 72 62 70 77 90 91 78 91 69 51 53 53 62 53 52 54
90 96 99 93 78 79 76 81 76 84 80 92 81 88 88 82 75 69 71 61 77 85 78 73 66 74 75 65 61 63 76 80 77 85 94 70 79 54 43 57 58 55 55 52 56
92 79 100 80 92 76 82 85 94 90 62 89 82 89 85 84 82 83 91 93 97 99 98 99 96 80 74 74 66 63 85 97 98 97 84 60 72 58 45 45 46 49 52 54 56
84 89 94 86 73 83 82 87 91 64 85 69 76 93 93 83 80 84 87 87 78 97 100 97 98 96 87 77 78 78 76 90 91 94 84 52 78 56 50 36 32 34 48 58 58
83 98 94 100 79 84 78 97 81 66 78 79 77 87 89 73 73 88 78 74 74 75 91 98 93 79 78 65 67 100 98 69 75 66 96 83 74 68 64 66 61 56 55 63 62
97 91 96 97 88 78 86 83 74 70 79 69 87 74 80 75 86 91 85 75 77 67 67 77 95 75 73 69 69 72 64 94 98 96 90 73 86 67 62 54 49 55 51 59 62
89 96 97 100 85 90 96 86 75 79 75 83 81 83 80 88 86 79 75 74 75 76 72 76 86 85 84 88 77 86 84 74 72 84 91 85 54 64 57 48 56 58 59 62 66
94 100 100 99 97 97 95 83 66 88 76 82 79 68 80 82 90 91 94 72 70 74 91 74 90 97 76 66 56 63 69 73 94 84 68 84 71 46 57 48 51 59 62 68 74
94 95 100 84 98 98 91 79 74 78 77 73 81 73 74 81 87 87 74 54 65 66 81 78 99 96 97 88 86 100 86 68 66 80 80 72 49 51 44 55 55 66 68 71 77
94 100 98 97 91 86 85 87 84 71 71 68 84 74 85 88 74 71 73 51 56 58 73 84 100 98 89 95 96 96 83 76 67 79 71 68 50 42 47 53 59 64 70 75 77
96 97 91 98 98 78 76 76 82 90 81 76 86 94 92 83 88 82 65 58 59 60 77 92 99 100 95 92 97 99 76 77 77 64 70 51 60 48 62 51 48 60 68 73 76
98 96 86 82 85 80 80 85 83 81 90 96 97 87 86 95 72 64 56 58 70 84 83 95 99 100 95 81 94 100 95 77 69 65 64 68 72 58 52 51 59 65 66 70 73
88 94 76 82 82 90 91 87 80 77 79 76 82 93 90 81 70 71 71 63 60 80 96 100 100 100 99 96 96 100 90 84 69 64 70 94 68 51 61 52 51 63 61 65 68

GFSSW_925_rhum_018.txt.gz
RH
98 71 75 90 89 92 94 94 92 94 95 89 84 90 93 93 94 100 97 69 62 58 63 59 50 52 52 56 62 65 84 90 72 66 53 38 38 33 29 28 32 27 31 26 29
93 98 67 83 87 89 94 94 93 93 95 86 78 88 94 94 100 99 82 75 88 82 75 64 64 62 66 65 67 84 95 75 63 56 50 43 44 40 37 41 38 32 27 34 39
87 92 97 72 91 92 94 94 95 96 94 87 74 76 87 91 92 79 64 85 88 88 84 67 68 64 65 65 75 82 87 65 64 56 55 54 51 40 43 50 40 34 35 34 50
91 86 90 86 87 81 89 94 95 94 92 89 88 74 86 95 91 66 76 78 85 89 77 77 75 74 77 78 70 81 77 76 68 61 66 67 60 64 48 45 34 40 34 37 34
80 78 92 87 86 91 95 94 96 95 87 87 89 83 90 87 86 61 66 74 77 86 78 76 83 76 77 76 71 81 78 68 63 63 67 66 70 71 67 53 46 45 42 41 40
93 76 79 84 80 92 89 87 95 95 88 88 88 88 87 92 48 58 59 65 84 84 84 83 77 81 81 80 73 66 69 69 64 62 64 68 65 64 55 52 54 49 46 44 43
99 88 78 81 81 90 84 84 84 88 85 83 89 89 93 78 57 58 54 58 71 81 89 90 76 78 82 87 71 71 82 77 73 68 66 60 69 72 52 56 57 56 52 47 44
99 94 84 81 82 87 84 84 80 89 87 86 89 89 86 58 61 59 58 54 55 61 50 56 79 84 69 60 65 75 79 89 66 67 63 63 67 50 43 53 58 55 57 53 45
94 91 95 82 81 83 75 81 84 79 92 87 90 84 82 57 67 50 56 52 54 56 54 49 56 59 61 78 84 76 89 84 72 56 64 78 74 56 52 57 64 64 61 55 50
88 95 100 84 88 81 73 85 88 80 85 92 87 88 73 63 59 59 59 50 51 52 52 55 64 78 76 82 92 80 88 82 79 62 68 77 77 63 55 55 57 61 60 57 53
87 91 95 94 92 83 84 99 84 83 98 79 82 77 59 58 55 61 62 56 56 61 81 66 89 94 81 78 74 82 92 94 79 67 74 71 69 60 56 61 62 57 54 60 56
83 91 87 96 99 85 85 85 74 66 90 82 87 78 64 65 68 63 58 69 74 86 78 81 95 76 68 71 73 74 81 81 70 66 71 69 68 53 51 55 54 65 60 62 56
93 95 91 97 100 99 90 72 65 65 80 75 81 84 78 69 74 73 62 71 81 94 91 85 67 66 72 78 84 86 89 84 84 66 63 68 60 38 31 33 37 39 40 44 55
97 94 95 92 100 99 93 76 68 58 90 72 92 87 83 73 79 58 57 66 78 88 77 90 70 72 77 82 80 91 67 74 83 90 91 63 70 44 42 41 32 33 39 50 56
99 95 96 98 100 94 86 80 67 54 94 74 93 72 76 74 69 77 58 61 78 86 82 82 89 88 88 74 72 73 65 78 84 94 94 84 93 66 52 53 48 55 61 52 54
97 95 99 83 97 87 84 76 62 82 90 88 83 89 94 79 72 74 72 62 73 76 75 72 70 71 74 65 66 63 75 78 82 85 96 72 84 54 43 38 40 44 46 55 58
97 94 82 87 97 88 81 73 93 90 67 88 82 82 77 83 78 80 92 96 95 97 99 94 94 79 76 84 73 74 100 97 98 97 84 65 78 56 40 38 41 42 51 55 62
88 87 91 93 100 87 75 79 92 67 83 69 76 77 80 76 77 82 87 92 84 92 100 97 90 87 81 80 81 83 80 93 94 94 86 64 82 66 47 37 34 31 43 53 63
97 96 99 94 100 80 68 88 80 67 75 73 79 81 90 82 78 74 86 80 66 84 98 99 91 82 90 74 65 98 97 70 84 80 96 79 71 50 55 59 60 51 44 51 65
99 87 86 82 100 72 74 83 67 63 74 72 84 75 86 78 84 87 79 70 69 67 71 79 93 74 83 80 74 84 79 98 98 96 92 80 65 62 51 55 57 53 67 62 67
98 96 79 77 95 94 96 81 69 78 68 75 81 84 68 76 79 74 81 70 77 77 71 75 89 83 87 92 83 94 96 98 89 95 91 85 58 58 62 59 57 59 51 57 70
94 93 90 99 100 94 92 75 68 90 76 80 74 67 73 80 91 87 88 77 70 77 87 72 97 96 80 66 60 61 71 73 81 84 87 86 55 44 63 62 59 73 67 67 72
97 94 100 84 100 100 84 80 73 87 85 80 84 74 68 82 87 85 81 63 72 78 85 74 98 97 92 85 70 99 82 67 66 80 79 80 59 28 30 42 66 78 82 89 89
99 99 99 97 94 83 77 77 85 70 74 69 78 71 83 87 75 78 82 61 70 71 67 68 98 94 92 84 97 100 98 100 97 95 73 72 58 42 44 57 59 78 81 88 89
96 98 92 100 99 74 70 80 82 96 75 76 85 82 92 100 88 94 78 67 65 62 78 86 99 98 96 93 98 99 96 97 98 83 81 56 54 43 39 58 61 69 88 93 87
98 98 95 93 86 74 80 90 81 79 83 84 88 77 88 98 79 70 78 68 65 76 82 87 97 100 96 83 98 98 98 94 91 78 74 63 58 49 56 55 57 66 81 85 85
87 94 78 86 87 83 80 82 82 75 78 71 80 89 95 87 79 74 71 71 74 75 84 98 100 100 87 96 100 99 88 92 82 76 68 83 63 49 59 62 67 58 68 74 79

GFSSW_925_rhum_021.txt.gz
RH
93 87 98 89 71 88 85 92 94 94 96 86 75 83 91 89 98 100 96 69 66 71 75 60 50 51 53 57 65 63 76 76 61 60 45 40 39 34 33 30 33 29 28 31 37
93 95 91 94 73 76 89 94 94 95 96 88 64 82 90 94 98 99 76 72 75 84 73 64 64 57 62 66 69 74 84 74 60 54 48 43 44 41 38 39 38 33 29 31 44
96 95 90 96 98 69 89 95 94 91 96 89 76 75 90 88 86 79 67 91 77 85 82 68 65 60 65 67 71 81 79 67 62 55 57 60 56 43 44 50 42 36 34 34 39
100 99 96 87 95 80 83 92 94 92 96 94 83 73 82 86 92 73 78 80 83 85 80 74 69 70 75 75 69 78 74 75 68 61 64 67 61 64 54 48 38 36 40 38 37
98 98 99 89 90 96 77 92 91 92 95 89 83 80 82 89 80 66 63 68 79 87 79 77 76 72 72 76 73 81 75 67 64 62 62 63 66 63 64 54 47 47 46 45 41
92 97 98 92 89 85 84 75 81 96 90 87 80 88 81 93 54 56 61 70 81 90 84 74 72 74 75 76 71 66 70 68 65 62 59 62 58 64 51 50 52 52 49 43 42
80 96 99 96 88 90 90 68 80 82 93 85 85 88 93 77 56 58 57 65 80 83 85 83 74 74 79 88 74 74 80 70 69 66 65 60 63 70 50 47 46 45 46 44 40
78 89 98 96 94 92 81 79 73 78 92 91 88 86 87 61 65 55 59 57 65 56 63 81 80 82 78 64 64 77 76 76 62 63 63 58 59 48 41 50 52 49 45 48 41
82 75 91 93 98 95 86 82 74 81 89 93 85 80 82 59 67 56 58 54 57 57 52 74 60 64 65 78 80 82 86 90 66 57 60 71 74 56 55 54 54 54 53 54 49
86 81 81 93 97 92 93 79 83 85 90 95 86 88 74 64 62 62 56 52 53 57 56 59 64 76 74 79 88 84 90 79 71 60 67 69 68 56 48 50 48 46 51 52 50
89 89 93 94 95 100 100 99 93 90 98 86 82 76 65 60 59 65 60 53 56 62 86 70 85 88 76 76 68 76 83 86 76 62 69 62 61 52 45 47 49 47 44 44 50
92 86 91 91 98 96 96 90 74 62 95 83 84 80 69 66 69 68 60 69 70 85 78 82 92 66 70 60 71 75 82 78 64 61 65 65 65 50 48 46 41 40 41 45 44
94 89 89 92 98 99 96 74 59 50 75 74 80 78 76 67 75 75 64 73 81 90 87 87 69 64 72 78 78 77 85 77 72 67 62 67 61 37 31 36 37 37 36 35 39
89 96 94 95 98 93 97 74 58 44 85 69 92 86 77 70 76 61 60 67 80 85 72 73 64 74 83 83 79 87 71 72 76 80 80 63 67 37 33 30 30 29 28 32 37
94 99 92 94 94 98 92 76 53 50 76 74 94 74 81 77 66 79 60 61 85 84 83 78 84 92 85 73 74 77 63 70 74 88 84 74 88 55 48 47 40 40 37 32 34
100 93 95 94 88 85 90 73 48 82 95 94 84 92 92 78 74 78 71 63 66 74 76 74 70 71 78 71 68 71 80 76 81 85 96 68 76 53 41 36 34 32 30 41 45
94 88 94 86 80 89 93 86 92 88 70 94 86 88 78 82 79 81 91 95 91 99 98 88 84 78 72 78 74 71 100 95 96 97 82 60 77 53 40 37 36 34 33 33 41
86 95 90 80 65 100 90 97 90 71 80 68 75 78 83 74 74 82 89 93 82 88 98 94 86 85 76 72 80 86 84 87 89 85 71 67 81 54 44 35 34 34 33 34 45
87 99 97 87 82 98 96 98 78 69 73 79 75 84 85 75 80 74 82 81 72 87 95 93 84 78 81 78 67 97 96 68 84 71 92 63 60 49 44 46 50 50 48 51 41
99 95 95 80 88 95 97 91 66 71 69 74 86 77 85 80 93 82 80 67 72 72 65 81 97 74 80 85 78 89 73 96 97 96 86 73 75 61 48 41 55 56 56 55 53
99 97 85 99 99 98 100 82 74 76 64 72 80 83 76 84 81 82 80 68 71 73 68 80 84 82 93 94 74 92 98 99 92 90 86 72 48 40 34 45 62 60 63 71 64
98 100 86 91 99 100 96 74 78 88 75 78 71 69 75 78 82 73 84 73 70 77 88 74 90 98 85 59 63 65 70 73 95 78 85 87 62 48 58 64 61 64 69 81 81
98 94 99 75 99 100 83 84 83 88 82 77 82 69 69 80 90 83 80 65 76 77 85 76 98 98 83 84 69 93 80 77 92 88 94 91 57 33 32 42 58 70 72 83 85
97 100 99 95 94 92 81 87 91 72 76 71 76 73 81 84 71 82 84 65 73 72 66 65 92 89 72 66 93 99 96 95 98 96 75 78 60 44 39 42 47 52 79 78 86
98 98 92 100 99 77 65 71 92 90 79 73 85 79 80 94 87 87 81 71 76 71 74 80 100 96 89 78 81 98 96 99 98 84 90 58 56 46 40 38 53 58 76 69 88
99 98 92 95 86 70 76 76 79 91 78 89 87 79 82 94 92 84 80 78 72 77 86 82 97 100 96 85 97 98 95 96 96 88 79 68 63 44 44 46 66 76 78 78 89
90 89 100 85 88 84 87 88 79 75 81 71 75 76 85 76 76 78 73 67 73 76 84 96 100 100 91 76 95 99 98 96 95 87 79 88 63 50 54 66 83 90 76 72 85

GFSSW_925_rhum_024.txt.gz
RH
99 96 94 94 92 81 75 84 91 94 93 96 90 91 91 91 92 100 81 64 66 72 65 58 49 46 47 40 49 45 38 35 32 30 25 28 27 23 25 25 24 21 21 25 35
99 99 98 95 95 89 86 79 92 95 94 95 93 83 90 97 89 94 76 71 74 83 66 52 46 42 42 43 47 45 43 33 26 27 30 26 31 29 29 26 24 25 23 26 38
90 99 100 98 94 97 94 84 87 93 93 89 88 80 81 87 72 62 78 86 83 85 64 56 50 42 46 47 46 45 46 31 42 37 37 37 39 34 31 31 26 24 23 26 29
86 89 98 100 97 92 90 96 79 88 90 91 82 76 77 87 77 67 82 84 89 84 70 60 51 52 50 49 44 55 43 43 40 44 49 46 38 42 35 28 22 29 28 31 29
81 82 91 98 98 95 92 93 92 86 87 89 78 78 80 73 59 66 63 65 79 86 74 63 56 51 54 49 53 53 41 46 43 50 46 42 44 41 37 30 29 30 32 33 29
76 81 81 97 98 94 91 86 95 94 83 88 77 82 66 74 56 62 63 64 72 83 71 65 60 48 51 52 53 47 52 49 48 45 43 48 40 37 35 30 29 29 29 26 27
82 71 77 85 98 98 90 93 95 93 80 84 79 87 72 50 56 60 59 69 77 73 69 68 64 66 57 64 55 54 61 47 44 42 44 43 48 44 33 30 29 28 25 27 25
80 84 83 79 96 97 96 95 87 85 85 91 85 80 62 64 67 60 59 64 72 70 72 76 73 72 60 51 51 56 56 56 42 47 45 48 41 28 28 31 34 30 28 26 24
81 88 89 86 88 92 100 100 79 84 84 96 85 66 62 61 63 58 55 59 56 52 66 73 66 60 60 59 59 55 52 56 48 39 41 49 46 36 40 39 39 33 32 31 31
86 90 94 91 91 95 96 100 85 88 95 95 78 77 63 57 60 62 59 55 53 50 59 58 54 56 53 59 59 48 61 50 48 40 46 47 46 38 35 34 35 33 32 32 32
84 89 91 86 88 91 98 100 97 93 88 78 71 62 58 58 61 59 55 50 50 57 69 65 78 71 54 50 46 53 56 56 46 44 50 46 42 35 31 32 33 30 28 27 27
80 79 90 90 88 91 98 98 66 56 83 71 71 63 65 60 62 59 56 53 59 70 62 73 84 53 48 50 57 59 64 62 48 42 50 46 45 37 33 32 29 27 24 22 20
72 96 94 90 96 90 91 95 70 47 58 73 71 69 64 60 59 64 54 55 57 67 66 64 58 51 57 62 64 58 64 62 63 52 47 50 45 28 22 21 22 24 24 23 21
87 83 93 94 96 82 89 75 83 56 91 76 80 65 67 58 64 53 50 52 66 65 64 64 52 61 62 66 59 65 45 51 58 64 69 48 57 31 25 25 22 21 20 21 20
91 92 97 87 71 83 76 84 93 73 94 66 83 68 58 60 61 72 53 54 66 64 63 66 67 72 74 64 55 62 51 54 56 64 67 58 83 36 32 32 27 22 19 18 19
91 92 96 94 96 84 98 99 87 98 81 89 83 91 86 68 63 70 66 54 51 59 60 53 54 60 58 54 53 58 61 63 61 75 91 56 69 41 28 24 23 21 19 18 17
93 87 95 93 67 96 96 91 98 92 66 93 83 84 73 84 77 70 80 88 77 96 92 70 64 58 57 68 62 66 87 75 84 93 63 35 50 43 26 24 23 21 18 21 20
99 79 82 87 79 93 94 98 95 66 67 62 67 75 75 67 68 71 83 89 65 70 72 75 73 65 70 70 58 72 69 68 64 50 40 40 59 33 22 23 21 24 25 33 34
92 90 97 88 84 79 95 98 79 56 63 68 70 80 85 66 68 74 76 72 66 69 83 81 71 56 60 55 59 79 94 58 79 58 70 44 32 25 22 23 24 25 34 38 39
96 96 86 76 91 92 95 99 58 60 57 57 74 62 79 76 73 67 68 53 57 53 54 69 82 56 61 65 64 70 57 89 93 81 66 40 34 33 26 25 26 32 34 39 42
97 97 87 89 97 96 100 92 77 55 53 58 67 70 64 72 66 67 60 54 52 58 57 60 67 69 84 82 62 86 95 98 72 76 64 50 33 19 23 21 25 33 39 47 49
94 100 89 92 97 100 100 70 67 67 64 64 54 56 59 64 68 61 62 56 49 58 73 53 69 80 74 43 44 43 59 66 94 83 86 84 63 23 27 34 41 36 39 45 53
97 97 93 92 99 100 94 81 76 70 69 63 64 57 56 62 71 58 62 54 56 58 58 57 88 87 68 69 55 73 60 55 82 85 93 86 56 24 25 29 26 37 36 37 47
96 100 97 91 87 77 78 87 85 69 66 65 64 60 61 64 59 70 67 59 57 55 58 57 75 81 68 63 70 99 79 76 98 95 69 67 57 38 31 31 26 25 25 35 50
97 98 94 100 86 62 66 70 73 73 70 63 72 66 65 72 74 76 65 60 64 62 62 66 100 90 81 69 75 88 86 83 99 86 88 55 47 37 33 34 30 27 39 52 63
100 99 90 79 72 60 61 64 68 76 68 75 66 66 67 76 70 72 69 66 59 62 65 69 90 97 94 69 75 98 94 95 96 96 94 75 66 43 38 35 37 41 62 74 72
93 92 98 78 75 63 62 58 64 65 67 64 63 64 68 67 62 67 68 58 54 65 70 78 99 100 95 70 82 94 98 90 92 92 90 94 60 42 46 47 66 79 76 78 64

GFSSW_925_rhum_027.txt.gz
RH
94 95 100 100 97 95 95 93 87 86 87 93 95 94 91 91 88 94 78 59 58 68 60 51 44 39 37 34 33 35 38 33 28 21 19 14 19 17 16 18 17 16 16 23 28
80 90 92 99 100 96 98 94 92 93 95 94 95 88 86 90 82 85 69 66 68 72 65 48 41 37 37 35 37 43 39 30 18 16 19 18 22 19 22 22 18 20 19 23 29
74 80 86 92 100 100 96 93 94 95 96 94 88 74 78 92 76 61 72 77 81 82 60 46 38 37 40 35 36 38 40 23 20 27 26 24 22 23 26 26 18 18 19 20 24
76 83 81 83 90 99 99 99 93 96 96 93 80 69 70 87 81 64 81 84 87 80 58 48 41 43 40 44 36 41 31 28 25 29 36 35 27 27 26 26 17 17 19 21 24
61 72 79 76 84 98 100 94 96 96 96 91 76 70 75 71 65 66 65 68 77 79 61 48 45 40 43 34 32 40 37 28 31 34 36 36 36 32 30 26 22 21 22 26 25
63 73 81 79 76 87 100 99 99 96 97 91 72 74 70 72 49 56 56 54 57 69 67 54 49 36 41 39 43 36 36 34 35 34 35 39 35 31 28 24 24 24 24 22 23
64 72 85 86 83 86 97 98 98 97 96 95 75 79 60 48 45 47 51 52 61 63 70 61 55 51 46 48 41 46 52 43 39 38 40 36 43 39 28 24 23 22 20 21 20
66 78 82 89 91 87 94 97 100 93 94 95 79 67 63 54 55 54 49 57 64 65 66 64 62 59 58 47 44 50 46 53 31 33 32 38 43 22 21 23 25 24 22 20 19
66 70 81 93 94 90 91 97 99 98 92 96 79 61 58 58 51 47 48 52 53 61 72 75 63 64 64 59 59 50 51 42 36 32 34 42 43 27 27 31 26 24 23 22 21
74 79 77 85 93 88 89 95 90 100 94 88 70 72 53 52 49 46 47 51 47 54 62 64 62 73 62 67 62 44 46 40 38 29 36 40 39 30 26 28 30 28 26 25 24
79 85 87 90 90 90 90 88 100 100 99 83 78 53 52 51 52 49 50 51 46 52 61 57 67 68 49 43 39 37 43 42 34 30 37 37 35 31 26 24 26 25 25 24 23
70 73 91 88 88 88 86 92 89 86 95 59 59 56 50 48 57 49 49 56 59 67 60 70 76 46 38 39 43 46 49 47 37 34 38 38 38 30 27 26 24 24 22 22 21
67 79 90 86 73 98 84 87 76 99 86 76 59 55 59 54 50 58 47 49 60 61 66 68 52 43 47 49 55 50 52 49 48 39 38 40 39 24 20 19 19 21 22 21 20
69 85 81 86 96 83 79 72 79 96 98 88 82 60 60 52 61 44 45 46 52 56 56 59 42 48 51 55 49 56 38 41 45 52 56 40 50 29 20 19 18 18 18 17 18
78 89 94 99 96 68 67 86 76 96 96 70 68 48 52 55 57 60 45 49 54 51 54 58 55 57 60 51 45 54 44 49 49 55 64 51 64 34 23 25 22 19 18 17 16
84 88 97 89 88 73 85 82 93 99 96 85 81 78 74 54 58 57 57 49 42 48 49 45 43 49 51 50 48 52 51 54 53 59 80 46 39 30 21 17 15 15 16 16 14
87 94 94 88 64 81 99 81 99 96 61 95 81 75 70 68 65 70 78 79 68 91 86 61 54 48 45 56 51 55 68 69 79 90 65 27 38 32 19 18 19 18 17 16 16
91 90 87 79 85 83 92 98 95 80 61 54 67 70 79 67 63 63 71 80 57 53 61 74 74 52 55 57 59 65 61 61 58 47 39 28 41 30 17 16 17 17 17 17 18
95 87 92 87 91 84 95 98 97 54 58 68 68 81 95 65 69 64 63 68 57 53 74 64 69 46 53 49 50 66 86 52 66 50 61 38 28 21 18 17 16 16 19 20 25
100 94 83 90 88 84 99 100 66 48 49 54 71 61 75 73 66 62 69 51 54 45 41 58 73 48 52 51 50 57 53 84 90 79 60 36 30 28 20 18 16 17 18 21 28
98 97 97 91 79 91 100 98 60 45 44 49 55 58 56 66 59 59 60 47 43 46 50 51 56 67 66 69 56 71 81 73 55 81 65 57 38 19 22 23 21 21 26 29 36
92 100 97 94 98 100 99 94 52 57 51 49 44 48 54 52 56 55 51 45 39 42 59 50 57 78 64 39 37 39 59 58 90 68 76 81 64 26 22 23 24 24 28 30 30
96 97 90 99 99 100 90 83 61 59 55 51 54 46 44 50 57 48 46 46 42 48 51 51 78 81 73 56 43 55 50 47 66 77 93 90 59 24 23 25 23 24 22 24 26
93 100 95 88 77 69 90 89 75 58 57 50 53 44 48 50 49 52 56 54 47 46 62 48 60 79 68 62 68 99 74 64 94 97 72 65 55 40 34 30 32 30 27 23 21
97 98 92 97 76 59 69 77 72 62 55 51 58 52 51 57 55 58 52 55 55 54 54 54 100 87 72 63 65 77 76 74 94 95 98 70 63 48 40 36 34 32 28 28 38
98 99 94 72 58 53 61 72 57 62 51 58 56 55 53 57 57 66 54 52 53 56 59 61 92 90 87 56 59 84 64 77 95 95 96 95 94 69 54 41 37 36 36 44 44
90 92 97 73 54 50 53 53 57 50 61 55 52 54 58 58 59 52 57 59 54 61 65 76 99 99 83 63 75 85 95 96 96 91 89 91 66 52 52 59 73 73 68 63 62

GFSSW_925_rhum_030.txt.gz
RH
72 76 79 91 94 99 99 99 95 94 85 93 95 95 95 82 94 94 76 64 69 69 52 61 50 42 37 42 34 35 55 50 41 32 26 17 17 17 16 20 18 16 17 27 38
65 70 79 84 87 92 99 99 99 96 93 95 96 92 84 86 96 75 64 61 67 72 58 51 46 40 44 43 40 50 62 51 30 23 24 19 18 19 20 22 24 21 24 26 30
66 64 68 80 79 84 94 99 98 96 96 96 96 81 67 87 80 63 63 69 76 68 66 54 41 38 49 41 40 45 54 34 27 22 29 33 32 20 26 29 25 22 22 26 29
66 66 63 78 79 76 88 99 99 98 95 97 96 75 71 87 81 73 66 74 79 79 70 51 45 48 52 50 37 45 36 34 33 27 32 38 31 33 28 29 25 24 21 23 27
70 68 66 68 82 81 80 95 100 99 93 97 90 75 78 74 66 66 63 79 83 83 71 57 47 47 51 38 38 42 38 30 30 31 34 34 41 42 38 29 25 24 25 25 27
71 70 66 77 83 86 82 93 98 100 100 97 83 77 84 73 47 57 53 53 61 78 72 59 44 39 40 38 38 33 36 36 33 31 35 38 40 40 34 29 29 28 28 27 27
76 74 71 72 76 88 90 90 98 100 100 96 88 82 60 58 42 46 52 50 52 59 70 63 52 52 45 47 42 42 55 46 43 39 40 36 46 44 34 30 29 27 26 26 26
80 78 73 70 82 90 94 89 93 99 100 96 95 76 67 51 49 50 43 46 55 62 64 64 56 61 60 48 46 55 55 70 39 39 37 42 57 37 29 32 33 30 26 24 24
83 83 79 75 82 85 91 89 88 82 98 92 90 76 65 54 52 50 43 47 53 68 67 69 59 65 62 65 66 53 69 56 45 34 34 41 51 37 30 29 35 32 28 25 24
84 84 80 79 89 79 84 85 69 66 92 98 73 80 54 55 44 46 44 48 49 72 87 81 70 72 70 74 82 63 58 53 48 36 37 44 46 36 31 30 32 36 33 32 29
85 86 71 88 94 90 86 83 84 100 100 88 81 53 49 47 47 43 45 50 45 62 73 79 83 88 68 62 57 51 47 46 40 31 39 41 39 34 29 29 30 29 30 30 28
89 85 72 78 90 93 92 76 77 97 99 82 63 47 48 48 56 47 48 59 63 82 60 73 81 55 51 49 49 46 52 54 42 34 38 42 44 36 33 30 28 27 27 26 26
82 73 81 91 95 93 92 78 80 85 98 85 67 55 54 46 55 57 50 52 63 68 69 62 52 44 49 50 52 54 57 56 52 42 40 43 45 37 26 27 27 26 24 24 24
73 80 87 91 93 86 79 79 87 88 100 98 79 58 56 51 59 45 44 49 60 71 67 67 48 45 52 57 50 63 42 46 49 57 68 48 78 42 31 26 22 24 24 27 25
79 85 87 91 96 83 74 85 88 92 98 91 79 49 54 55 57 59 45 46 57 56 57 62 54 58 59 52 46 53 49 51 54 63 68 60 81 54 28 29 24 22 21 22 23
83 87 91 92 83 82 88 82 76 96 97 99 81 74 74 59 58 55 56 47 44 50 50 52 42 47 51 46 49 51 51 54 59 66 89 68 61 50 26 23 22 21 20 23 20
84 92 95 88 78 87 85 86 94 97 90 99 89 74 65 68 69 66 74 76 77 92 90 62 57 49 47 59 53 61 67 93 96 97 89 35 58 40 23 21 23 21 19 20 19
93 87 89 87 88 86 80 82 96 96 98 57 72 71 70 62 69 70 79 83 61 56 75 86 78 59 53 58 65 67 64 90 80 85 67 41 60 38 23 20 18 18 19 20 21
95 82 89 91 90 78 95 84 79 70 55 74 75 80 87 63 68 71 75 71 57 56 77 77 66 47 51 48 52 66 84 54 77 60 84 54 33 25 22 22 20 21 19 25 24
98 92 96 88 81 77 98 98 99 48 51 57 81 62 83 71 67 68 71 53 52 48 46 60 73 50 54 45 46 53 52 90 92 97 80 50 40 39 28 26 24 23 23 24 27
88 90 96 84 79 92 100 100 69 46 46 50 57 58 57 67 59 63 60 48 45 48 46 54 59 75 69 71 69 69 76 70 67 81 91 75 51 26 32 29 28 26 30 38 41
92 97 90 76 98 100 100 97 68 55 44 43 42 45 53 55 58 54 55 48 42 44 56 52 55 90 79 47 49 52 65 63 88 78 80 89 66 29 31 28 27 29 27 32 34
95 97 77 96 96 99 95 80 69 55 49 48 48 44 42 52 63 49 50 46 40 46 55 53 77 91 80 59 48 59 54 55 63 73 85 92 65 27 30 32 31 30 29 26 28
93 99 93 92 84 84 94 90 78 57 54 46 47 42 46 50 47 55 60 52 44 46 54 50 65 87 93 81 84 97 81 64 73 98 79 77 66 48 43 46 54 47 33 34 30
97 96 93 94 83 66 70 81 63 60 53 48 54 47 48 53 54 53 54 62 52 56 49 57 96 85 80 68 68 76 76 72 92 92 98 79 80 70 67 71 65 58 38 36 40
97 98 94 70 56 57 71 92 58 55 53 55 58 52 48 51 58 55 50 55 62 59 61 60 98 95 87 65 68 80 68 69 81 95 96 96 95 66 57 69 75 77 71 71 58
89 90 97 69 60 54 56 53 55 53 61 54 51 52 65 69 64 57 59 59 58 61 67 81 96 98 89 69 80 91 76 86 91 85 92 96 84 77 72 67 73 85 84 81 74

GFSSW_925_rhum_033.txt.gz
RH
69 69 68 70 86 88 92 95 99 100 96 92 92 96 96 94 91 93 94 74 58 78 65 65 58 50 47 46 42 38 64 70 57 49 39 27 25 18 18 20 20 21 29 40 43
69 68 68 65 68 80 81 90 96 98 99 95 96 96 96 94 97 92 79 71 74 70 75 58 61 52 56 49 50 56 71 65 42 39 35 28 33 26 21 21 22 24 31 38 43
72 69 69 67 62 81 82 78 95 99 100 97 92 96 92 84 87 73 56 74 70 74 68 55 56 49 59 51 52 51 72 50 47 36 31 37 37 32 29 28 25 25 31 37 42
75 73 65 74 67 66 79 79 84 97 99 98 90 94 92 93 89 70 69 72 70 77 66 66 59 61 62 63 49 58 46 45 41 37 36 39 40 44 36 32 33 27 26 25 34
80 80 78 68 66 74 79 85 82 97 98 98 91 94 91 92 77 62 57 71 75 79 77 76 71 59 61 55 51 52 46 39 38 38 35 36 42 43 45 39 35 33 31 27 29
83 78 77 78 76 67 74 86 89 96 98 99 91 92 97 93 51 56 63 75 79 78 80 78 63 49 51 52 49 38 42 44 42 44 40 40 42 41 40 36 36 32 32 33 31
79 82 82 80 74 74 82 90 90 93 93 96 94 95 76 69 46 56 53 54 58 73 78 72 64 56 54 51 48 47 55 54 51 47 47 40 52 51 40 39 40 38 35 30 32
84 87 84 83 82 82 81 83 90 89 88 89 98 87 86 49 47 47 51 51 50 61 67 63 56 60 60 51 48 56 58 77 55 46 45 46 57 44 40 42 43 38 35 33 29
85 86 86 85 81 84 77 86 86 86 87 86 99 85 77 54 55 50 44 46 53 61 68 74 69 75 63 69 67 61 80 75 62 42 45 51 57 43 38 40 41 42 39 34 31
85 87 89 87 87 92 95 89 54 81 78 80 90 84 69 61 52 51 43 46 62 79 84 86 84 88 86 79 93 77 76 67 64 42 41 49 57 47 41 38 38 39 41 42 34
85 88 86 78 88 88 94 84 82 96 90 93 83 69 58 49 45 52 45 51 69 88 89 84 89 94 88 77 63 58 63 60 49 38 40 46 49 42 36 38 36 32 34 33 35
78 78 76 84 92 95 98 92 78 94 92 82 67 63 50 46 57 52 46 60 73 88 75 91 92 68 59 60 65 66 62 61 51 41 43 49 47 39 36 35 33 32 35 35 32
78 75 83 91 92 93 92 87 80 70 99 92 74 66 58 51 60 60 54 60 75 81 74 81 58 62 59 57 57 56 62 61 61 51 48 53 57 46 37 35 32 30 29 28 29
77 81 87 89 85 87 84 79 84 67 98 99 93 70 57 55 68 48 51 54 63 75 68 66 48 48 55 61 55 66 51 54 57 65 77 55 88 67 39 33 28 35 36 31 28
82 83 86 91 93 90 89 94 86 75 96 98 94 52 59 67 63 62 48 48 65 65 69 78 61 58 58 57 51 61 53 56 59 68 71 68 80 69 51 37 32 27 27 33 31
85 90 94 86 88 84 98 75 65 89 94 100 86 79 83 66 62 61 60 47 46 58 58 56 46 51 58 48 53 51 54 56 63 75 98 74 75 65 42 29 23 24 23 22 28
97 100 90 97 90 86 80 86 87 96 96 100 92 75 75 75 73 71 75 75 79 93 92 64 61 51 50 62 56 62 70 95 93 92 90 57 81 63 32 26 24 26 24 20 23
98 81 90 92 90 88 91 97 88 88 100 84 73 73 84 70 76 74 79 84 69 64 89 88 86 66 55 64 74 75 68 90 87 98 84 54 72 51 32 26 26 20 22 21 22
73 82 90 94 88 83 92 92 93 99 92 91 79 80 92 70 77 75 78 74 66 62 78 89 77 56 54 49 57 73 88 61 81 73 93 69 47 31 24 25 26 25 24 27 27
77 84 88 87 83 74 98 98 100 92 70 59 96 72 91 75 80 79 76 62 58 55 52 62 83 63 56 48 50 57 59 86 93 98 92 70 56 42 33 32 30 30 39 49 45
79 95 85 81 81 94 100 100 88 69 57 55 68 69 65 71 72 71 76 58 52 57 51 50 64 78 62 69 75 71 69 66 74 90 96 98 66 35 32 34 32 33 32 36 43
89 98 75 81 95 99 100 99 89 72 58 51 49 59 61 64 70 60 72 56 47 48 61 51 72 97 80 60 58 63 75 72 94 74 92 93 70 29 31 33 35 35 39 50 36
96 95 74 87 99 98 88 92 79 60 54 51 50 47 52 59 63 55 59 49 47 50 57 56 73 92 77 69 60 74 68 65 71 80 86 90 68 35 35 36 35 38 50 58 60
96 93 94 98 88 89 92 87 74 61 58 50 50 48 50 58 52 59 67 53 48 55 56 52 77 81 87 79 81 88 78 69 78 98 80 75 64 50 46 47 52 61 65 56 62
97 98 95 97 84 79 78 86 73 66 56 53 54 49 53 60 53 63 67 62 55 57 54 62 75 90 80 76 77 79 78 75 85 78 97 67 68 61 62 73 75 78 72 68 84
96 93 85 95 66 74 80 83 72 72 68 65 65 62 60 64 62 59 63 67 70 61 60 66 86 96 90 78 82 89 76 74 75 75 77 77 90 66 61 77 71 75 78 74 76
86 88 99 86 75 70 70 65 62 63 62 61 56 72 77 82 73 65 60 63 63 72 73 77 95 99 98 71 85 88 76 73 78 79 83 98 88 72 77 80 92 93 91 87 80

GFSSW_925_rhum_036.txt.gz
RH
72 69 67 70 67 64 81 88 89 95 99 100 94 93 95 96 90 94 91 76 60 76 62 66 60 56 54 51 45 47 70 78 61 53 41 32 31 26 19 22 21 23 49 47 45
74 70 70 64 80 64 62 77 86 87 96 100 98 95 93 92 89 90 77 76 77 76 86 78 70 60 64 56 53 60 78 68 49 44 41 34 34 35 28 23 24 36 40 50 50
83 81 79 80 73 78 77 76 85 83 90 98 100 98 92 85 92 73 40 81 79 76 75 75 60 56 65 54 57 58 76 54 50 46 39 40 40 38 33 30 30 33 46 50 55
94 88 83 84 75 70 67 66 78 80 84 97 98 98 87 88 86 65 78 72 81 72 72 68 67 71 69 68 55 60 53 48 45 42 43 40 38 43 40 34 37 34 30 31 40
89 86 82 80 85 81 74 70 72 82 88 96 96 100 88 92 75 57 62 76 77 76 73 73 78 69 70 64 58 58 51 45 43 45 40 39 44 45 46 41 39 35 32 31 33
87 86 88 78 86 85 75 74 78 90 90 97 97 99 86 88 53 60 60 77 74 82 78 77 78 63 56 56 62 48 49 46 45 45 45 43 44 42 42 39 40 38 38 36 33
86 89 87 85 87 86 82 81 85 90 90 89 88 100 82 65 50 50 68 74 74 78 82 79 74 57 55 58 47 48 56 53 50 47 48 41 49 55 41 39 42 43 42 37 36
84 86 87 86 87 82 83 78 82 84 89 88 87 100 82 54 53 58 60 60 68 70 70 67 68 60 60 53 52 57 61 68 50 45 44 46 55 44 43 46 46 46 46 43 37
84 83 86 89 87 86 94 92 91 88 84 86 83 95 78 47 58 50 51 51 52 67 74 73 68 71 60 70 70 63 76 75 66 50 49 56 59 44 36 43 48 47 44 41 40
86 83 85 86 84 82 89 91 78 83 80 88 84 89 74 68 53 49 48 46 67 82 87 85 91 91 85 80 91 79 79 70 69 49 47 57 64 51 46 46 48 46 42 41 42
79 76 80 78 85 85 92 87 79 85 88 72 81 77 66 53 52 54 47 48 84 86 95 86 96 96 81 70 63 61 63 67 56 42 45 48 51 46 39 40 41 36 37 38 36
76 75 82 85 93 93 96 90 82 83 88 63 72 75 56 50 63 60 48 68 80 97 89 87 92 76 76 82 77 72 63 66 55 45 45 52 53 43 39 37 35 34 32 32 32
74 84 85 90 88 92 91 86 78 71 97 83 75 82 56 50 66 67 52 61 80 88 85 83 71 66 74 74 75 59 64 63 63 56 49 56 41 40 39 36 34 32 30 30 31
78 82 86 88 80 84 89 90 76 70 98 98 94 84 59 59 70 53 52 58 69 86 70 75 48 72 77 79 59 69 53 56 61 64 80 57 83 65 48 43 35 34 40 39 35
86 91 94 97 97 89 84 84 80 82 96 98 95 58 64 69 65 73 52 51 72 71 65 73 65 61 68 62 54 65 53 56 58 70 75 71 83 66 51 45 33 30 30 28 35
99 100 98 87 85 86 83 91 77 93 96 100 89 80 80 68 68 72 62 47 52 64 58 58 50 53 55 56 54 54 56 67 75 79 94 73 76 63 46 33 26 22 25 27 25
94 87 84 94 88 84 86 80 83 93 86 100 97 74 75 80 80 76 75 68 89 98 100 66 63 52 53 68 60 59 69 88 89 94 87 63 84 71 47 35 26 30 28 27 27
79 80 92 92 98 93 84 95 87 81 92 93 78 76 90 71 78 82 76 82 67 74 88 89 91 63 54 63 73 68 66 83 72 95 88 63 81 48 40 36 28 28 28 28 29
71 79 94 100 87 78 93 95 95 98 99 84 70 92 87 79 84 80 77 75 68 62 79 87 77 58 56 54 60 75 86 63 82 75 94 74 58 34 29 28 30 32 49 54 51
71 79 91 90 78 78 98 98 99 97 76 67 96 78 96 84 88 80 73 60 60 59 54 66 91 67 56 51 56 63 64 89 93 99 84 72 67 48 32 35 35 37 39 41 44
75 90 77 78 80 96 100 100 96 74 60 62 85 73 75 75 72 67 68 61 55 56 50 53 72 76 61 67 75 74 74 72 80 86 94 97 71 42 33 34 36 41 41 44 53
88 94 70 79 98 100 100 97 89 84 70 62 58 64 64 67 70 66 75 65 54 54 64 51 79 96 85 60 58 65 73 73 91 72 95 93 80 39 39 37 41 37 41 44 50
92 94 81 86 99 97 85 86 79 73 59 51 57 52 55 67 70 58 62 50 56 55 63 56 80 93 78 70 68 77 72 70 74 83 94 92 74 39 42 39 41 52 60 63 63
93 93 92 91 92 89 94 91 78 59 61 53 57 52 54 57 51 71 64 59 52 54 60 59 78 78 88 75 79 88 78 74 77 99 87 82 62 51 46 52 56 69 74 73 77
96 98 94 98 86 82 81 84 76 81 65 56 52 50 60 65 65 72 67 61 59 58 61 60 83 91 81 77 79 78 78 80 88 75 93 64 71 62 55 56 74 80 75 76 71
93 99 90 95 88 71 80 77 77 76 70 66 75 61 55 74 71 72 71 67 64 60 64 68 93 94 90 76 88 92 80 76 74 73 72 72 75 55 56 66 87 87 86 86 82
92 90 97 84 78 76 73 63 66 60 65 73 64 68 79 81 74 68 57 58 61 69 76 74 95 97 98 72 88 97 83 76 78 76 73 92 77 70 74 84 91 95 83 66 64

GFSSW_925_rhum_039.txt.gz
RH
88 82 75 78 72 76 74 70 68 84 85 91 97 100 95 90 82 90 88 79 72 74 79 69 78 66 56 56 50 52 74 83 58 53 43 33 33 28 25 25 23 26 49 45 51
87 88 91 92 86 82 83 73 68 80 85 86 91 98 95 87 90 96 75 76 81 75 74 70 72 63 70 61 57 62 81 70 54 48 42 38 38 40 34 33 25 36 48 61 60
83 83 88 85 86 84 78 74 68 64 74 78 88 93 100 88 83 80 34 71 79 78 82 75 65 63 69 60 60 65 73 54 52 46 45 42 44 37 40 38 32 33 42 47 64
75 78 84 88 83 85 84 84 72 68 67 76 88 95 100 79 69 60 69 66 84 79 83 76 68 72 75 73 58 64 58 54 50 44 45 43 38 44 42 41 37 40 37 32 46
80 84 86 86 83 84 90 84 79 69 71 83 92 97 100 89 76 54 69 78 83 82 82 79 78 72 74 68 60 62 54 50 45 46 46 41 46 48 48 41 41 36 35 36 35
78 83 87 88 88 91 89 82 83 72 79 91 96 98 99 87 43 34 54 77 80 85 78 74 75 62 64 61 67 55 54 51 46 46 45 46 47 45 43 43 44 42 40 39 38
80 83 82 87 89 88 88 83 84 82 86 90 92 99 97 74 49 48 49 78 86 80 81 71 69 61 60 59 52 50 55 54 54 49 51 46 53 60 43 41 44 40 45 43 40
83 84 85 84 87 89 87 82 75 72 83 88 88 97 93 63 53 59 75 77 78 74 73 71 69 63 61 54 56 63 61 73 51 51 47 45 57 43 45 47 49 48 46 46 44
81 80 80 84 87 88 79 88 89 89 88 86 86 88 88 60 59 54 58 70 75 81 74 67 69 71 63 72 75 65 84 75 60 50 48 58 63 45 41 44 47 44 40 45 42
86 81 76 76 82 78 78 83 75 86 78 86 87 95 85 71 49 51 50 53 72 89 91 83 89 92 85 78 87 83 72 71 69 49 53 63 70 54 50 50 53 53 49 45 43
77 73 79 82 90 93 95 89 80 86 85 77 74 77 69 56 50 54 49 55 85 88 98 95 98 93 87 78 62 65 68 69 60 46 48 53 53 47 40 43 45 44 40 38 36
74 77 84 86 89 88 92 89 83 81 87 74 69 67 73 58 71 68 47 66 87 92 90 96 94 85 76 78 76 74 72 74 58 49 48 56 57 45 40 38 36 35 34 33 32
84 86 85 87 92 89 88 88 79 79 92 77 63 82 79 56 68 71 52 67 83 96 87 84 82 82 76 86 82 80 70 66 64 57 52 60 52 42 35 37 36 35 34 32 32
100 99 95 94 91 84 84 81 80 79 98 98 91 82 82 60 75 54 49 68 78 90 83 78 60 76 84 87 76 72 54 57 60 65 79 59 82 65 45 45 39 39 36 40 39
95 95 86 88 89 94 84 83 83 80 88 98 93 72 62 66 71 70 58 54 74 82 78 92 71 85 84 75 56 64 54 58 60 73 70 70 84 64 46 40 33 30 31 31 29
92 83 77 76 84 90 90 85 77 96 96 99 94 93 78 73 79 77 77 54 58 67 59 72 52 53 56 59 52 56 58 66 80 76 90 68 71 59 40 33 36 32 30 32 32
88 88 83 90 92 85 83 82 93 95 99 100 98 75 73 78 84 78 75 77 92 98 99 71 66 54 57 68 59 58 67 83 74 96 78 71 80 58 45 40 36 39 36 41 45
83 90 99 100 84 82 77 87 92 95 98 89 75 72 85 75 84 77 82 89 68 76 94 93 92 63 54 64 72 65 65 78 58 87 86 69 85 49 39 35 29 45 44 49 52
68 80 94 93 83 78 92 96 98 98 100 86 72 89 94 86 86 95 82 84 67 61 78 84 83 59 56 58 59 76 85 63 85 78 95 74 57 33 35 38 36 41 42 43 45
69 83 83 89 83 82 91 98 100 88 64 73 95 82 97 94 92 99 80 62 62 59 55 65 90 66 58 53 58 62 65 86 93 66 76 60 68 46 36 35 39 43 45 44 44
74 84 72 78 80 96 99 100 92 75 75 69 83 79 79 80 76 73 70 60 52 59 55 62 74 77 65 68 78 74 80 82 81 83 85 91 56 48 34 40 44 44 48 54 61
87 87 70 77 99 100 100 98 85 84 73 59 61 64 69 69 65 65 67 61 54 57 62 56 80 95 72 62 59 64 71 77 83 75 98 87 79 44 46 39 45 48 55 58 60
94 94 74 88 97 98 82 88 87 85 70 55 58 52 57 66 68 64 66 49 58 57 63 56 79 92 83 69 68 76 73 71 77 83 96 92 73 42 47 43 43 51 60 70 71
91 92 91 91 92 92 92 87 73 61 59 56 59 54 56 59 57 73 65 65 58 54 59 58 75 76 84 70 80 91 81 77 79 99 87 85 74 47 47 45 48 68 78 73 74
92 96 93 98 87 86 80 81 81 88 64 57 54 54 56 70 68 74 66 61 60 64 63 62 83 90 79 74 79 77 76 84 87 76 87 66 69 54 48 49 55 81 77 77 75
84 98 89 94 93 80 78 76 76 75 72 67 61 63 59 72 71 79 69 65 60 58 68 67 94 94 94 77 87 95 82 81 80 78 78 72 72 49 46 57 77 82 83 80 68
93 92 96 87 86 79 72 65 66 64 68 74 66 71 82 82 75 65 54 58 56 67 76 73 96 93 98 78 90 91 86 78 71 70 63 78 63 54 69 75 86 88 85 73 66

GFSSW_925_rhum_042.txt.gz
RH
81 80 80 83 86 92 83 84 86 65 66 77 86 91 94 99 88 91 95 79 76 79 91 78 91 81 59 57 51 56 78 83 59 56 43 34 34 32 29 28 26 25 37 49 61
85 82 76 75 84 89 91 86 85 80 63 68 75 82 93 100 96 98 77 80 77 75 80 80 87 67 73 64 61 64 84 74 52 46 42 40 39 40 36 42 30 32 54 72 96
79 80 81 82 83 83 87 86 82 82 72 68 65 79 88 96 91 83 57 74 74 79 81 75 71 64 73 64 64 66 73 55 53 46 44 45 45 38 39 39 33 35 40 48 83
80 77 75 80 82 86 89 92 88 78 76 72 69 79 92 99 87 52 60 66 72 74 83 76 70 78 80 76 63 66 60 53 47 46 47 48 40 43 43 39 34 39 38 34 45
78 75 78 82 80 87 90 89 88 86 80 74 77 86 97 97 74 60 73 79 73 79 84 81 75 74 75 72 63 64 56 54 50 48 47 44 47 48 48 44 42 42 38 36 35
75 78 82 83 81 86 89 87 87 85 81 76 87 93 98 97 61 61 44 73 72 86 86 78 73 62 65 68 63 61 56 54 49 48 46 49 50 49 44 43 45 46 43 42 40
79 80 80 83 82 84 86 86 85 86 85 84 84 94 96 80 65 68 58 69 77 90 89 75 65 63 60 63 58 54 59 56 57 51 51 49 56 62 46 43 46 46 48 43 41
84 86 84 82 85 86 87 86 77 75 75 72 76 88 92 69 66 70 73 77 79 87 76 70 65 63 59 55 58 66 60 76 54 57 50 47 59 44 43 49 51 51 53 51 44
90 91 80 79 75 90 77 79 88 82 74 84 77 76 85 69 77 66 60 95 98 94 73 62 68 72 64 74 80 70 88 80 62 55 50 58 65 46 43 46 53 52 51 47 46
85 72 72 82 81 78 84 88 83 83 83 84 73 83 80 73 62 51 66 80 81 81 83 77 89 90 87 77 89 82 74 72 71 49 59 64 71 53 45 52 56 54 54 54 50
88 83 81 82 87 92 90 84 87 75 88 78 78 75 77 73 65 61 55 70 87 92 96 87 98 92 81 75 63 70 70 69 63 49 50 59 59 52 42 45 46 45 41 38 34
94 96 82 86 86 92 88 86 80 80 84 75 67 69 72 74 69 66 53 74 84 94 97 96 90 75 74 70 72 73 77 76 62 51 50 58 59 49 42 41 41 39 39 36 35
95 94 92 92 91 84 88 82 80 76 89 78 63 84 78 69 78 72 57 75 84 91 88 95 91 79 74 80 82 81 77 73 70 57 54 65 59 44 37 36 34 35 38 38 39
97 95 87 87 88 90 85 81 84 79 89 85 77 82 79 69 87 57 53 76 82 86 81 78 85 78 83 87 83 86 53 58 60 65 80 62 81 61 47 42 37 36 36 39 35
96 96 84 85 88 90 86 86 85 86 77 81 90 88 75 68 82 68 65 63 82 87 79 92 88 94 90 83 79 84 54 60 63 73 69 67 79 55 41 33 32 35 40 42 39
94 97 75 82 88 95 92 76 75 94 96 100 94 92 91 77 82 73 83 61 60 80 76 79 57 60 69 70 61 59 58 67 78 74 88 66 65 43 36 39 41 40 45 53 53
83 96 89 100 99 91 83 78 90 94 96 100 100 90 77 84 82 78 92 84 95 99 100 97 86 56 56 72 62 57 70 87 70 82 75 73 75 52 46 42 40 41 48 52 53
65 78 91 90 92 76 76 92 89 89 98 95 79 74 89 79 82 92 91 92 68 83 94 95 97 64 56 62 71 65 61 77 54 75 75 73 85 45 41 36 37 43 45 46 48
69 68 80 76 80 88 99 96 98 98 100 94 82 99 98 87 85 95 85 82 68 62 79 84 90 61 56 60 57 74 84 63 86 79 89 70 58 30 33 40 39 44 44 49 50
72 76 78 82 85 86 95 98 100 93 69 72 91 83 97 97 99 94 79 68 66 59 56 66 93 68 60 56 63 62 66 82 90 72 64 51 63 41 35 39 48 47 49 51 56
72 79 62 71 76 94 99 100 91 80 68 68 79 82 87 86 84 95 73 65 54 61 57 63 75 81 65 68 78 75 82 82 79 84 77 72 40 48 40 42 49 50 50 59 68
83 88 62 80 99 98 94 86 83 83 70 58 61 64 70 68 69 70 70 60 53 56 63 62 83 86 75 64 61 63 74 72 81 77 95 93 71 44 43 41 48 52 55 68 70
95 93 63 82 95 98 86 82 88 76 65 55 57 54 59 62 67 63 62 54 58 52 61 57 78 93 83 68 68 77 73 71 75 81 97 91 60 45 47 48 44 51 64 78 77
90 91 90 92 92 91 90 85 76 65 58 58 60 53 56 62 65 72 65 68 60 52 61 57 73 76 81 69 80 91 82 76 78 95 86 85 72 48 46 51 46 51 83 74 72
92 92 89 98 89 93 81 79 79 82 65 60 56 54 62 71 71 75 67 64 64 68 64 62 85 90 77 71 79 77 76 86 84 78 86 67 76 56 51 52 51 68 77 75 73
87 98 88 88 94 83 74 74 78 78 72 65 66 71 66 68 64 79 69 65 63 62 66 65 97 92 88 78 84 94 82 82 83 78 80 70 72 48 48 51 70 80 80 80 75
91 91 97 85 88 80 79 70 68 65 71 77 65 74 79 81 76 61 57 61 59 70 75 73 95 92 93 81 89 92 88 82 79 72 65 84 59 48 58 70 81 86 87 81 73

GFSSW_925_rhum_045.txt.gz
RH
88 82 81 79 80 78 82 86 81 89 86 70 66 71 82 91 90 99 92 82 74 80 87 78 91 93 60 59 53 56 67 68 56 50 40 36 34 32 30 30 27 27 36 54 65
79 82 76 80 80 79 85 84 90 88 88 81 71 67 71 89 96 98 82 76 76 72 82 85 92 73 72 64 59 61 72 66 49 44 41 38 38 37 35 39 32 34 37 86 98
79 78 78 83 77 82 81 84 89 88 91 87 75 73 68 86 94 85 87 83 80 77 77 82 81 67 74 66 66 65 64 56 51 43 42 46 45 40 39 38 34 33 38 60 87
80 77 79 75 80 77 75 84 85 89 87 89 77 75 69 94 96 62 71 80 78 77 84 80 76 77 81 76 63 67 60 53 46 50 49 50 43 43 42 38 33 40 38 34 74
78 83 80 77 81 81 83 84 86 91 88 88 81 76 84 96 82 66 70 66 82 75 80 77 82 73 76 69 64 65 59 53 48 49 48 45 47 44 46 41 39 40 40 37 33
82 89 88 85 85 83 82 84 86 85 86 86 82 85 93 99 74 74 67 62 79 77 81 72 73 62 65 68 62 60 55 53 50 48 46 51 50 48 44 42 42 43 40 39 38
73 87 92 89 83 81 83 85 84 86 85 85 84 83 87 82 70 65 69 76 74 79 81 74 59 60 60 68 58 61 66 58 54 52 50 50 53 60 44 41 40 39 41 40 39
73 88 92 76 79 76 83 86 86 79 70 73 80 81 86 73 73 68 71 70 74 84 81 72 57 62 59 56 60 67 61 73 54 56 50 44 54 42 41 47 45 43 42 46 41
91 91 84 75 81 82 82 74 74 87 71 72 68 75 81 79 77 66 76 78 77 90 85 78 65 71 65 72 78 72 84 78 62 57 54 50 62 47 45 46 45 43 42 43 41
93 98 95 89 82 88 89 90 90 82 87 80 71 80 72 81 72 64 63 74 87 95 82 78 83 89 86 78 85 81 80 76 63 52 60 64 68 55 44 43 47 44 43 42 44
94 94 92 90 86 88 85 76 77 74 79 72 72 70 78 73 70 73 70 92 69 78 93 85 94 88 81 70 62 65 71 71 64 51 52 60 60 51 43 44 43 40 38 35 33
94 96 96 87 87 88 87 80 72 75 78 71 69 63 61 70 80 69 70 94 96 92 92 97 88 70 72 66 64 68 75 75 63 53 52 57 57 47 42 43 42 41 39 38 37
96 99 95 79 87 82 86 82 80 74 80 80 77 84 70 83 90 73 78 88 90 88 93 94 78 67 68 76 76 76 78 77 71 57 54 61 56 46 38 36 33 34 35 36 34
95 98 94 80 78 90 85 90 84 77 90 81 81 81 79 76 91 61 63 74 84 96 88 97 92 75 76 76 72 92 58 62 60 66 73 60 68 51 44 35 36 43 45 44 42
94 99 81 80 87 90 98 85 79 75 89 74 92 79 81 80 78 75 66 67 86 81 79 94 92 90 90 82 73 76 55 60 64 71 68 66 66 43 37 35 38 42 45 48 48
72 72 68 75 94 100 86 80 70 86 96 99 88 95 86 79 84 78 81 63 67 78 77 82 65 77 87 75 79 58 58 66 72 69 82 63 63 35 36 39 41 41 43 47 48
64 67 65 83 97 88 80 80 87 93 93 99 100 84 80 92 84 82 92 87 92 98 100 96 91 60 78 90 65 60 80 86 69 82 76 72 73 47 40 42 40 42 43 45 47
68 64 68 71 74 86 88 88 89 95 98 95 93 83 96 86 86 90 96 89 69 87 96 94 99 76 57 70 93 66 65 77 59 60 60 71 76 42 40 40 42 43 43 48 51
64 63 71 71 82 93 98 95 94 96 99 95 81 90 94 89 87 93 99 80 71 65 81 90 93 62 61 60 60 72 79 59 82 77 77 56 53 33 35 41 41 46 50 51 53
69 68 74 75 84 93 99 94 99 96 72 70 86 82 87 91 94 96 89 70 69 60 54 67 94 70 64 57 62 62 63 79 83 73 59 41 49 30 35 43 46 45 49 51 63
70 79 61 77 80 92 99 100 88 78 68 66 82 87 78 77 90 91 73 69 58 62 58 65 74 84 65 69 76 73 78 78 71 74 55 44 29 41 40 45 49 46 49 60 73
81 84 59 68 91 99 100 92 82 78 65 58 62 68 76 72 71 74 68 66 54 55 64 62 79 93 79 65 62 64 74 68 76 73 89 84 50 40 39 43 47 46 50 72 69
92 90 56 71 92 98 83 78 85 73 64 56 58 56 59 64 70 66 63 57 56 53 62 60 79 95 85 68 67 77 73 68 71 80 98 79 40 44 47 45 43 46 55 72 67
89 83 89 92 92 88 90 82 72 64 58 57 58 53 58 64 68 71 67 68 58 57 59 55 73 72 76 66 80 92 83 72 77 89 79 78 59 46 41 49 47 51 67 72 71
93 93 88 98 88 94 83 79 79 78 66 57 55 53 61 71 72 75 69 72 67 68 62 62 86 88 74 69 78 78 80 81 83 77 80 58 70 48 49 50 51 55 76 74 72
91 85 85 85 92 88 75 73 77 77 84 63 65 66 60 66 62 78 72 70 70 64 64 69 95 91 84 80 83 92 80 81 78 74 76 71 70 47 45 53 58 79 82 82 75
92 91 94 86 89 82 80 73 71 68 75 79 72 74 78 78 76 63 61 62 63 70 73 73 95 88 86 79 86 92 87 80 81 78 67 82 61 51 52 61 75 84 88 83 72

GFSSW_925_rhum_048.txt.gz
RH
81 80 77 78 80 83 79 82 83 87 89 82 82 72 71 75 85 94 96 72 70 84 88 71 77 82 55 43 42 43 40 41 40 38 30 24 24 21 22 18 18 19 23 44 52
82 82 78 79 82 76 77 76 79 85 87 87 87 77 76 72 80 85 82 79 79 76 83 65 78 71 52 45 41 35 38 30 28 30 30 27 22 23 24 24 22 22 28 58 72
82 82 82 86 77 77 75 72 79 81 86 93 92 84 78 70 73 61 67 68 82 76 73 63 64 66 59 49 42 36 35 28 38 31 29 27 27 26 23 27 20 21 28 46 73
84 86 87 87 83 84 80 80 80 88 92 88 76 88 77 66 86 65 82 83 82 75 67 66 71 74 62 58 40 46 33 33 37 40 40 33 27 29 25 21 23 27 28 28 53
82 71 84 86 89 86 84 82 81 87 90 91 87 80 75 68 66 72 73 70 89 75 66 61 68 70 62 53 49 44 42 36 34 41 41 37 35 29 31 26 26 28 30 27 27
73 72 84 90 92 86 83 83 82 84 81 88 86 83 77 84 53 72 64 67 71 74 68 60 54 54 53 56 50 40 41 38 35 40 39 42 38 38 30 26 27 27 25 23 25
89 90 93 91 79 76 78 80 84 85 84 78 83 83 71 58 74 75 74 69 68 66 67 66 50 55 51 60 46 47 49 40 43 38 36 37 40 43 28 23 25 22 21 24 25
93 93 95 90 77 78 81 86 74 74 75 80 69 79 68 57 70 85 73 68 75 66 69 68 57 48 48 46 52 51 44 53 33 40 41 38 30 31 28 29 29 24 21 22 25
94 93 94 88 87 83 86 91 88 88 87 71 72 71 61 71 81 86 80 62 70 70 75 75 56 54 55 56 59 47 40 41 42 41 35 41 30 27 26 30 29 26 25 25 26
93 93 96 96 86 84 88 91 86 81 84 74 64 74 56 64 74 78 79 76 64 66 85 76 70 67 56 52 51 50 42 46 39 44 49 47 36 35 33 35 32 28 25 24 24
94 96 93 94 82 86 83 75 56 64 67 56 60 66 70 80 70 68 78 87 66 80 79 78 92 81 59 47 43 40 43 38 41 43 44 42 42 38 34 32 32 29 25 25 24
92 93 94 81 82 85 78 64 64 69 64 63 57 56 64 79 78 72 78 90 76 77 72 90 90 51 47 50 52 45 43 41 54 46 44 44 45 36 33 33 33 30 28 26 26
96 89 93 81 76 83 79 81 86 75 63 62 61 68 86 79 70 77 80 81 67 73 84 84 64 48 60 58 54 54 48 54 49 50 45 45 38 38 33 29 32 31 27 26 29
94 92 65 75 76 90 81 99 83 76 77 83 93 80 83 74 83 71 93 85 88 92 86 84 71 57 53 57 46 61 56 55 56 55 48 46 35 38 30 36 34 34 36 37 37
86 93 58 63 86 80 97 81 76 73 93 81 93 79 74 76 74 91 88 95 91 91 93 96 93 71 63 54 47 63 51 53 53 56 58 50 50 32 28 34 35 34 39 42 43
99 74 61 61 87 90 82 77 73 90 92 97 90 87 75 86 79 74 79 63 66 78 80 93 89 92 90 90 60 47 51 54 56 57 80 54 49 27 28 28 34 34 38 42 43
100 72 66 63 71 78 80 75 94 85 95 99 98 76 83 88 79 73 84 73 72 96 99 95 95 87 78 94 79 71 68 91 92 91 65 55 52 27 30 30 31 39 40 42 44
95 69 68 69 75 86 90 84 87 89 100 96 79 75 91 87 84 93 87 71 62 67 95 95 98 79 84 80 89 95 93 72 63 48 41 54 48 29 30 28 30 35 40 42 48
70 68 84 74 83 99 86 95 96 98 99 87 67 71 87 69 77 94 96 70 59 59 74 92 97 58 55 53 54 78 96 48 61 57 58 34 35 29 32 34 34 40 43 45 52
74 78 73 75 85 87 85 95 95 85 68 60 72 68 69 73 70 80 96 63 59 53 49 62 94 63 57 49 51 54 48 71 76 70 55 31 28 24 39 36 35 38 42 44 51
78 69 67 76 82 73 100 99 76 66 63 58 67 66 61 72 68 67 67 62 51 52 47 52 60 82 62 62 59 60 60 57 50 53 40 23 18 23 27 30 36 32 39 47 54
82 83 65 80 88 88 95 85 76 64 53 53 54 62 58 63 65 59 58 57 48 45 49 52 63 83 74 57 53 53 53 44 55 66 65 62 29 30 26 30 33 33 41 48 56
82 76 55 83 87 83 70 68 72 56 54 50 52 52 52 57 61 55 54 53 49 47 48 49 71 88 81 64 61 69 59 52 55 66 82 48 25 34 32 33 29 40 43 51 57
79 84 74 70 76 70 70 68 62 60 53 51 51 47 49 53 52 60 56 59 53 52 59 46 59 69 53 63 68 90 68 60 72 78 51 44 31 33 33 31 39 40 42 56 58
81 90 80 89 78 72 73 70 68 62 57 48 49 46 48 55 57 58 60 59 57 61 52 50 94 83 61 63 69 70 67 66 82 60 75 41 42 28 30 36 39 41 57 61 62
83 85 76 77 77 69 68 68 70 69 70 54 50 54 49 47 44 56 58 56 53 56 54 58 94 86 74 68 69 85 64 62 64 59 57 52 51 32 32 37 42 52 64 66 63
90 90 92 78 71 66 64 66 67 65 69 68 52 54 56 62 60 52 45 45 47 53 57 60 86 81 74 66 72 74 65 61 59 58 53 61 44 36 38 40 49 65 69 66 63

GFSSW_925_rhum_051.txt.gz
RH
82 79 80 81 85 84 80 75 76 80 85 88 88 82 77 75 76 78 89 82 67 72 82 57 65 75 58 45 36 35 47 45 36 30 25 18 21 18 15 15 15 12 16 35 40
76 80 82 88 84 83 78 76 74 74 78 84 89 75 81 78 59 53 67 77 71 70 75 47 63 67 55 45 40 42 46 37 26 24 27 21 22 17 21 18 15 17 22 43 44
82 82 81 84 83 87 83 80 76 76 80 91 92 85 86 74 53 38 52 74 88 75 72 49 49 63 54 40 39 36 33 27 22 28 28 24 22 16 20 18 15 17 18 32 48
82 74 73 79 79 85 87 84 80 78 82 88 90 80 80 63 57 25 60 75 83 73 67 50 46 67 56 52 37 39 28 21 24 30 34 27 20 20 20 17 15 16 22 22 36
76 85 91 88 89 89 88 83 80 84 81 88 88 76 79 67 47 62 72 76 82 79 56 51 44 56 56 44 37 39 28 26 29 38 34 24 23 21 21 19 22 22 24 22 21
86 91 94 94 88 90 79 80 79 83 78 82 86 74 74 84 39 41 71 69 86 75 47 47 41 42 46 42 40 36 32 32 29 37 37 36 28 28 25 20 22 22 22 19 19
89 92 94 95 76 84 78 77 82 86 84 83 80 77 68 54 46 63 80 66 65 74 45 42 37 46 44 51 37 39 37 35 31 32 36 35 36 35 26 21 23 20 20 19 18
91 92 92 95 86 84 82 84 88 73 68 81 82 70 70 44 46 70 86 71 61 72 48 48 43 39 48 42 47 43 42 50 32 34 32 35 35 24 24 24 22 19 17 16 16
91 90 88 90 96 87 85 89 89 88 89 68 67 66 57 46 57 59 78 60 71 74 50 59 57 53 49 52 58 50 44 41 32 27 34 40 28 20 22 24 22 19 18 17 17
92 90 94 92 90 87 84 66 70 77 78 63 57 66 45 51 55 76 85 68 78 59 78 80 74 68 53 46 54 46 41 28 27 37 33 34 34 22 25 26 23 20 19 19 19
91 93 83 85 78 81 74 66 59 63 60 55 52 56 58 71 80 84 70 82 63 60 75 80 84 80 52 37 28 29 32 26 26 37 39 35 31 27 24 26 25 23 20 18 17
96 94 92 91 79 66 66 52 59 66 57 49 47 49 57 87 94 86 87 85 60 71 69 94 93 50 39 35 36 38 32 32 36 36 38 28 36 30 28 26 24 24 24 22 21
97 97 93 75 72 69 64 74 77 65 59 55 56 66 83 85 78 87 80 76 53 65 67 79 78 54 49 42 42 38 37 30 37 44 39 40 39 33 30 28 27 26 23 21 22
96 96 80 69 77 70 68 83 76 69 88 86 91 87 91 93 86 84 92 74 84 72 64 70 76 66 52 48 37 43 36 37 49 48 36 37 23 36 32 32 30 30 29 29 30
89 100 70 74 69 67 82 82 78 69 85 87 89 84 91 82 83 88 89 77 85 84 91 97 81 70 56 48 35 49 46 49 50 49 51 44 43 30 28 35 32 32 34 36 36
99 95 78 77 70 74 80 76 67 94 91 98 91 82 82 84 86 87 91 66 61 77 82 92 80 77 61 57 46 46 51 52 52 53 74 47 38 34 29 27 30 31 32 36 37
100 83 76 76 63 82 87 70 97 86 94 100 92 69 91 84 88 88 89 90 96 99 100 98 98 86 79 73 55 50 60 82 87 94 60 44 49 26 22 21 26 31 33 36 38
91 65 79 73 83 89 86 83 87 92 100 85 84 70 89 65 77 83 67 73 66 61 88 100 98 99 90 80 81 65 60 63 63 63 51 45 46 26 23 23 29 32 36 39 42
72 74 78 77 88 89 87 90 92 98 95 69 56 62 73 60 82 94 75 59 52 48 72 78 100 80 83 79 77 96 96 44 48 37 41 33 28 30 26 26 29 36 39 41 44
77 64 61 84 92 84 81 90 85 79 67 52 58 57 61 57 61 63 72 54 56 49 42 55 90 61 55 50 48 69 56 84 77 75 50 35 26 23 33 32 33 36 36 39 45
73 61 70 82 93 68 99 96 65 53 52 53 53 50 51 56 53 53 57 54 45 45 41 46 54 75 59 61 58 56 58 52 51 50 46 27 20 23 29 30 32 29 35 42 48
71 82 73 88 81 77 83 62 68 50 45 47 48 49 47 50 51 49 55 48 41 38 45 48 58 78 68 50 47 45 44 42 56 63 53 54 33 20 24 26 29 28 37 43 50
63 55 72 77 77 71 60 55 54 46 45 44 47 47 46 47 53 46 47 50 44 42 43 43 70 85 75 58 52 61 50 44 45 64 85 49 33 24 25 28 27 36 41 41 50
62 81 68 53 58 52 51 50 52 52 46 43 44 42 45 46 42 52 51 54 48 46 54 40 51 68 61 64 61 85 58 52 69 80 48 38 29 32 31 26 34 38 38 46 51
58 79 76 84 63 57 57 54 53 52 47 42 43 40 42 48 45 48 48 52 48 59 45 44 99 88 53 53 66 70 62 59 81 59 70 38 30 28 25 29 35 37 43 52 53
75 82 69 67 60 60 62 56 55 56 55 46 45 39 37 39 37 44 44 44 46 47 45 50 89 81 68 53 58 78 58 54 59 58 50 45 45 29 26 32 38 42 53 55 56
68 76 88 67 57 57 53 54 57 55 59 53 43 42 42 45 44 42 34 36 38 44 47 54 78 84 70 58 61 67 55 54 53 50 49 56 40 32 34 37 39 50 55 57 55

GFSSW_925_rhum_054.txt.gz
RH
77 74 78 84 83 83 83 83 79 74 76 78 83 89 88 83 77 81 78 79 79 79 62 60 65 65 75 55 45 46 83 90 64 45 36 20 22 19 16 18 14 14 40 40 66
83 82 81 77 77 81 83 87 80 76 74 79 84 91 86 82 72 58 53 73 84 74 72 52 61 69 79 60 52 49 66 64 42 34 33 25 22 23 21 22 19 16 35 41 64
75 76 76 84 86 82 84 86 86 80 76 76 86 89 81 78 66 51 44 62 71 85 66 49 56 69 78 54 49 48 57 43 34 31 33 26 24 20 23 26 20 20 25 47 51
78 81 90 91 92 90 89 87 87 80 76 81 85 88 76 79 86 50 40 51 81 84 62 63 42 71 70 63 44 47 41 34 32 34 33 29 23 24 22 22 22 29 26 31 48
84 89 92 94 94 92 80 82 80 77 81 83 86 85 78 75 63 41 56 53 78 82 60 59 47 62 63 53 42 46 35 30 28 38 36 27 28 26 23 21 23 26 26 24 21
88 88 92 91 91 85 83 77 80 79 82 82 76 74 80 90 47 44 50 75 76 79 65 55 42 45 50 42 45 39 36 32 31 39 36 32 28 26 24 20 25 23 23 24 22
89 89 84 89 91 81 82 80 80 86 86 86 82 76 69 62 44 63 46 79 78 77 69 50 37 43 48 52 38 37 43 39 34 39 39 34 40 36 26 23 26 25 26 24 23
91 90 87 93 89 76 82 84 85 88 77 82 84 72 70 48 44 58 73 80 81 75 55 43 37 43 56 44 44 48 46 52 38 37 37 40 50 34 28 30 31 26 24 24 23
90 91 88 94 88 78 79 78 86 87 88 71 71 67 60 44 48 47 68 83 65 75 66 43 46 55 57 67 66 54 66 57 45 34 36 40 42 31 25 30 32 28 25 21 20
92 94 91 84 77 83 58 60 72 74 79 65 59 66 50 52 43 48 66 89 68 78 72 64 75 77 69 79 90 66 61 50 45 34 38 48 46 30 24 25 28 26 23 21 21
93 97 94 87 66 61 79 76 67 68 57 77 64 55 54 57 65 75 80 75 73 78 88 79 87 89 71 57 44 41 46 46 34 36 38 40 40 35 28 31 33 31 27 24 22
94 96 94 95 68 70 67 53 65 69 72 44 43 45 61 79 83 77 83 84 95 85 72 88 86 58 50 45 41 38 42 41 32 39 40 37 39 32 29 30 30 30 29 26 25
96 97 95 84 74 70 63 70 73 64 76 61 65 67 79 76 86 79 76 84 82 64 76 76 64 49 47 48 44 42 46 36 41 44 40 41 44 37 32 29 28 28 27 25 24
94 98 93 76 86 63 67 77 71 72 99 86 80 83 87 87 98 85 92 88 70 65 66 73 68 68 71 59 40 47 34 36 47 55 55 43 39 34 38 35 33 31 30 29 32
98 100 85 68 85 59 71 74 68 72 89 82 81 90 85 96 87 91 90 63 72 88 79 92 80 79 85 59 42 43 45 49 50 57 59 51 61 39 38 40 38 36 38 40 39
99 99 79 76 74 66 76 75 70 99 96 99 90 90 90 78 79 82 85 66 58 76 83 93 77 84 87 73 50 49 57 57 55 60 91 59 50 48 42 37 37 38 42 42 43
100 90 73 75 75 79 82 78 98 93 94 98 98 90 93 90 86 85 90 90 92 98 99 98 96 86 85 83 62 56 71 95 96 97 87 48 56 47 30 30 34 38 41 41 43
72 60 75 71 77 82 90 97 88 86 100 80 76 63 85 84 86 94 96 95 71 75 99 99 99 96 86 72 76 68 69 92 75 92 74 45 69 40 27 30 33 35 39 44 45
71 75 75 76 82 83 99 90 90 99 92 69 64 61 66 68 72 74 79 81 77 69 94 100 100 92 86 74 71 88 96 47 70 36 70 55 36 31 29 38 37 39 43 47 50
84 65 62 77 88 89 95 83 77 71 63 50 57 54 58 62 64 62 63 51 57 48 48 62 98 96 91 80 75 80 61 84 94 83 64 44 39 41 40 36 38 47 48 49 50
85 69 80 79 90 94 93 93 65 49 49 53 52 47 47 51 51 52 56 52 44 45 43 58 67 98 79 93 92 91 97 75 70 71 84 55 37 26 35 33 41 38 40 44 52
76 90 75 85 95 95 98 62 51 47 45 46 47 48 47 46 46 48 56 52 39 40 51 52 68 93 75 50 47 53 55 54 97 85 72 76 52 23 32 36 36 31 43 48 55
73 61 70 75 97 82 56 53 52 46 43 42 47 46 44 46 54 48 54 50 42 46 50 50 81 88 78 62 53 64 54 48 63 80 87 82 56 26 32 34 31 32 44 47 57
70 92 83 72 59 63 54 50 53 51 45 41 44 41 46 47 42 53 59 52 49 49 49 48 59 79 86 77 76 84 64 57 77 92 67 63 45 34 35 34 35 46 43 52 58
64 78 74 94 72 66 56 56 51 52 47 41 44 43 44 49 46 50 55 59 51 54 46 57 95 84 60 57 83 79 68 65 81 73 78 50 39 36 36 36 39 43 44 56 60
74 81 72 72 63 62 62 55 55 50 53 47 50 38 37 41 40 47 48 51 54 51 50 58 92 86 72 54 58 82 67 62 66 66 65 58 54 36 32 36 42 47 56 56 59
66 69 84 65 58 61 70 67 60 56 56 50 53 42 43 58 50 44 39 40 40 53 53 66 88 92 85 62 65 80 65 64 59 58 60 69 49 36 41 42 44 53 59 59 58

GFSSW_925_rhum_057.txt.gz
RH
86 81 83 75 75 83 82 82 86 89 78 77 77 83 88 91 83 80 91 75 72 76 58 65 57 68 72 75 65 64 88 87 82 73 58 36 44 20 19 20 18 33 50 74 69
82 76 80 84 91 92 88 85 85 89 87 76 75 86 88 84 84 75 68 66 74 74 70 70 70 67 92 76 67 87 86 68 52 56 58 44 40 40 22 22 24 55 73 77 75
81 82 86 90 91 89 94 93 91 92 89 77 75 81 89 78 82 68 58 62 66 82 68 62 60 74 87 72 65 59 78 59 52 47 60 45 37 34 26 26 23 43 65 76 83
86 90 86 83 85 86 90 89 84 88 83 77 81 85 89 79 93 50 62 60 60 79 78 65 63 93 80 76 57 58 49 50 46 48 66 40 29 29 25 26 34 28 56 62 72
92 89 87 83 88 89 81 75 82 82 78 85 85 80 75 81 74 45 51 58 57 77 78 74 69 80 78 71 58 62 45 41 39 40 44 36 31 27 25 28 31 29 29 40 56
89 88 86 85 88 93 77 81 80 82 85 78 82 75 79 92 52 51 44 55 69 79 77 67 51 62 66 61 60 49 47 39 36 42 36 33 31 27 25 28 28 28 26 24 23
88 90 86 90 94 87 86 79 83 88 85 85 84 80 78 70 50 61 56 52 62 83 75 62 47 59 53 56 46 44 57 51 50 46 40 34 39 38 31 28 27 28 28 26 24
91 90 86 92 88 76 82 79 86 78 85 76 83 77 86 51 47 52 65 69 80 81 65 60 52 50 58 51 48 51 55 76 45 46 40 37 52 40 33 32 33 34 30 29 26
92 94 83 90 82 77 56 58 81 85 87 83 76 78 78 53 51 50 51 75 81 86 76 56 56 57 64 71 75 65 77 69 49 43 46 44 51 38 34 35 37 36 34 31 28
95 95 93 91 81 60 73 59 66 76 69 75 67 76 59 63 60 49 65 75 92 83 92 77 69 81 84 84 88 81 70 61 54 43 44 50 49 39 32 36 39 38 33 30 27
94 97 96 62 96 73 72 73 72 76 62 84 81 64 60 66 62 72 80 88 95 84 86 73 87 88 83 73 58 55 56 61 50 38 43 48 49 42 38 30 34 35 33 30 26
93 94 98 64 73 73 62 70 75 70 84 51 59 53 76 79 77 83 84 96 83 95 85 89 90 74 66 66 71 52 58 56 40 40 43 46 51 45 40 35 33 35 36 32 26
93 97 100 92 64 67 67 77 73 68 88 70 72 75 82 75 86 87 95 83 81 91 76 76 69 62 61 64 66 49 53 50 49 46 44 42 47 41 36 33 32 31 31 28 24
92 98 97 66 76 68 70 66 68 72 96 88 78 92 84 77 89 82 94 84 90 82 70 78 63 60 61 63 53 58 40 40 54 59 65 42 58 40 40 40 36 34 32 29 42
95 100 86 85 70 71 72 73 70 74 88 76 88 85 84 82 83 75 91 95 89 84 72 96 83 82 77 67 56 54 48 55 55 59 58 54 66 50 44 45 41 40 41 48 50
96 99 77 78 76 70 74 75 76 91 96 99 95 94 94 92 88 81 91 86 61 75 80 91 76 87 88 76 72 53 61 65 67 71 91 66 64 52 50 40 43 44 51 48 48
96 91 68 78 80 76 71 85 93 96 86 100 98 85 80 92 89 83 79 84 90 98 96 96 96 82 88 80 73 61 69 96 97 96 92 54 66 52 38 37 39 48 50 50 51
75 61 67 73 80 75 84 94 92 84 97 84 77 77 91 89 95 92 79 90 73 84 95 99 97 95 91 89 90 69 65 87 85 98 85 49 73 54 34 33 38 41 47 52 55
75 70 78 78 79 79 97 95 90 96 88 84 68 70 77 74 85 92 86 86 76 72 88 94 99 90 91 84 80 85 91 54 73 52 83 65 45 33 43 47 45 48 54 54 56
79 78 82 81 80 87 93 90 81 79 68 58 66 55 61 74 75 78 77 68 73 72 70 90 99 95 90 83 74 80 67 83 94 90 70 63 47 49 50 51 46 51 53 53 62
87 86 82 80 86 94 92 95 74 67 52 59 62 51 49 58 60 61 66 54 52 53 54 67 77 99 93 98 95 83 95 78 77 85 88 64 50 28 36 44 48 53 51 58 62
89 95 78 87 99 99 97 83 59 52 50 56 52 54 50 49 50 64 69 58 42 43 63 54 81 99 92 68 71 70 76 70 93 85 74 82 58 32 36 39 45 48 49 58 64
97 86 78 86 98 93 60 58 57 56 46 47 50 48 48 49 59 56 66 54 50 54 55 57 80 96 90 68 60 92 73 67 65 77 84 79 62 34 41 42 36 36 49 60 64
93 95 88 91 80 72 72 62 66 52 50 43 46 45 48 50 44 58 66 54 50 50 46 50 73 78 83 71 75 83 68 63 76 86 69 75 46 40 43 41 36 38 54 62 63
91 80 72 97 86 79 71 59 59 64 51 43 48 48 53 53 51 58 63 62 54 48 49 62 83 80 67 75 80 79 72 72 78 66 74 56 49 39 42 38 36 51 57 66 65
92 91 84 92 81 76 69 74 63 60 54 57 53 52 44 55 49 58 60 63 65 55 55 68 93 86 64 62 72 85 71 71 73 65 66 66 67 39 35 35 52 52 64 67 66
74 73 91 79 70 75 76 72 72 76 56 52 57 64 59 61 51 46 45 46 52 61 65 74 89 91 87 65 70 75 70 69 67 66 61 76 51 40 43 48 54 70 67 68 65

GFSSW_925_rhum_060.txt.gz
RH
83 85 83 83 85 91 93 92 89 88 89 90 83 78 83 88 89 86 90 74 73 66 73 69 60 65 75 84 80 76 87 73 69 67 59 61 59 41 25 24 42 51 66 69 78
92 88 87 85 88 82 87 92 86 91 90 92 84 75 84 86 85 90 80 76 69 81 76 69 74 72 86 89 87 82 74 68 50 50 74 73 62 56 31 34 66 93 86 80 76
88 87 90 90 79 83 85 87 86 84 93 92 82 77 85 84 85 73 74 77 69 70 80 69 63 72 89 82 78 89 76 60 50 48 81 80 73 57 46 27 47 88 93 86 81
86 84 89 82 82 83 90 81 79 77 82 81 79 82 87 82 84 56 58 69 72 70 81 68 74 90 88 91 67 74 58 56 52 50 84 81 68 64 42 29 32 69 86 88 88
86 87 83 87 89 94 90 79 81 84 80 83 84 87 78 89 79 52 61 49 64 69 93 71 80 87 84 74 68 62 55 51 60 68 77 74 79 72 42 31 35 56 64 82 87
92 86 85 88 92 92 83 81 82 87 86 76 84 83 81 94 50 49 49 51 68 68 92 79 72 74 69 68 70 61 53 55 56 50 60 80 78 65 32 28 31 32 36 39 62
94 89 87 91 93 89 80 83 86 89 84 84 86 76 81 75 51 59 59 59 60 69 82 76 56 72 66 68 53 52 66 57 52 48 44 49 64 60 29 31 30 30 30 26 26
96 92 90 88 91 88 81 76 85 91 90 88 85 82 84 53 52 50 61 62 65 72 78 72 60 73 60 52 61 55 68 81 54 49 42 36 51 39 34 35 34 32 30 30 31
93 87 94 90 90 88 76 74 80 73 76 82 78 81 85 56 57 54 57 67 81 80 68 84 64 63 61 76 77 68 88 80 59 48 48 42 50 39 32 37 37 39 37 34 32
92 86 96 95 59 89 90 65 62 71 72 76 74 83 65 70 58 67 69 65 83 88 94 99 83 84 84 80 85 83 74 67 58 52 50 52 52 37 35 35 39 39 39 34 28
88 91 98 96 66 67 69 67 74 72 66 67 64 67 64 63 71 85 80 76 89 95 95 77 88 92 80 66 57 62 63 68 54 44 48 56 53 45 39 37 37 43 38 32 28
88 92 92 98 65 65 65 80 76 72 88 63 65 72 73 80 78 86 83 84 88 97 81 97 86 75 71 66 60 61 63 66 48 44 46 51 55 50 44 42 36 35 37 36 30
90 94 96 97 78 68 71 78 73 66 87 76 69 79 85 78 87 88 78 78 87 92 86 82 76 68 69 77 78 61 65 59 52 48 43 48 56 50 45 39 35 35 34 34 31
92 94 99 96 81 76 70 67 68 73 92 92 78 85 83 76 91 85 92 88 86 92 69 80 68 72 71 76 66 73 48 46 51 59 69 43 72 42 46 43 41 41 38 36 36
96 98 100 95 78 71 66 70 77 74 92 88 89 75 76 81 87 95 91 84 91 88 70 98 80 78 75 68 53 58 47 55 58 62 58 56 61 54 43 48 44 44 41 40 54
98 98 85 85 88 71 71 74 78 86 96 99 92 91 86 85 83 80 93 88 67 75 82 90 78 90 94 78 64 54 61 68 73 72 90 66 61 61 54 46 41 44 48 56 59
82 78 70 82 79 76 74 82 84 95 84 99 95 86 86 90 91 93 88 89 94 96 98 95 96 82 88 78 66 61 69 95 94 96 90 61 69 52 42 39 42 45 57 58 60
74 56 63 76 78 77 78 83 85 80 98 83 85 86 96 90 88 85 79 90 78 79 94 95 99 93 86 88 88 75 66 87 86 96 80 56 82 56 41 37 38 42 50 55 61
74 69 78 77 82 79 88 94 81 87 78 89 71 82 96 92 87 87 74 89 78 74 85 88 98 87 87 83 84 83 94 60 73 66 87 68 56 38 44 45 52 54 55 60 64
76 80 84 82 82 85 89 90 87 76 76 70 70 54 67 96 90 90 90 72 78 73 69 82 97 86 87 89 86 83 68 80 92 85 75 66 61 53 51 54 52 58 58 61 66
84 88 82 86 86 89 96 95 76 66 67 61 64 55 53 67 76 77 76 67 60 74 69 79 78 93 92 98 94 95 92 82 76 84 89 76 59 37 45 45 51 55 58 59 70
90 96 80 86 95 98 94 84 58 55 52 60 54 56 55 50 58 68 70 60 50 52 70 63 84 95 87 76 77 72 82 73 88 84 80 82 59 34 36 44 48 51 50 56 66
96 90 87 93 88 94 68 61 59 58 50 50 52 49 49 52 62 66 66 54 52 53 63 60 85 98 98 82 74 97 86 70 71 79 87 82 62 38 40 45 46 50 53 62 68
91 90 86 89 87 80 80 64 64 54 54 45 48 46 49 51 50 67 66 56 52 48 51 57 76 76 82 69 80 89 88 76 83 96 74 80 57 39 45 45 41 42 51 68 66
93 88 77 96 87 85 80 71 59 64 53 46 50 49 53 56 56 67 67 63 55 50 57 58 79 79 69 74 74 74 77 78 93 77 82 63 56 37 42 41 39 36 55 70 69
93 93 89 92 86 84 77 83 74 72 55 62 58 61 54 54 52 64 67 66 64 56 58 71 86 81 60 65 68 85 71 74 69 68 64 62 65 51 38 37 41 47 66 69 67
77 76 95 81 74 74 75 75 75 79 58 57 62 67 61 59 51 46 51 55 55 61 70 72 90 86 80 70 65 73 68 69 71 69 60 72 50 43 44 41 50 61 69 70 69

GFSSW_925_rhum_063.txt.gz
RH
91 86 85 91 90 89 83 82 83 94 87 89 92 87 82 87 90 93 91 84 74 79 73 67 77 67 76 87 86 73 80 69 65 66 58 66 64 55 48 34 58 74 76 79 84
81 83 83 86 80 79 78 87 85 87 80 89 94 87 80 86 84 91 73 82 81 75 82 80 80 76 87 92 88 89 82 66 50 52 68 72 69 67 57 53 69 94 93 90 92
86 86 83 75 83 86 90 90 83 75 80 82 91 81 82 85 89 74 43 74 78 72 79 79 70 74 85 91 91 88 73 60 49 49 77 75 67 61 64 49 35 84 96 90 90
90 87 86 84 87 91 90 86 73 73 76 80 80 82 86 80 87 68 63 69 76 83 77 86 79 89 84 92 81 86 67 54 57 78 82 76 67 69 62 53 52 42 91 90 93
92 89 86 87 90 91 82 81 83 85 80 85 79 88 81 91 87 61 66 68 69 63 82 83 82 84 90 87 70 68 63 56 79 75 74 70 73 78 71 56 52 45 87 88 89
92 90 88 88 91 86 80 84 86 88 88 83 84 90 80 94 51 56 52 50 59 64 84 86 74 76 81 79 77 67 54 65 80 76 74 78 71 74 64 55 40 76 85 85 83
90 93 92 87 88 84 81 84 86 88 82 82 87 78 83 75 53 57 50 49 67 73 74 92 63 75 69 76 64 65 72 74 77 69 68 71 89 87 61 54 43 36 46 47 66
94 95 89 93 90 92 91 88 90 93 91 88 86 83 86 52 62 55 53 57 69 71 66 83 69 73 67 60 63 74 74 85 67 57 54 79 85 75 66 57 43 37 35 33 30
87 85 88 94 93 85 75 88 76 87 82 84 80 80 84 59 64 58 62 68 76 70 68 90 69 73 69 83 80 68 93 81 68 51 59 71 59 58 57 56 46 38 41 37 33
82 90 87 96 95 94 68 61 63 72 72 76 78 78 65 66 66 64 70 75 80 80 94 96 88 88 86 84 85 86 83 73 67 55 52 62 49 40 41 39 39 36 42 43 36
87 88 95 98 96 91 64 65 68 65 68 72 66 68 65 71 79 81 77 73 74 88 91 93 88 93 86 68 58 66 68 70 55 51 53 54 52 45 40 41 42 44 46 45 37
90 89 95 99 90 83 65 77 72 72 79 65 68 68 72 81 85 82 76 75 83 89 87 97 86 76 71 59 59 61 71 72 52 50 52 56 57 48 43 47 43 40 43 44 33
92 92 97 100 78 74 68 76 73 71 86 75 72 80 85 80 83 90 78 84 92 96 94 94 70 73 71 74 70 64 71 66 60 50 46 49 57 51 45 49 42 41 38 38 38
93 97 99 99 83 78 70 69 70 74 92 97 82 84 85 76 89 79 85 85 90 94 90 83 74 77 79 81 70 72 52 52 56 59 75 48 80 50 50 50 46 47 45 41 37
95 100 99 97 82 80 65 69 77 76 90 86 86 72 74 84 85 86 88 93 93 90 88 98 84 84 82 74 55 62 49 55 53 62 58 57 66 55 43 53 46 42 48 44 41
97 98 94 87 90 75 72 77 75 83 95 98 90 86 80 84 84 80 92 90 80 80 83 91 81 84 89 75 57 57 62 68 73 72 90 65 64 66 51 44 38 40 47 43 58
83 68 74 81 81 76 79 78 85 95 83 97 93 76 80 95 92 90 91 90 95 99 97 95 96 87 86 74 66 59 71 96 95 97 92 65 67 52 42 42 40 39 47 53 66
74 62 66 78 79 80 84 78 84 76 91 84 84 80 88 84 92 86 84 92 74 74 91 95 96 90 86 82 78 70 64 89 86 96 81 68 81 58 45 40 41 42 47 65 73
76 72 80 86 80 80 86 91 75 83 77 90 82 89 88 78 81 79 82 90 73 69 85 92 93 86 86 84 81 80 93 57 77 73 89 72 60 42 40 41 41 52 61 67 70
75 79 86 87 85 85 90 90 85 72 74 78 76 60 95 82 85 82 83 73 78 72 64 78 95 83 91 79 82 83 73 83 91 81 80 68 68 51 41 47 51 62 64 66 68
83 86 87 87 87 89 92 92 79 68 72 64 66 59 79 93 90 89 87 74 69 82 73 72 77 94 91 95 87 97 94 82 76 81 80 82 60 46 36 42 54 59 60 66 75
84 95 85 88 93 98 90 83 62 58 58 59 58 58 56 58 68 70 76 64 57 74 74 70 80 90 92 78 78 81 81 83 90 85 86 84 69 33 43 42 53 58 57 62 70
92 91 84 92 94 96 75 64 61 58 52 51 54 52 51 55 69 68 67 56 52 60 71 72 91 98 100 85 78 98 90 76 74 82 90 87 71 37 42 47 52 55 54 56 71
89 87 84 89 89 82 87 72 64 56 55 47 50 48 51 53 58 71 67 57 52 50 54 56 80 76 82 69 84 98 88 83 80 98 77 79 63 48 38 46 49 52 52 65 69
92 94 84 94 83 82 83 77 69 65 54 50 51 54 56 58 59 71 69 63 56 53 63 60 80 83 71 73 76 80 83 90 94 77 86 63 66 50 39 39 44 47 52 73 75
82 82 89 89 88 87 80 86 83 84 61 62 60 67 60 55 55 68 70 66 60 57 62 69 82 78 58 66 70 86 71 87 85 77 78 74 66 46 37 40 42 41 55 68 71
79 82 86 80 71 81 78 72 78 77 63 68 72 70 61 62 56 52 56 56 56 63 73 71 88 84 78 80 64 70 67 69 76 74 73 84 60 44 48 44 44 48 61 68 71

GFSSW_925_rhum_066.txt.gz
RH
86 82 83 84 73 80 83 85 84 85 85 85 76 87 88 87 83 90 94 80 80 80 85 71 78 70 78 90 82 83 91 75 78 64 60 66 60 62 54 47 50 92 89 86 87
91 90 86 79 85 84 87 88 88 86 74 72 78 87 79 86 79 89 62 72 77 81 85 87 87 75 84 93 89 90 88 72 52 58 66 72 70 69 57 56 62 55 82 100 100
91 94 87 79 85 88 86 85 87 78 72 81 79 77 87 77 82 74 54 67 70 80 85 85 77 74 79 93 93 95 78 63 51 68 70 73 72 62 60 51 58 65 53 89 96
88 95 88 86 88 84 81 80 84 88 81 83 85 85 83 75 55 70 73 60 69 78 84 89 80 84 71 90 86 94 72 61 66 72 70 67 65 68 72 54 57 53 54 83 96
90 95 90 85 89 83 83 85 85 88 87 86 84 86 77 88 82 52 65 69 70 81 84 84 85 86 87 86 78 80 74 65 67 72 76 65 76 70 71 57 56 52 65 91 96
88 94 92 86 85 85 83 86 86 87 86 87 85 92 78 82 55 59 48 51 66 76 73 85 81 71 78 84 82 67 63 62 82 75 79 73 78 66 45 60 58 53 59 90 93
86 92 95 92 89 89 89 88 90 92 84 84 89 78 81 76 54 59 55 49 50 64 75 81 81 70 74 81 73 63 83 90 90 84 84 70 77 80 54 57 60 60 43 51 71
77 88 91 85 94 92 94 94 94 90 90 89 89 80 84 52 64 58 51 49 60 66 76 80 88 70 75 66 66 76 82 94 87 90 83 73 83 74 62 78 70 62 46 39 35
85 82 91 81 94 95 93 90 86 82 70 80 81 82 79 59 72 64 62 65 72 81 75 82 97 76 76 86 84 81 92 84 91 74 86 72 78 56 72 78 73 61 54 41 40
86 84 89 87 96 93 85 66 67 69 72 77 80 84 64 72 74 69 71 68 81 83 90 87 96 89 92 85 89 90 92 79 89 71 79 74 62 68 71 75 74 57 52 44 41
90 89 90 92 99 91 71 66 63 62 68 75 75 71 66 78 80 77 76 77 84 77 90 92 99 91 86 72 62 74 76 78 58 59 73 80 66 55 64 76 72 62 50 50 42
90 90 92 96 98 94 68 71 66 71 77 61 72 69 73 81 86 79 78 82 94 93 86 97 98 75 68 59 64 68 78 75 55 56 63 62 65 50 52 63 61 51 44 41 42
92 92 94 98 96 78 69 76 72 71 89 81 77 76 86 82 83 88 83 83 85 96 97 98 75 76 69 68 70 67 78 76 68 58 48 60 63 60 53 48 43 39 41 41 45
95 95 92 98 90 77 70 74 73 72 89 95 82 86 82 77 89 74 83 83 88 96 94 94 71 79 76 77 66 72 60 56 62 68 86 51 86 64 53 51 49 44 39 45 44
96 99 95 98 78 83 71 69 77 69 91 83 83 70 75 88 80 85 86 81 90 90 93 98 81 86 82 76 56 63 56 56 55 67 61 59 73 62 45 51 44 40 39 46 44
98 99 97 93 92 79 74 78 77 83 86 96 85 84 88 83 82 84 88 88 79 80 88 93 83 83 83 71 59 62 64 70 75 74 92 68 70 71 57 43 36 39 39 41 43
73 70 77 81 83 78 80 78 88 92 79 86 90 77 87 94 88 89 89 94 100 99 100 92 94 88 84 76 65 61 71 96 94 95 93 67 74 55 43 40 37 34 36 46 48
74 70 76 83 81 81 83 82 90 83 97 85 84 74 96 93 91 93 84 95 77 81 93 98 99 91 86 78 78 67 63 89 86 96 83 70 86 59 44 41 42 39 41 46 67
77 79 83 85 82 83 85 88 78 82 79 90 84 89 85 77 83 81 86 87 70 66 80 93 98 84 91 86 78 81 86 58 78 75 88 75 63 43 41 43 42 42 57 64 77
78 82 91 86 85 83 89 86 82 69 74 81 78 72 90 74 86 82 80 74 82 70 64 76 94 82 92 77 87 80 72 84 90 82 82 70 68 57 41 40 39 48 64 72 76
85 89 90 91 92 86 89 92 81 70 71 67 68 66 88 92 88 89 79 76 73 80 68 71 75 96 80 92 93 94 92 81 77 79 78 80 66 50 40 34 40 48 63 71 79
82 94 88 90 94 96 93 82 64 61 70 61 60 61 68 88 86 78 81 71 68 71 72 67 80 90 84 78 74 74 85 81 94 88 90 87 74 37 39 44 43 54 61 66 71
91 91 81 91 90 96 78 68 63 59 54 53 56 54 52 59 72 71 69 58 61 64 75 71 90 97 93 88 83 98 88 79 77 83 93 88 72 39 40 42 49 56 61 64 74
88 87 82 90 89 83 83 77 65 57 54 49 52 50 51 56 64 74 69 60 54 54 60 60 81 76 86 67 83 99 82 90 86 94 77 80 68 53 47 39 43 54 58 64 75
91 90 90 92 88 86 83 83 77 67 55 56 55 64 59 59 62 73 70 64 58 65 64 60 81 87 72 69 84 88 85 77 96 87 89 66 67 52 47 48 43 49 57 69 76
72 76 87 89 87 83 85 88 90 84 69 66 62 69 65 56 54 65 69 67 63 58 65 67 85 79 61 68 77 86 78 89 84 80 84 78 82 52 45 40 42 44 54 68 70
86 89 87 78 69 83 74 62 82 76 74 75 75 73 62 68 63 57 60 60 58 65 74 71 87 85 81 79 68 75 67 71 85 86 82 92 66 53 52 49 45 48 51 61 71

GFSSW_925_rhum_069.txt.gz
RH
90 92 90 80 80 85 86 86 87 88 90 91 86 81 80 81 84 85 92 76 67 79 86 86 76 75 86 88 86 81 92 83 72 59 58 62 56 57 52 48 64 64 88 91 98
90 94 88 79 84 85 83 82 86 87 79 93 77 75 88 87 84 84 62 72 70 76 84 89 87 77 83 91 85 87 83 72 55 54 68 68 63 61 49 47 50 44 44 85 100
91 94 90 84 84 82 82 82 84 87 83 76 75 79 84 94 69 59 79 70 65 71 77 87 80 73 77 94 84 81 80 61 50 64 65 67 68 60 54 53 58 56 52 56 97
87 92 91 82 86 83 84 84 83 85 86 87 90 78 79 73 59 68 74 72 66 67 80 88 84 84 78 83 82 81 70 56 67 67 64 64 64 60 59 51 55 52 53 55 90
80 90 97 90 80 84 84 85 83 84 86 85 83 81 80 82 73 53 62 64 63 71 83 85 85 78 64 80 87 84 73 58 70 73 65 63 72 61 64 58 52 48 47 78 78
79 85 93 95 92 88 87 87 87 89 84 84 87 83 74 73 51 59 55 57 79 87 84 87 84 68 65 79 80 75 71 71 74 73 73 67 70 55 62 53 49 50 51 42 82
85 78 91 94 83 94 89 90 94 90 93 88 90 76 80 68 52 55 56 54 64 80 78 82 89 79 68 85 75 66 77 85 81 78 77 70 70 70 55 58 55 53 52 46 36
87 85 84 89 77 94 94 94 94 93 85 90 89 79 83 51 64 64 56 53 62 69 68 80 90 88 75 70 68 83 84 88 84 80 92 87 79 55 59 59 58 58 53 51 42
87 89 82 83 81 92 93 95 85 77 76 75 77 81 82 60 70 68 70 67 60 64 69 84 87 84 74 87 84 82 92 89 96 75 89 87 76 56 64 60 65 60 54 51 43
88 89 83 88 86 94 90 68 72 68 74 76 81 75 66 70 72 73 68 71 64 73 85 87 92 92 90 86 83 91 91 91 86 90 84 84 72 69 70 65 59 60 55 52 48
88 86 90 89 91 95 76 64 60 60 66 73 76 76 66 79 79 75 71 74 79 82 96 93 98 92 88 68 62 73 78 80 77 75 82 81 65 72 67 68 61 57 56 50 47
90 90 91 91 95 96 71 66 65 69 74 61 74 70 71 84 85 81 80 82 86 92 89 97 100 84 70 59 68 69 82 74 59 70 66 78 73 59 63 66 58 43 52 49 45
94 94 95 91 94 84 68 74 69 72 86 80 74 78 84 92 81 86 81 79 89 85 83 85 82 66 72 68 70 71 77 74 67 68 55 68 71 65 55 58 58 54 50 45 43
98 98 97 96 87 75 70 74 72 71 90 95 91 83 84 79 85 73 81 81 93 92 75 81 72 75 82 72 66 74 64 62 69 73 84 61 81 66 55 58 56 49 44 43 40
100 100 96 92 75 83 72 74 75 66 85 77 86 72 75 89 77 77 78 90 89 91 92 96 82 85 83 70 56 65 61 61 64 68 65 62 74 63 57 58 55 49 42 39 38
100 99 99 94 88 74 72 75 71 81 89 89 85 86 89 84 81 79 91 83 79 80 93 91 84 85 80 70 56 63 64 68 74 68 86 68 69 66 54 48 45 42 41 40 36
98 82 84 84 84 76 82 77 87 88 71 86 89 85 85 88 85 84 84 90 98 99 100 91 93 88 84 74 61 60 71 91 88 91 87 69 73 54 44 41 38 36 35 34 36
86 85 84 83 80 82 83 83 91 83 96 78 84 79 91 85 86 89 86 99 88 88 100 100 99 92 88 76 76 64 63 83 89 92 82 71 81 54 44 42 41 40 39 40 42
83 85 86 86 85 86 84 87 81 83 81 87 81 86 84 81 88 86 86 95 75 68 80 94 100 85 91 85 74 78 79 58 78 76 77 67 60 45 38 34 34 39 42 48 51
84 85 91 88 89 83 90 85 82 66 76 80 79 74 86 74 91 81 79 77 83 71 64 75 97 83 87 81 83 71 66 78 86 80 76 64 62 48 36 36 34 33 44 52 66
82 91 93 92 91 83 90 93 82 71 72 71 70 72 80 83 85 86 78 76 74 76 67 70 74 96 78 84 92 89 87 86 73 74 74 70 54 46 43 32 39 40 46 57 71
82 98 91 95 94 97 96 81 66 66 73 65 61 61 79 89 91 83 80 73 73 65 69 66 79 94 83 75 77 79 83 78 88 86 87 78 67 40 36 39 45 47 54 62 70
90 90 77 86 92 96 77 70 66 62 56 55 58 54 51 70 75 72 72 60 70 66 74 70 88 93 94 79 82 91 90 80 78 81 95 88 68 41 42 38 44 53 56 63 70
84 85 83 91 89 86 84 82 68 59 56 51 55 54 51 57 68 74 70 65 58 57 64 61 79 76 82 68 84 97 93 86 80 90 73 75 62 50 47 48 46 40 54 60 68
87 85 86 92 87 87 83 84 83 78 64 61 57 68 61 63 64 73 71 65 59 64 63 64 82 87 69 68 86 88 85 86 97 77 86 68 68 54 47 45 44 43 46 61 70
72 80 89 89 87 85 82 89 88 82 80 69 65 69 65 58 57 71 71 67 64 60 65 66 87 78 66 72 81 89 81 87 81 74 73 76 86 58 52 52 48 44 47 59 66
90 92 84 77 70 85 72 59 78 71 79 76 81 76 68 78 74 66 61 62 60 65 73 74 84 84 82 78 66 68 67 78 84 83 74 86 67 55 60 56 57 53 50 52 61

GFSSW_925_rhum_072.txt.gz
RH
92 90 92 82 84 84 81 81 84 87 89 93 93 88 73 87 86 84 71 59 65 77 84 81 77 73 75 65 70 69 65 59 45 44 43 49 44 45 39 37 38 40 64 71 82
88 90 94 84 84 82 82 81 83 85 87 92 92 89 77 77 88 90 65 70 67 73 79 67 66 65 57 57 69 63 69 50 37 35 37 48 45 47 38 39 39 37 44 80 98
77 89 98 87 84 83 83 83 81 83 84 83 86 88 88 93 73 73 68 77 70 69 78 76 64 60 55 60 60 66 73 41 37 39 47 50 49 48 36 44 41 42 42 58 98
82 79 93 93 83 81 84 85 82 83 83 83 84 79 73 85 94 64 73 73 73 64 72 71 67 70 57 64 53 66 55 46 43 41 43 49 46 47 45 42 40 39 42 54 84
94 78 87 94 92 92 86 86 87 86 83 84 86 86 77 62 54 56 64 67 64 65 72 69 68 62 55 48 53 58 48 45 42 46 42 50 57 46 47 42 39 36 35 58 70
94 85 81 94 93 90 92 87 92 92 92 85 87 76 60 49 48 62 61 60 69 63 71 73 64 49 45 48 57 46 49 47 48 49 51 51 52 51 43 40 36 35 36 36 52
94 79 83 85 84 87 95 90 92 94 89 87 87 72 59 45 54 60 59 56 79 80 70 91 71 54 48 46 49 53 60 55 55 54 58 49 58 57 36 42 39 34 33 35 34
93 85 81 78 91 85 95 95 95 93 78 91 91 76 52 51 64 65 60 52 66 74 69 84 89 59 49 47 53 61 55 74 55 56 68 58 66 48 38 44 39 33 33 37 34
92 85 82 84 88 85 95 94 87 75 78 78 76 72 56 60 61 68 73 52 59 72 63 84 87 74 63 63 60 63 58 62 70 53 74 61 54 45 40 43 42 36 34 36 37
91 80 86 90 86 93 94 70 76 70 76 80 76 66 55 63 64 72 70 69 52 70 84 89 90 92 63 61 64 53 50 53 58 67 66 65 57 64 54 50 42 33 33 36 38
86 84 90 90 86 96 87 68 56 60 60 65 68 66 70 77 76 68 72 61 58 67 98 92 98 100 57 45 30 33 44 58 53 69 67 62 60 53 46 46 45 36 32 35 36
89 88 94 91 91 98 75 51 58 65 63 60 64 66 81 85 75 68 74 63 83 99 91 95 100 84 43 48 44 47 48 54 57 63 62 61 63 52 43 41 37 40 34 32 33
88 95 94 92 90 93 70 68 69 71 68 77 76 71 82 94 71 84 72 70 68 100 85 82 83 78 58 53 52 46 44 54 52 65 56 59 63 56 44 38 40 33 29 28 30
95 98 92 94 92 78 65 70 71 67 91 87 92 78 75 73 85 76 78 69 86 92 73 85 68 72 59 49 44 59 42 48 58 61 55 50 37 43 47 47 41 37 33 31 35
98 98 96 95 82 74 76 71 70 67 83 70 82 75 71 88 66 82 81 78 94 80 70 82 86 70 63 51 43 53 49 47 50 45 50 55 53 29 40 43 40 35 33 31 29
94 98 98 93 81 75 69 73 68 90 93 91 79 83 92 74 71 74 78 88 67 82 78 70 52 63 58 56 46 50 51 52 52 48 68 43 48 34 37 36 33 30 31 32 30
93 95 92 84 76 74 79 67 96 86 74 85 88 88 77 77 75 79 78 82 87 98 97 79 67 75 71 58 51 48 52 83 79 83 58 52 54 35 29 30 30 29 27 28 28
85 94 86 83 76 82 81 76 94 79 95 70 79 89 88 74 78 79 78 93 76 79 83 94 99 79 74 51 58 56 44 56 62 62 48 56 57 33 28 30 30 30 28 26 26
86 88 94 88 84 87 75 92 79 91 86 74 76 74 85 85 83 81 73 94 63 54 77 74 98 85 77 67 58 60 65 43 57 55 55 43 42 32 24 25 22 23 27 29 27
91 87 91 89 89 82 84 82 72 58 67 68 64 63 62 75 80 73 93 71 69 59 52 63 97 76 79 64 62 57 43 62 72 75 58 42 38 27 29 27 24 24 25 26 31
88 79 96 92 91 74 96 92 70 60 62 63 61 62 62 66 69 66 70 70 62 60 52 50 58 94 73 80 73 63 61 62 49 56 50 44 31 26 27 27 28 29 33 35 38
83 89 92 96 89 94 90 70 63 63 65 61 56 58 61 65 68 66 67 64 60 49 54 54 61 89 68 67 69 68 55 50 62 70 63 57 39 28 26 26 32 34 37 40 45
71 83 83 93 92 85 67 66 63 59 55 53 54 52 49 64 66 63 63 57 64 55 54 53 65 87 93 67 70 79 65 58 56 66 86 62 42 29 28 29 33 34 33 38 45
66 85 71 74 71 69 68 68 64 57 54 49 50 48 48 55 57 65 62 59 59 55 63 51 61 64 61 56 56 85 70 68 73 86 58 54 42 32 32 33 30 29 31 33 43
59 60 74 88 73 70 72 74 69 67 58 52 53 57 52 55 57 62 61 57 58 63 55 54 97 82 56 63 72 73 65 66 89 70 73 49 45 38 35 34 35 34 34 34 40
52 56 65 67 72 72 71 78 75 72 71 64 56 61 54 53 54 58 58 56 57 55 58 57 88 70 66 66 70 81 62 63 65 64 61 58 57 38 37 40 42 39 38 39 37
88 84 61 67 61 69 61 64 70 66 70 65 73 62 61 74 72 59 51 50 48 52 62 68 73 76 78 63 60 63 52 56 58 58 58 68 50 40 42 40 41 43 41 40 37

GFSSW_925_rhum_075.txt.gz
RH
79 87 96 89 85 79 82 81 82 83 84 88 91 93 91 81 84 86 78 62 50 63 78 54 56 66 63 72 64 54 83 58 41 44 36 37 32 36 32 31 36 38 52 63 86
86 74 91 93 85 80 82 82 81 83 84 85 91 90 80 72 70 70 79 90 71 67 72 57 56 61 56 63 71 85 88 44 30 27 35 33 33 36 32 33 35 35 44 77 91
96 83 80 97 91 80 82 83 82 82 82 83 87 76 83 82 70 64 78 79 81 69 67 70 46 51 57 50 61 73 80 46 35 42 28 40 41 39 33 37 36 39 42 81 90
89 95 80 88 97 88 87 84 84 86 86 82 84 76 72 72 97 81 73 89 75 68 62 75 64 63 54 48 49 70 62 61 65 37 37 41 32 37 41 40 34 34 39 72 90
90 97 86 80 93 93 91 88 86 93 90 82 87 85 72 46 47 53 64 56 60 63 61 66 66 55 50 38 39 67 47 50 72 46 35 34 38 47 44 36 33 31 35 59 79
89 95 90 83 84 96 90 94 88 92 88 87 89 64 55 44 42 51 52 51 47 55 55 64 58 44 42 33 35 34 39 53 54 60 37 39 39 44 41 33 33 31 32 42 60
91 96 89 84 81 92 92 94 89 92 92 87 86 65 53 42 46 55 52 53 63 51 54 67 69 60 41 35 30 35 41 46 62 80 61 40 49 49 29 36 34 32 29 34 36
91 89 87 84 89 90 89 95 95 95 90 81 82 65 47 52 57 50 47 46 60 64 77 84 83 89 58 32 39 48 42 67 44 49 54 48 53 42 30 34 38 34 29 30 33
94 88 82 87 88 91 91 97 91 78 78 72 71 60 50 53 49 54 54 42 52 60 66 76 82 81 71 51 61 58 54 53 44 43 56 55 45 36 36 36 38 36 31 28 31
84 82 82 84 83 87 94 88 77 70 69 68 59 68 48 58 59 61 56 56 48 56 66 85 88 84 73 68 61 52 43 42 38 49 49 56 53 49 42 45 41 36 32 29 31
87 84 86 85 84 87 90 66 57 58 55 55 56 56 61 66 64 58 56 47 49 52 75 91 95 94 55 49 27 25 29 38 31 39 56 55 54 51 45 44 45 40 34 30 28
94 89 89 86 84 93 90 48 55 63 58 54 56 58 73 78 64 58 59 52 62 74 81 98 95 78 62 43 49 33 31 41 39 46 55 47 44 41 37 39 36 34 30 29 27
95 95 91 85 88 89 62 54 69 64 59 66 68 64 76 82 77 70 58 53 61 94 84 91 71 73 82 72 71 36 30 47 50 51 51 40 43 41 39 38 33 28 28 27 26
93 96 90 90 86 67 55 69 71 64 88 80 75 64 70 73 91 59 68 61 76 82 96 85 72 89 84 54 35 49 28 33 39 58 57 42 36 28 36 41 35 31 31 27 26
94 97 93 90 72 63 68 70 69 62 81 65 71 64 62 74 70 75 66 63 75 95 61 68 72 95 71 48 34 37 34 38 47 51 34 45 48 27 30 42 40 30 29 29 26
86 99 97 88 79 72 74 71 64 90 86 91 77 73 68 59 63 69 80 84 57 60 54 57 53 68 66 40 38 42 41 44 42 39 59 42 38 27 25 27 25 24 24 26 26
76 94 98 85 68 78 80 62 96 91 69 82 85 75 57 62 61 67 95 94 91 89 93 73 67 65 65 56 46 43 48 70 68 75 59 37 35 29 24 25 25 25 23 21 22
81 89 85 81 81 75 76 70 98 69 89 60 69 70 72 68 71 69 80 92 68 62 67 92 99 72 54 45 49 47 39 49 54 52 41 42 50 30 23 20 24 25 24 23 23
88 89 83 88 83 81 67 99 78 85 84 63 70 71 66 71 71 75 84 86 70 50 62 65 97 74 64 56 46 53 66 40 48 41 42 39 31 25 20 23 21 20 22 25 24
79 77 82 93 88 84 75 81 63 53 56 54 74 55 68 69 68 64 86 63 58 56 45 50 94 79 69 60 52 49 40 52 62 68 46 37 30 26 25 24 22 24 24 24 22
73 79 93 93 92 73 90 89 59 52 53 55 51 51 51 59 55 60 78 67 50 52 46 45 53 88 67 64 55 57 54 51 45 50 51 33 27 19 26 25 28 29 30 29 29
68 80 97 95 97 87 85 59 58 54 52 54 51 51 51 51 51 52 70 56 49 44 52 45 56 83 66 58 54 61 48 40 57 56 48 55 38 21 21 24 27 31 30 29 34
59 82 92 99 86 83 56 57 55 53 50 50 49 48 46 50 55 51 54 55 56 47 46 44 67 89 78 59 56 65 48 46 41 65 79 54 34 25 24 25 27 30 27 25 30
55 84 76 90 63 59 54 53 58 53 46 44 44 43 44 48 47 56 54 56 57 50 58 46 50 60 62 57 49 69 50 48 64 83 54 49 38 28 26 28 27 27 26 29 30
47 44 62 85 61 55 58 54 54 57 48 43 48 46 42 50 48 54 52 55 56 65 50 50 96 86 50 56 64 68 60 54 72 68 71 46 40 31 28 26 26 29 32 32 32
44 45 50 56 56 55 68 61 55 63 56 52 47 50 44 46 49 52 50 48 51 53 52 51 87 70 65 57 61 73 57 52 53 54 57 49 47 33 33 31 35 32 31 33 34
61 57 42 57 52 51 49 56 61 59 60 58 57 47 51 68 60 50 45 43 44 50 53 61 68 77 73 56 55 60 47 49 51 48 48 57 42 31 33 35 36 38 38 37 34

GFSSW_925_rhum_081.txt.gz
RH
89 85 94 84 79 97 87 79 75 80 82 84 82 82 84 81 83 78 81 80 74 71 82 66 64 61 66 82 82 75 87 84 68 59 49 38 42 36 32 44 59 69 83 72 66
85 89 93 93 82 85 97 87 85 81 86 88 82 82 83 84 78 76 82 90 75 76 81 73 74 64 86 85 85 81 90 76 56 60 47 41 38 37 42 50 79 88 81 92 78
87 89 93 94 80 80 90 95 92 85 84 94 83 83 83 86 82 75 67 84 84 79 85 87 70 70 88 76 82 80 88 70 72 73 62 47 44 38 46 54 47 96 91 94 96
89 88 93 94 87 85 83 98 89 90 83 91 85 85 82 85 94 60 59 76 85 81 72 68 71 82 83 78 76 87 73 73 76 81 76 54 47 50 47 48 40 76 86 94 96
89 87 92 93 90 83 83 92 92 91 86 92 87 84 78 82 58 45 76 62 74 72 82 77 80 83 80 70 71 78 77 76 71 80 73 68 66 51 50 41 41 77 80 95 96
91 88 93 94 78 83 87 88 94 93 90 92 86 85 86 86 40 48 48 69 77 91 82 84 76 74 66 61 67 69 67 72 73 69 89 76 74 53 49 41 40 77 86 90 91
92 91 94 94 82 86 82 90 88 93 94 93 85 85 80 73 46 48 48 60 92 76 77 69 71 82 76 62 49 64 72 72 75 75 82 76 79 67 45 42 41 55 80 82 82
93 93 95 95 85 86 89 82 91 96 95 92 81 84 78 46 50 49 50 54 58 63 66 77 82 81 80 71 59 68 68 90 67 84 84 86 82 71 51 47 46 46 52 54 57
95 95 96 91 89 84 86 84 92 96 84 81 76 81 71 48 54 54 54 51 58 65 75 74 85 82 70 88 69 76 99 95 92 78 89 84 80 61 66 50 50 46 44 47 46
97 96 93 90 88 82 84 80 75 85 66 80 71 72 63 62 60 57 54 46 56 71 76 76 91 89 88 87 86 82 78 74 80 85 79 87 78 64 67 59 54 52 46 43 47
96 95 89 91 91 86 81 81 81 79 67 61 59 51 62 66 59 55 53 51 56 62 90 89 99 91 87 79 83 69 62 63 57 73 75 74 66 59 56 59 55 53 50 46 44
96 94 91 94 89 85 81 91 64 65 74 57 63 62 70 70 62 56 53 60 60 86 85 90 100 84 69 74 84 81 61 54 53 70 61 62 62 59 58 61 57 56 56 51 44
91 90 92 93 86 83 80 74 61 62 81 70 66 64 73 74 78 69 61 49 66 78 82 87 89 76 77 89 85 85 68 59 60 74 80 74 79 65 54 55 55 55 56 51 45
79 90 87 91 85 76 74 62 54 64 92 80 79 69 78 74 72 58 64 68 78 82 75 88 75 74 82 80 70 92 62 55 64 77 88 66 90 62 52 59 57 58 57 55 52
73 89 82 95 90 69 67 63 60 66 93 67 74 61 69 78 67 72 70 69 71 84 73 69 87 86 80 67 67 79 65 56 60 72 66 75 69 53 44 56 57 52 52 48 44
71 79 90 91 84 73 67 64 67 92 85 88 77 89 73 73 77 73 80 69 72 80 82 88 67 74 75 60 66 67 65 77 75 72 92 68 66 56 51 45 48 51 52 46 42
73 73 89 87 79 70 72 78 89 99 76 82 80 71 79 83 91 86 79 88 88 95 96 89 87 79 77 78 66 70 76 99 98 95 78 52 58 51 36 32 40 46 46 36 41
64 82 84 78 74 73 75 92 90 60 85 59 74 76 69 64 79 84 86 85 82 95 92 95 97 86 75 77 74 77 77 83 84 90 68 46 64 43 32 32 34 34 33 32 31
82 92 83 84 74 72 94 86 79 81 80 72 74 79 69 72 71 88 97 69 76 89 79 87 100 80 76 65 61 71 83 47 68 52 76 63 47 32 35 34 32 32 31 31 31
87 87 83 84 79 81 92 82 67 67 63 60 89 77 76 80 81 87 94 69 70 59 59 68 95 72 67 62 55 59 53 67 85 68 61 68 47 47 36 36 44 45 45 41 37
75 98 93 85 77 91 86 88 68 51 55 61 78 69 53 68 73 76 87 67 58 58 49 57 73 86 71 73 70 70 80 62 61 81 82 64 52 37 39 47 50 47 42 41 40
79 99 100 86 98 93 80 83 57 59 54 58 55 56 52 51 66 64 75 63 54 47 60 72 81 94 81 73 65 69 70 63 87 71 79 80 57 31 42 45 45 43 39 39 42
91 97 100 99 96 90 82 67 59 63 63 62 58 50 52 55 66 66 70 61 48 50 56 55 83 96 88 70 66 81 67 66 66 74 80 80 57 34 37 38 41 42 37 43 48
90 98 99 99 92 93 83 72 72 55 53 45 49 46 49 61 53 69 74 61 60 60 55 55 71 75 85 69 76 85 68 68 74 92 73 79 50 37 34 34 32 34 39 37 44
81 92 82 97 89 84 86 66 71 69 53 47 51 51 51 58 60 70 70 71 62 60 54 67 86 76 60 63 72 70 67 67 80 70 81 61 59 48 44 41 37 38 40 40 42
78 85 79 87 78 91 87 67 66 64 59 56 59 52 52 74 68 67 65 68 73 65 59 66 90 72 69 59 64 72 69 70 70 62 67 63 66 46 48 42 46 48 49 48 49
62 56 64 72 78 83 79 64 63 69 63 66 60 59 78 78 71 64 58 50 52 70 72 73 83 90 90 63 64 73 69 71 67 59 60 74 54 46 43 44 46 51 54 53 52

GFSSW_925_rhum_084.txt.gz
RH
88 84 88 95 91 84 82 96 77 85 81 85 89 83 82 85 87 71 87 73 77 76 75 75 69 64 63 83 78 88 90 85 73 55 44 41 43 37 39 52 67 74 72 65 63
90 87 90 95 92 82 80 87 95 89 85 85 96 84 84 87 84 81 64 78 85 83 80 76 79 75 82 88 82 91 85 78 59 60 49 48 39 39 53 73 94 94 89 83 79
91 89 88 92 94 81 85 78 97 91 89 84 91 86 86 87 88 70 63 74 84 81 81 76 76 80 88 83 81 83 84 68 67 84 72 59 52 40 54 54 67 91 87 93 87
92 90 85 92 92 91 87 82 92 93 92 86 93 87 86 84 77 48 55 70 75 86 83 73 78 94 87 85 78 96 73 65 77 87 77 84 73 54 47 48 60 84 82 94 87
94 92 90 90 94 82 84 85 88 94 95 89 91 87 82 84 84 41 65 72 63 86 82 81 85 81 86 79 76 82 75 72 86 83 79 71 75 56 51 44 65 87 89 94 95
95 93 93 94 93 88 84 81 89 94 94 92 91 89 87 95 44 43 55 63 74 86 87 79 75 72 89 69 72 65 85 69 88 82 79 82 78 58 47 47 85 83 92 94 92
95 94 94 95 89 87 87 89 92 92 95 95 92 88 86 85 48 50 52 75 88 90 84 77 78 89 78 67 62 72 87 90 82 79 88 80 76 67 62 47 81 82 86 90 93
97 96 97 96 92 90 83 91 91 93 92 95 91 85 91 55 51 51 51 74 71 86 88 68 80 89 84 74 69 74 83 96 92 87 94 75 81 68 72 66 54 68 82 85 87
97 96 96 92 88 89 86 93 96 86 95 91 89 81 83 52 55 55 55 56 69 80 89 73 83 82 79 84 82 88 99 86 89 74 90 81 83 64 71 69 56 56 60 56 55
95 88 93 88 92 90 88 88 73 72 66 79 81 80 60 66 59 56 54 52 62 72 72 79 90 93 85 90 89 90 90 83 82 88 81 94 90 79 73 75 64 57 54 52 52
96 93 88 91 92 86 84 80 75 77 74 72 62 58 66 63 62 56 54 55 56 74 91 91 97 100 88 84 78 71 84 82 75 77 80 86 82 78 69 64 69 64 59 51 48
92 98 82 85 89 85 82 88 65 66 78 60 61 69 68 71 78 62 55 64 72 94 83 93 100 92 78 79 83 72 62 82 68 77 75 76 81 69 74 60 64 60 60 53 48
90 98 77 75 87 80 79 79 63 63 84 74 66 66 73 73 78 71 70 68 73 79 84 96 94 84 77 87 89 84 82 69 86 84 73 76 78 68 59 57 59 58 53 54 50
88 90 82 80 82 81 81 64 59 63 90 81 81 68 75 73 73 60 69 71 75 84 78 90 89 81 79 84 77 80 68 62 71 87 97 85 93 69 63 60 60 62 66 62 59
89 85 77 82 87 75 64 63 56 66 90 67 82 63 77 86 64 72 69 69 77 85 80 78 88 87 81 71 68 78 70 64 72 86 78 99 84 54 50 60 62 63 64 61 59
89 84 77 91 91 73 68 61 63 89 85 90 81 87 76 78 80 77 74 71 72 80 81 88 69 76 74 65 63 79 78 83 86 97 98 77 72 61 51 50 51 54 59 56 53
87 81 73 82 82 72 66 75 82 98 74 79 91 84 77 82 95 87 84 90 90 88 97 90 88 81 83 80 80 84 81 98 98 98 83 63 77 68 38 38 44 50 55 55 52
85 78 86 89 73 69 74 92 94 71 86 59 71 72 82 77 80 84 78 93 90 90 100 96 98 89 83 86 94 84 75 89 89 92 70 60 77 48 33 33 37 40 48 35 32
84 100 90 83 76 71 91 91 84 78 75 72 77 88 77 69 81 86 86 83 89 90 92 96 100 78 80 69 64 82 83 53 66 60 78 59 48 35 37 38 38 38 39 37 36
99 95 87 83 73 76 84 81 79 66 69 68 83 78 85 85 86 84 90 71 71 74 68 73 98 84 70 61 56 63 58 67 83 71 65 67 56 45 42 38 41 43 46 42 40
86 94 93 81 74 83 87 85 76 55 56 61 87 82 64 81 79 88 86 66 64 63 52 65 72 80 69 80 73 69 70 67 65 82 74 69 57 38 40 48 50 48 44 42 44
89 98 98 82 96 95 87 74 68 62 57 58 58 60 49 62 71 76 85 70 58 50 62 72 79 97 84 72 68 70 70 65 84 69 84 80 56 43 44 50 49 47 41 41 42
97 98 100 93 98 92 73 85 66 67 66 66 62 53 56 58 69 73 73 62 57 55 60 65 83 97 89 70 66 76 68 66 69 77 82 73 54 37 45 47 44 47 41 47 46
96 98 92 100 93 85 95 82 74 56 61 54 51 49 54 63 57 74 76 69 62 61 56 57 77 73 83 70 76 85 74 71 73 90 74 73 51 39 38 42 38 42 41 46 49
90 96 82 95 94 86 86 75 78 73 54 49 53 53 55 67 64 79 75 72 65 61 57 66 85 78 63 69 73 72 69 77 83 72 79 60 62 47 48 44 40 44 45 44 47
89 95 86 91 81 84 86 85 76 66 62 60 60 56 62 68 67 73 75 73 68 64 61 70 94 71 67 61 66 71 66 71 72 67 71 68 68 50 48 48 47 48 49 50 53
70 65 72 85 95 89 93 77 70 72 72 65 57 75 78 78 69 64 60 56 65 70 72 74 84 89 89 70 66 73 65 70 68 66 62 75 54 50 49 47 46 49 53 52 53

GFSSW_925_rhum_087.txt.gz
RH
94 91 87 92 96 94 80 79 87 92 88 85 83 96 86 84 87 73 88 59 77 74 76 74 74 76 65 82 79 78 96 95 77 63 51 42 45 40 45 59 68 71 79 72 92
95 92 90 89 94 94 81 84 76 92 94 89 85 92 86 87 85 84 54 69 70 78 87 86 87 81 81 87 80 90 93 88 65 56 48 48 43 45 61 84 94 96 82 79 93
95 93 92 85 92 92 91 80 82 85 95 92 84 93 88 88 86 71 58 65 70 82 87 85 80 83 90 80 86 81 84 69 69 85 71 62 55 58 65 65 82 91 96 90 90
96 93 92 91 89 93 91 87 85 84 96 94 88 91 90 80 82 48 60 68 77 81 87 84 82 76 90 91 81 87 67 73 75 87 81 81 82 55 49 49 54 81 86 84 85
96 94 93 93 93 94 89 87 83 87 97 96 90 93 80 88 84 42 50 65 71 62 81 84 86 78 87 86 79 86 60 83 84 86 81 76 79 72 55 52 91 89 80 80 83
95 90 95 95 94 95 88 87 88 90 96 95 92 94 85 91 46 48 53 64 73 81 80 85 78 73 87 86 78 80 66 82 75 84 85 84 82 66 58 63 94 87 93 89 89
98 92 94 96 96 96 92 85 89 94 94 96 94 90 80 79 47 51 53 73 72 100 84 85 75 92 88 75 66 63 74 83 84 87 87 81 78 77 75 56 91 89 88 95 96
100 93 92 95 92 97 91 88 91 90 96 97 93 89 94 54 56 52 56 63 77 95 85 76 73 88 87 72 73 80 85 98 88 89 87 78 83 74 79 64 70 81 90 95 98
100 92 88 94 93 96 93 96 95 96 97 95 91 85 91 56 54 52 56 60 78 91 88 80 69 93 84 87 85 77 98 97 93 80 87 84 90 71 73 76 63 62 64 65 77
98 95 89 91 92 92 94 93 72 82 76 78 86 89 64 70 63 57 55 55 68 84 82 90 97 97 90 90 92 97 96 95 98 95 89 90 85 86 73 72 74 64 59 55 50
100 97 91 86 95 85 93 81 77 78 72 69 64 70 66 58 63 57 56 58 60 75 97 86 95 100 91 86 72 65 88 92 90 87 85 89 89 82 78 74 73 68 62 56 55
100 98 89 85 92 94 86 81 64 63 67 66 66 69 70 70 75 63 60 65 71 95 85 83 94 90 83 80 79 76 79 82 80 81 78 89 87 80 80 77 69 67 64 60 49
99 99 90 84 92 94 77 75 64 64 77 73 68 68 72 70 76 72 73 70 76 86 82 94 92 85 92 81 82 82 83 81 82 84 80 86 88 80 83 78 70 64 61 56 55
92 100 89 89 92 82 79 68 60 61 91 74 86 70 74 74 71 60 72 75 72 86 83 92 90 90 91 95 85 90 71 74 86 88 100 86 95 78 66 71 59 59 69 64 58
91 100 90 87 87 85 63 64 54 64 93 63 83 67 77 76 60 65 70 69 80 84 81 92 91 87 83 94 85 90 76 78 76 85 91 98 99 58 59 72 58 66 65 67 63
98 100 92 98 96 72 66 57 62 85 95 92 87 85 84 79 80 78 74 70 71 80 79 85 73 76 74 73 78 82 83 83 90 97 98 90 85 60 59 56 48 51 60 61 61
96 99 98 93 86 70 64 70 90 97 71 82 91 90 77 96 91 85 83 84 91 88 99 88 86 80 83 84 83 89 79 99 98 98 88 74 79 68 54 41 42 46 53 58 58
91 98 90 94 78 70 69 81 96 69 90 62 76 80 82 91 82 85 84 95 89 88 94 94 95 97 82 82 93 91 69 85 93 95 77 75 81 62 35 41 42 45 48 44 45
95 99 99 94 74 67 79 94 80 79 73 79 75 85 84 76 79 83 88 84 81 93 85 96 99 79 90 75 83 86 86 56 69 63 80 72 49 38 38 41 43 43 41 40 43
100 98 97 86 76 74 85 82 78 67 70 69 80 80 88 90 85 82 92 72 75 82 73 81 96 81 78 68 67 69 59 69 83 74 61 67 63 47 42 40 42 46 46 46 46
99 99 88 87 78 89 96 85 74 65 63 68 79 86 78 87 82 83 83 70 67 70 69 69 74 88 68 82 76 72 67 70 67 83 74 77 60 40 40 40 47 48 48 50 52
94 100 96 83 95 95 96 73 67 67 61 61 70 75 67 77 76 84 86 81 60 54 68 71 83 96 82 72 71 73 68 65 80 72 87 77 57 49 42 47 47 47 42 43 48
96 99 100 100 98 99 71 81 77 70 68 68 65 60 57 65 86 73 77 66 56 58 69 64 83 95 80 66 66 75 71 70 72 77 84 77 57 43 55 51 45 42 42 47 51
98 99 100 99 90 79 93 92 74 63 66 62 58 52 61 67 66 81 79 71 63 59 64 61 78 72 83 65 75 86 76 74 74 88 76 73 53 43 41 46 38 43 42 47 49
96 96 85 97 93 91 87 80 62 76 58 57 55 56 64 74 75 85 79 74 67 63 64 63 84 81 67 75 74 74 70 80 84 70 78 61 63 43 51 48 44 43 45 45 50
97 96 84 87 78 81 88 91 72 69 64 63 63 58 56 69 66 82 81 75 69 64 64 72 92 71 72 68 71 70 65 70 75 72 73 68 68 53 48 50 50 50 48 51 54
79 75 78 77 83 79 84 89 76 76 77 62 61 73 71 72 66 66 60 68 65 70 73 74 86 89 88 76 66 71 64 68 70 69 66 79 63 55 51 49 48 49 53 52 53

GFSSW_925_rhum_090.txt.gz
RH
98 96 92 90 88 94 94 87 83 80 91 94 90 81 93 86 86 79 84 49 74 74 63 76 80 77 76 88 79 77 92 84 76 72 70 51 44 42 44 64 67 63 74 71 98
99 98 94 90 89 91 94 93 84 83 78 97 92 84 94 90 85 89 44 74 67 68 72 88 95 83 95 85 86 90 82 72 59 63 60 61 52 46 66 84 92 92 85 84 86
100 97 94 94 91 88 91 92 90 80 81 94 94 88 94 82 82 64 61 63 65 77 63 89 90 86 85 73 80 83 85 60 60 59 81 67 62 58 69 88 81 82 97 91 92
100 99 94 94 94 90 92 94 89 83 84 98 95 89 93 75 63 46 60 63 69 68 61 83 89 97 77 75 62 87 68 67 59 59 88 79 75 60 64 57 57 80 86 87 79
99 100 94 92 95 95 93 94 88 83 86 97 95 95 73 86 87 41 47 50 62 75 68 74 95 82 76 78 76 81 74 66 63 62 81 85 84 67 59 60 88 83 80 85 77
99 99 99 91 91 93 96 93 87 88 97 93 96 97 83 94 49 48 52 57 61 74 86 74 85 82 77 69 91 75 70 66 70 66 74 92 83 81 68 72 96 92 82 87 85
99 100 98 93 87 91 96 90 90 90 96 92 96 89 83 78 49 53 56 59 66 85 92 79 82 88 68 82 71 68 83 72 76 76 90 88 86 90 87 73 96 92 91 84 93
91 100 100 94 88 91 96 96 91 94 96 96 95 89 90 54 56 57 55 61 83 94 81 77 78 82 85 90 93 88 83 94 78 76 86 86 98 88 85 79 78 92 97 90 96
84 99 100 95 88 92 95 94 94 94 96 98 92 88 85 56 58 54 59 62 81 85 86 79 78 84 87 97 92 90 89 91 85 79 94 88 92 86 84 82 74 73 81 94 90
85 92 100 98 88 85 88 97 92 95 90 91 87 88 63 68 60 57 57 58 72 77 76 80 90 97 98 95 96 96 94 95 92 87 84 90 85 75 81 84 79 71 72 65 88
86 94 100 98 88 88 83 84 85 87 79 77 74 73 63 61 61 59 61 57 65 76 97 91 100 100 88 79 72 89 86 96 91 84 90 92 90 76 81 85 86 70 66 62 61
88 86 98 98 89 85 96 91 66 61 66 70 66 68 70 71 81 60 61 63 70 93 84 86 98 94 88 88 80 80 92 97 89 88 87 87 86 78 81 83 79 69 64 60 52
89 92 98 97 90 96 96 82 64 63 70 72 70 70 70 72 74 72 72 68 78 85 87 88 88 81 90 84 83 80 78 86 84 87 85 87 89 86 85 89 81 75 64 59 56
88 94 99 95 94 92 90 64 65 66 90 76 86 72 73 73 69 63 74 74 67 84 87 90 84 84 96 85 90 87 77 70 86 85 93 80 93 78 76 84 83 76 69 64 59
88 96 99 90 97 96 80 66 63 65 77 64 84 69 78 77 55 62 71 67 80 79 79 93 88 82 96 97 83 91 78 81 78 91 92 97 96 71 72 85 72 62 64 63 64
87 98 93 99 88 90 74 65 66 85 73 90 84 83 87 82 81 76 74 68 73 84 80 89 71 79 85 88 86 80 84 88 96 93 96 91 78 66 70 64 56 49 58 61 58
92 94 93 97 90 85 81 70 89 89 66 90 92 89 82 82 86 83 83 80 89 95 99 86 85 82 83 89 80 78 98 99 98 98 92 82 80 69 53 49 44 47 47 56 58
90 86 79 94 85 90 79 81 92 63 89 65 83 88 91 82 84 85 83 88 84 91 83 93 83 93 79 85 89 90 77 95 94 96 93 81 87 59 41 45 47 50 52 57 60
94 90 100 90 88 98 86 99 74 78 76 86 76 85 87 86 81 82 90 85 76 90 87 96 97 83 84 80 87 76 82 59 70 65 84 82 57 36 40 46 46 44 46 50 50
98 91 96 91 99 95 96 83 73 63 73 67 75 78 94 90 85 85 86 73 77 80 78 79 94 95 82 79 71 73 58 70 82 80 65 68 62 49 45 46 47 50 51 52 52
98 97 88 94 99 97 98 89 73 66 67 65 75 89 80 89 83 78 80 71 71 76 77 70 78 92 70 87 80 73 70 70 72 82 73 71 52 41 45 41 54 56 56 57 60
98 100 100 99 100 98 97 74 65 72 68 65 70 71 80 83 88 91 84 78 60 63 76 66 83 99 88 76 74 76 72 65 79 72 87 78 57 55 53 48 54 52 51 54 62
97 97 100 94 99 98 77 76 76 74 72 70 70 66 56 72 82 78 78 67 61 60 76 66 82 93 83 68 65 76 74 72 72 77 84 77 61 46 56 53 48 49 52 57 54
97 100 100 99 88 88 92 89 90 70 69 65 60 56 65 69 76 84 82 73 63 62 62 61 78 71 87 66 76 85 79 70 74 86 74 70 53 47 49 49 39 42 52 54 57
97 98 90 98 97 86 86 85 79 79 63 54 58 58 69 77 77 86 82 73 66 62 69 64 86 83 78 80 75 73 72 80 84 69 77 60 62 45 54 50 46 43 49 51 54
98 97 85 87 77 90 84 88 70 72 71 67 64 60 57 72 70 84 82 74 66 65 69 73 95 71 76 72 69 68 69 74 79 75 73 68 69 55 45 51 51 51 48 49 53
88 78 81 91 84 83 94 88 64 76 78 64 61 71 67 67 63 67 67 74 67 66 76 76 84 88 87 78 68 68 62 70 71 72 70 81 67 56 56 54 52 52 54 54 54

GFSSW_925_rhum_093.txt.gz
RH
98 99 99 98 94 92 90 94 93 88 84 80 96 92 84 96 87 77 84 46 56 75 66 65 65 82 79 83 75 76 87 80 69 69 58 49 55 48 38 39 54 55 60 78 98
100 99 99 99 87 94 92 91 91 93 81 81 93 95 88 95 75 83 43 70 72 65 71 70 83 88 88 90 82 84 84 66 50 53 55 52 53 50 50 46 62 69 91 100 96
100 98 98 99 88 91 95 91 94 94 84 84 93 92 94 79 69 52 65 72 61 72 64 73 94 80 87 79 76 69 84 56 49 47 60 61 57 50 58 65 54 62 96 94 88
98 97 100 98 93 86 94 92 95 91 86 84 98 92 90 66 59 45 59 58 58 70 68 69 78 83 89 81 68 81 62 61 58 53 60 61 80 66 69 53 59 62 79 82 90
97 97 99 99 97 85 94 79 95 89 89 88 90 92 80 80 77 42 59 52 52 57 75 69 80 86 88 72 65 71 58 57 60 61 65 72 76 82 73 46 63 78 76 76 80
95 96 95 100 100 88 81 88 95 90 90 97 81 95 81 92 47 48 52 55 55 68 67 82 78 80 82 69 67 75 63 69 64 58 62 76 71 77 72 70 73 70 88 82 81
86 86 90 100 100 92 83 91 97 89 93 97 79 91 89 79 52 55 59 55 61 80 83 78 86 91 79 70 69 62 89 81 70 64 67 72 74 71 76 79 82 62 88 86 75
83 89 92 100 100 93 84 95 84 94 94 89 94 85 89 57 58 59 56 58 72 76 79 84 79 86 78 81 87 93 94 92 74 74 86 68 72 78 77 79 76 76 70 83 80
82 84 96 100 100 93 88 82 94 92 93 95 96 90 91 58 57 54 57 62 74 79 79 84 81 80 78 90 98 90 93 85 92 72 87 84 84 80 79 78 76 79 83 74 90
80 86 94 99 100 95 88 93 91 84 82 93 89 95 70 61 58 55 57 61 69 72 73 81 86 92 91 98 97 90 80 76 80 86 78 96 95 89 79 78 83 77 78 87 82
78 84 92 98 100 93 84 86 85 88 86 84 79 79 63 61 65 60 57 67 71 77 95 86 98 100 90 90 86 81 81 83 89 85 83 86 98 90 74 78 82 82 79 82 91
81 87 93 98 98 88 90 90 79 69 80 77 71 74 70 70 67 54 64 64 69 87 88 94 98 93 91 92 85 84 84 91 92 82 81 91 95 87 75 83 83 81 71 69 74
69 87 96 100 97 88 96 89 81 70 72 70 73 74 72 70 72 67 75 71 76 84 90 88 81 82 82 83 85 86 83 91 93 86 79 83 100 90 79 79 82 78 72 61 57
79 89 94 100 92 94 94 81 83 73 90 76 91 74 74 72 64 63 74 78 65 83 86 84 76 84 84 82 90 87 81 70 85 80 86 78 92 86 83 78 76 75 72 62 57
82 90 94 100 93 92 91 78 86 67 95 72 85 69 77 64 53 56 72 69 80 76 79 97 86 88 93 95 85 83 80 79 82 89 83 88 92 88 78 78 72 72 72 60 55
87 94 82 99 94 99 80 87 72 93 92 96 88 89 88 82 79 76 74 65 71 84 87 93 70 80 86 84 88 81 84 87 86 88 89 88 85 60 68 63 65 73 59 70 60
89 94 94 90 94 90 86 79 98 95 70 95 92 91 80 81 89 87 82 75 86 90 98 82 83 80 83 96 86 82 97 98 97 94 90 80 74 59 52 45 47 58 48 63 62
82 94 85 84 87 92 79 98 97 76 85 69 88 91 94 73 85 86 82 82 81 90 86 90 83 89 84 88 97 97 88 88 91 92 97 78 87 59 45 46 50 48 52 58 57
86 85 97 96 99 89 93 98 91 86 78 88 80 85 80 90 85 88 88 86 77 88 87 94 99 84 80 86 87 86 82 60 71 69 83 77 55 36 43 45 44 47 48 53 52
94 89 84 100 95 89 100 93 92 64 72 68 75 78 94 93 79 83 79 72 77 76 79 79 94 97 83 78 72 72 59 68 82 78 75 62 61 54 47 50 49 50 56 58 59
91 97 95 99 94 98 99 98 82 63 69 64 78 87 82 92 80 82 82 72 73 78 79 73 77 93 75 88 91 74 69 70 70 78 65 64 52 43 50 44 56 59 61 62 62
92 100 96 99 99 100 99 93 66 74 68 70 70 76 82 85 87 87 84 80 64 65 73 68 84 96 92 76 77 78 75 64 74 71 80 70 56 53 59 47 55 57 60 63 64
97 94 100 91 98 100 95 91 78 77 74 69 72 63 66 79 90 81 79 69 63 64 73 64 83 92 80 66 63 79 78 71 71 73 82 70 59 49 57 56 50 56 59 57 57
98 95 100 91 90 84 100 98 79 75 70 65 65 61 66 76 81 87 84 75 65 67 66 61 77 72 79 65 76 84 79 70 71 77 71 60 56 51 50 49 49 56 56 58 58
97 94 92 99 99 98 91 80 85 82 66 58 60 64 70 81 81 90 83 73 68 65 70 65 85 86 82 79 76 74 77 77 82 65 70 58 56 50 56 52 49 51 54 55 56
98 97 86 87 95 100 99 81 86 75 75 65 69 66 62 72 68 87 83 74 67 65 71 73 95 72 77 72 70 67 74 79 78 73 69 68 67 53 46 52 50 53 54 58 56
87 78 77 97 100 99 93 80 70 72 74 65 65 69 68 66 64 72 74 78 69 67 77 76 83 86 86 78 68 67 61 71 74 73 72 75 63 58 55 53 52 55 60 60 63

GFSSW_925_rhum_096.txt.gz
RH
98 99 100 98 96 97 95 91 93 93 93 82 79 94 96 90 95 78 63 46 52 70 72 59 51 56 59 57 55 48 73 62 45 38 33 22 25 27 31 32 26 29 40 41 64
100 98 95 100 94 96 88 95 92 96 93 82 84 95 93 89 75 60 54 61 74 66 63 51 45 52 52 53 54 58 58 46 31 29 31 29 28 28 34 38 38 32 42 75 86
96 99 99 93 100 99 88 92 93 97 93 86 86 94 95 74 57 37 51 79 66 71 65 61 61 68 65 50 49 48 62 34 34 32 31 37 35 30 40 41 35 32 33 83 74
90 98 99 99 100 98 100 96 92 96 92 86 89 97 87 68 66 41 62 58 58 70 67 58 55 73 74 66 44 57 40 39 36 34 40 43 40 39 38 35 30 29 42 76 80
78 87 92 100 100 99 98 92 96 93 88 90 94 94 79 63 57 44 61 54 51 63 58 58 68 74 83 62 50 50 42 34 36 35 38 46 49 49 49 43 38 32 35 60 74
80 82 86 99 99 100 97 88 91 91 88 92 93 93 77 83 47 47 50 54 60 59 60 60 71 60 72 74 62 36 39 38 36 36 41 48 49 55 47 55 60 51 42 45 60
78 82 86 92 100 100 99 88 98 91 84 93 94 90 84 75 54 56 59 59 61 65 65 66 68 87 85 70 56 51 54 53 50 45 53 45 63 58 45 49 64 59 44 50 63
78 80 84 88 99 100 97 94 88 75 93 89 91 84 78 63 62 62 63 54 76 77 73 82 90 76 83 55 52 79 81 83 50 47 49 61 60 36 53 67 68 65 48 51 66
80 80 84 83 98 100 94 93 87 89 86 95 89 79 78 62 63 54 58 54 66 79 79 72 73 75 66 66 63 62 98 99 73 49 62 66 55 41 57 57 70 66 54 59 80
81 81 86 74 95 100 93 85 87 90 91 91 88 82 67 55 54 58 60 62 59 66 66 86 84 80 74 73 68 88 71 56 61 66 64 76 84 59 56 62 76 65 62 66 72
85 79 85 92 98 99 88 89 88 86 82 60 65 67 59 59 60 58 59 61 60 69 91 76 96 95 69 61 57 88 76 67 83 66 68 64 71 67 55 62 80 67 72 75 87
89 65 86 93 98 97 80 82 78 73 74 62 63 66 65 68 59 50 66 60 60 72 71 89 93 68 84 78 82 85 68 73 88 81 70 78 81 62 58 58 80 66 79 83 96
88 64 86 95 99 96 93 88 78 71 69 61 69 64 63 62 58 50 61 58 59 75 71 75 63 72 77 78 89 69 50 75 82 74 65 71 92 91 76 79 75 66 64 76 89
88 77 79 92 97 98 95 88 73 70 86 79 84 70 67 62 60 54 66 59 59 71 65 71 62 77 74 69 76 62 51 58 83 74 70 56 94 100 90 88 68 66 62 62 78
88 76 79 88 97 89 89 80 79 74 93 76 83 71 66 63 49 52 66 65 59 64 73 74 77 96 82 85 87 65 60 62 65 67 57 70 90 97 82 70 63 65 65 55 53
84 76 77 88 98 94 82 89 76 97 93 98 82 80 77 71 70 58 62 60 60 74 92 81 64 80 79 82 91 76 64 65 69 65 70 88 99 94 70 52 65 63 62 63 53
89 73 86 90 84 92 83 78 98 90 68 97 81 76 76 77 72 67 66 62 70 96 95 72 92 70 83 95 89 77 64 83 76 83 84 93 92 66 45 41 46 57 54 57 53
79 77 92 88 91 91 75 98 94 73 80 74 76 76 82 59 68 68 63 55 65 72 70 79 87 95 76 90 96 89 76 73 66 67 79 72 83 66 42 40 42 63 50 49 53
77 80 93 80 90 89 94 95 90 88 77 78 75 79 82 68 64 67 63 64 61 76 77 76 96 86 83 84 89 80 68 50 60 55 58 62 45 45 45 46 50 51 48 49 49
84 85 77 72 99 88 98 81 92 72 67 64 62 62 68 64 65 64 63 60 70 64 64 70 96 89 84 66 66 66 51 59 62 65 71 50 51 60 48 44 47 45 46 49 49
88 86 84 99 98 92 97 92 96 68 62 58 60 68 61 69 61 64 68 67 74 69 66 62 70 90 77 86 82 60 54 52 49 53 46 51 50 37 41 43 45 46 45 47 48
89 94 89 100 100 99 92 96 88 68 59 65 59 61 57 66 62 66 66 76 63 60 66 60 63 92 80 61 64 65 59 46 50 54 57 42 49 40 39 43 44 51 49 47 44
96 85 95 98 100 100 99 98 88 71 66 64 65 57 58 65 69 68 69 67 60 58 62 53 66 78 68 57 54 62 57 52 49 54 72 48 50 40 40 43 43 45 41 41 40
87 88 99 96 88 77 99 99 89 66 68 61 60 53 57 68 65 74 68 67 63 62 66 49 59 64 63 68 69 73 64 55 56 65 44 46 52 46 45 44 44 44 40 40 39
94 87 94 100 97 90 92 99 72 76 65 56 58 55 56 69 68 73 68 62 56 59 57 50 88 83 64 61 64 63 65 58 74 54 53 47 45 42 40 38 38 40 41 42 41
87 93 79 92 90 97 99 93 69 73 71 64 61 59 53 55 54 68 63 59 56 53 57 56 81 67 62 54 54 64 62 64 60 55 54 48 50 37 40 39 39 42 44 45 46
93 77 64 98 100 94 78 66 61 70 68 62 55 54 57 61 56 54 56 54 54 53 58 58 68 72 74 61 53 52 54 58 61 60 53 48 50 47 45 45 46 50 48 52 52

GFSSW_925_rhum_099.txt.gz
RH
91 94 99 99 98 98 99 96 93 93 94 90 82 82 98 92 83 72 49 46 40 50 79 51 42 38 44 44 36 36 52 49 38 35 29 18 18 13 14 18 18 18 20 26 53
79 84 99 99 99 100 99 94 96 93 97 90 83 88 90 82 70 49 42 44 62 72 52 42 35 37 40 39 43 49 50 44 27 24 25 20 19 17 16 18 22 23 21 25 62
78 76 90 99 99 98 100 99 94 93 95 90 86 92 92 72 49 32 38 68 77 70 54 45 46 47 54 35 38 42 52 31 26 23 22 24 23 18 22 22 20 23 24 41 57
77 79 76 85 92 99 100 98 93 92 96 86 88 94 83 62 52 34 71 70 60 58 54 52 50 61 64 50 34 43 36 33 31 26 25 28 25 29 28 25 21 17 20 37 72
82 76 79 80 86 99 100 100 97 90 90 87 92 91 75 55 42 44 63 57 51 51 52 50 60 61 69 53 44 42 35 32 30 29 29 26 31 37 28 26 28 23 32 49 48
77 80 79 83 84 95 96 100 96 97 85 90 95 84 66 68 44 42 49 49 51 49 50 51 59 58 71 65 63 47 43 36 32 32 30 32 29 30 34 30 32 38 41 42 46
81 77 80 83 86 96 100 100 88 96 88 91 94 77 67 52 44 46 51 51 50 53 53 53 59 71 73 72 50 53 54 42 39 35 34 29 36 35 29 30 36 39 41 44 38
84 81 82 84 86 94 97 99 100 91 83 90 85 73 57 59 54 54 53 50 49 63 64 65 68 70 84 57 52 56 52 65 38 35 39 36 56 32 26 32 36 41 44 45 36
72 87 84 82 86 96 100 95 87 74 89 88 75 65 61 60 56 48 46 41 48 68 66 61 71 73 77 95 68 47 66 68 71 45 40 44 60 37 27 43 45 44 46 47 44
91 90 87 82 85 97 99 93 97 90 90 84 78 78 55 52 46 46 45 51 51 60 64 82 86 91 69 79 65 57 66 57 92 51 43 50 60 45 50 45 46 53 49 45 44
82 86 77 79 84 94 99 91 85 86 76 63 64 55 48 52 57 50 47 50 52 58 82 71 95 94 68 60 51 51 62 70 85 84 48 54 57 44 36 42 49 54 64 49 54
90 84 73 79 87 92 87 85 68 69 87 57 49 53 57 58 50 45 52 57 53 69 69 96 97 59 67 74 64 61 64 64 66 66 55 53 49 41 42 43 44 58 60 59 66
86 84 80 85 98 98 99 77 74 72 81 58 53 60 55 59 48 42 48 45 50 53 64 86 61 52 78 79 76 64 66 58 83 86 64 66 74 65 59 60 50 59 54 65 70
85 87 85 80 95 98 93 88 78 70 99 77 71 62 62 53 57 39 50 50 48 57 53 54 46 62 64 67 62 88 42 57 87 98 92 57 86 92 92 70 62 62 68 79 87
78 87 83 79 86 87 89 92 90 60 95 73 79 65 57 58 46 50 53 56 56 51 62 65 61 94 86 94 86 67 44 69 68 64 89 69 67 99 93 85 75 79 77 93 89
97 84 69 76 85 90 88 93 72 99 95 97 75 74 70 59 48 48 52 54 51 62 68 68 53 75 73 72 77 71 60 56 60 70 95 97 99 100 99 95 86 68 68 79 90
89 83 75 73 72 92 95 84 100 96 63 91 76 66 62 66 64 50 53 61 65 97 86 57 60 64 79 95 81 81 60 92 93 88 94 97 98 100 76 77 73 74 67 61 61
74 76 78 71 82 96 82 99 99 66 87 71 60 60 62 53 60 54 51 55 50 58 65 72 90 85 77 93 98 81 86 96 66 81 91 82 96 100 60 57 64 66 61 73 74
71 83 79 74 78 87 89 98 100 90 70 68 61 66 59 50 52 49 47 55 53 58 90 70 92 73 89 81 84 62 70 45 52 42 53 83 98 77 69 64 73 64 68 58 58
82 74 67 81 79 86 97 88 100 75 65 54 68 57 61 49 52 56 54 51 60 57 55 91 100 88 84 88 77 80 49 70 63 61 63 75 87 93 90 75 75 78 63 52 50
71 66 85 92 86 95 90 100 98 63 62 59 56 51 40 45 58 48 52 62 67 64 68 84 97 87 80 70 71 59 50 43 41 47 41 56 88 40 47 59 48 50 48 49 45
76 89 92 86 98 100 95 91 95 70 53 57 53 48 42 46 50 50 56 69 65 57 86 65 68 98 72 52 53 57 47 40 46 45 42 44 62 33 39 40 43 46 42 40 38
85 98 99 82 96 94 96 96 86 65 61 61 60 50 45 50 58 53 59 59 54 54 58 47 57 86 67 52 48 53 44 38 41 53 63 48 55 34 37 39 37 39 38 36 34
81 100 96 93 84 68 97 100 80 61 62 61 53 44 48 52 50 59 56 60 57 53 64 50 56 68 72 72 64 62 46 40 54 61 38 42 51 43 40 42 40 37 35 36 37
79 88 84 99 76 74 93 93 62 71 62 56 51 46 46 54 51 58 54 52 49 52 48 44 82 85 52 50 54 54 50 43 59 40 53 42 44 39 36 37 36 36 36 37 39
78 74 74 76 74 97 92 69 56 64 65 63 54 46 42 49 51 52 51 47 48 44 46 45 78 62 54 46 49 58 51 47 45 39 37 38 43 34 35 32 35 37 38 41 42
77 63 56 96 95 75 64 56 54 58 58 54 52 43 49 60 48 46 44 43 45 45 46 48 60 68 69 51 47 49 51 50 52 47 38 44 41 35 40 39 40 43 42 45 46

GFSSW_925_rhum_102.txt.gz
RH
82 78 76 89 98 97 100 99 99 95 93 94 90 84 85 97 90 86 71 46 45 50 37 49 42 37 37 45 43 40 66 64 50 40 34 23 25 20 16 16 14 15 17 30 50
79 75 77 81 84 94 98 100 99 96 94 94 90 87 89 89 85 65 50 43 52 66 58 43 36 34 42 41 48 56 64 57 35 29 29 24 24 22 21 19 18 17 17 19 54
76 84 73 77 77 84 92 98 100 98 96 94 88 87 90 82 68 41 57 43 68 69 50 41 41 42 55 47 42 49 66 46 40 33 29 28 25 21 24 26 20 20 19 21 43
78 78 80 76 79 80 89 99 99 97 94 92 87 88 86 80 67 46 61 75 71 60 51 47 49 59 67 61 39 46 38 37 37 33 34 34 28 28 25 25 25 24 27 38 47
86 84 78 79 80 82 86 96 100 99 91 92 89 86 78 64 51 60 67 63 56 52 49 48 57 60 64 53 48 52 46 37 33 34 34 31 33 31 29 28 31 25 28 40 53
88 86 83 81 82 82 87 96 99 100 94 88 88 86 82 73 41 50 55 52 44 44 46 47 58 52 65 68 68 51 49 49 46 45 34 35 34 33 29 24 28 30 32 52 54
91 89 87 84 83 82 87 100 98 100 86 93 91 83 68 57 40 41 45 44 47 48 48 51 57 68 69 70 54 60 62 59 54 44 45 37 45 40 28 24 26 30 31 53 54
90 76 88 87 86 83 90 97 99 93 86 91 84 84 70 53 51 46 47 48 48 52 60 58 64 64 75 67 63 66 70 86 49 43 42 45 62 39 28 26 27 32 35 62 50
78 76 82 89 88 84 95 99 100 88 79 96 83 82 63 58 53 48 47 42 44 61 60 58 65 81 77 92 85 67 88 81 67 45 48 49 58 45 31 29 29 29 56 66 57
85 83 72 90 87 86 98 95 96 98 88 93 86 81 57 54 47 40 40 40 46 57 67 73 76 87 90 96 92 80 81 64 61 59 81 64 59 49 38 36 42 56 58 60 51
87 76 74 76 89 94 94 94 93 94 95 77 67 55 49 49 50 48 40 48 50 53 76 80 98 94 68 66 73 69 76 77 53 48 90 68 56 49 54 76 52 66 73 71 58
97 83 76 89 78 85 94 94 71 84 92 78 63 55 53 54 52 45 44 56 60 74 66 94 93 64 60 58 81 92 84 70 53 65 85 65 56 50 56 80 59 52 59 67 71
97 84 76 77 78 98 89 87 81 71 85 69 58 63 57 56 49 50 48 49 55 61 56 95 67 48 74 82 93 76 74 62 82 90 67 74 77 64 50 62 58 54 57 58 78
70 89 87 90 88 93 96 82 81 76 100 85 68 60 57 56 60 36 42 50 46 57 49 61 60 64 67 82 70 78 56 59 95 98 100 72 96 82 85 84 72 59 62 72 96
79 79 89 78 90 80 93 98 80 77 98 89 78 62 55 60 50 49 46 53 58 48 54 61 65 91 82 73 75 71 65 76 80 92 100 98 91 98 95 86 70 73 76 93 96
89 78 91 80 73 93 83 81 77 99 97 99 78 78 71 61 41 48 56 53 54 61 54 62 51 73 71 71 71 69 78 69 68 84 99 100 99 100 100 98 87 89 97 96 97
81 87 74 69 78 88 82 80 100 98 91 87 75 65 74 61 60 47 50 67 79 91 83 62 64 62 74 91 83 84 94 97 98 99 98 100 98 100 98 87 87 94 98 97 96
74 80 75 70 80 85 82 98 98 93 99 61 59 59 90 54 58 51 50 60 51 55 89 88 94 78 83 92 96 94 96 99 96 97 99 78 98 100 92 86 80 90 95 90 91
80 77 71 74 82 79 91 99 100 99 77 61 57 59 58 51 51 48 51 60 56 55 98 89 97 75 82 82 84 85 92 56 98 77 97 100 100 96 88 88 76 78 88 96 92
77 68 82 76 78 75 95 100 100 73 65 57 73 48 54 49 49 52 51 54 66 58 67 93 98 86 84 84 81 89 65 77 86 96 96 91 90 100 99 92 81 75 80 78 74
71 76 89 80 71 88 97 100 98 59 58 72 74 48 38 46 61 92 62 66 62 66 75 85 100 97 90 83 74 74 62 55 50 59 71 86 97 80 87 73 74 78 65 54 51
73 90 90 74 93 95 100 97 89 66 51 57 54 44 42 43 55 61 71 72 62 78 96 77 93 97 68 56 52 60 52 46 78 62 68 86 92 55 52 53 54 57 49 54 43
97 98 86 82 87 90 97 84 82 65 59 60 56 46 45 55 64 57 58 61 51 57 65 55 72 94 70 61 53 55 44 45 59 78 68 86 85 44 50 49 45 45 44 44 44
87 99 93 92 82 65 91 88 71 62 59 55 51 41 47 49 48 57 58 59 58 52 64 63 66 82 90 79 68 69 51 47 66 78 64 67 64 54 54 52 49 47 47 49 51
79 86 74 94 79 74 80 76 54 66 56 53 49 46 48 52 53 59 52 53 52 45 50 55 83 83 53 53 57 58 55 49 58 50 70 58 57 52 52 51 49 46 45 49 52
75 72 65 73 74 74 80 66 55 61 67 57 54 46 52 62 58 56 49 52 55 41 45 48 81 62 56 48 52 61 55 56 56 44 47 48 54 44 44 43 47 46 47 51 52
71 59 57 84 80 66 59 59 58 60 58 53 55 54 64 65 50 45 43 46 48 55 52 54 72 81 76 59 57 68 58 55 53 56 46 59 52 44 45 47 52 51 53 56 56

GFSSW_925_rhum_105.txt.gz
RH
79 77 81 72 83 81 87 98 100 100 92 95 93 88 85 91 97 93 86 62 57 52 30 49 44 42 36 46 45 46 76 83 64 55 47 32 31 23 22 24 22 18 17 37 66
82 79 78 80 70 75 76 90 98 100 94 97 92 82 85 87 98 88 70 63 61 59 54 62 42 40 49 44 53 64 83 63 47 43 43 37 34 31 28 26 25 24 19 57 78
88 83 82 79 81 78 79 79 94 99 100 98 91 75 91 90 87 67 62 61 58 62 52 42 42 47 58 52 53 60 73 52 50 46 43 43 38 31 33 33 27 30 32 33 40
90 88 87 85 80 79 79 80 91 98 100 97 94 74 92 83 83 57 58 59 74 57 50 48 52 64 69 70 51 60 47 45 45 42 41 40 35 37 34 32 27 30 36 35 55
87 91 91 88 84 82 81 80 87 91 100 96 82 90 91 85 72 53 70 74 65 58 55 55 64 61 64 60 63 68 56 48 48 47 43 37 39 38 36 28 27 25 27 41 56
90 90 90 90 87 85 82 80 87 94 100 95 93 95 84 85 56 68 70 60 52 49 49 49 58 55 65 73 78 65 64 61 53 53 52 55 52 39 35 30 29 28 28 34 52
93 95 87 88 88 88 85 83 87 98 100 94 95 87 72 62 44 57 54 47 47 47 51 55 56 64 69 82 62 62 84 71 62 57 61 51 59 53 36 32 33 30 27 31 54
92 96 76 81 90 90 86 94 79 98 90 83 97 87 83 67 46 47 46 46 48 50 59 58 63 67 71 74 74 77 75 95 57 54 59 58 69 45 37 37 35 32 29 28 57
77 98 89 77 80 91 80 100 98 99 89 90 92 90 72 56 51 45 47 49 49 59 58 61 67 80 77 85 87 78 93 90 76 55 56 59 71 53 40 39 38 35 33 32 63
78 89 83 76 82 91 86 76 99 98 100 84 81 77 73 66 52 49 49 47 52 68 73 75 71 76 86 93 96 84 90 76 78 62 59 67 80 66 48 46 52 78 62 66 62
82 97 83 78 93 69 92 85 87 89 96 80 82 63 64 51 43 44 41 49 52 65 79 83 94 92 85 89 80 83 88 88 75 63 72 74 79 77 55 63 75 80 74 67 70
90 81 76 89 69 85 89 89 85 84 93 85 79 64 55 53 59 52 43 66 72 66 69 95 96 76 74 74 78 74 90 92 74 62 90 88 82 63 56 62 75 79 70 59 75
87 84 76 79 64 93 85 92 91 84 90 94 79 74 60 56 55 63 52 58 64 74 69 89 70 62 72 81 90 90 89 84 81 70 84 88 90 76 58 62 66 74 65 64 64
78 94 80 78 72 80 78 76 86 79 99 96 83 73 64 62 66 48 49 56 57 62 63 68 58 68 70 72 82 95 64 64 86 98 98 94 95 91 90 88 76 79 74 66 72
77 90 81 77 81 83 88 86 82 84 97 93 83 62 60 69 56 54 47 56 70 63 59 63 75 88 90 78 76 79 76 87 86 96 100 89 99 98 96 88 85 83 78 75 91
83 79 69 70 80 84 90 82 83 98 97 99 85 88 77 67 54 59 65 56 59 71 63 67 59 71 77 75 76 73 84 85 82 90 98 100 100 99 100 96 87 82 84 91 96
68 73 78 73 89 86 76 78 93 97 96 92 87 77 74 70 58 64 69 85 87 89 80 70 75 66 74 89 81 90 95 96 98 98 98 100 97 99 99 88 82 94 97 97 97
69 69 77 83 84 73 74 92 94 96 91 71 68 88 88 70 65 56 61 69 69 78 95 97 90 78 83 87 97 86 98 99 96 97 99 99 98 98 95 96 96 94 97 94 95
75 77 81 82 74 74 89 97 99 100 85 66 67 69 64 57 58 62 58 67 64 56 97 91 96 79 80 78 84 88 100 94 99 100 98 99 100 98 86 94 95 97 95 96 94
76 75 89 77 69 73 92 100 100 76 71 78 78 52 65 54 54 68 61 64 70 74 73 88 97 87 82 83 86 93 80 98 98 97 96 96 98 98 100 96 92 94 94 91 87
77 92 82 76 76 90 98 100 95 69 64 83 75 55 48 54 74 89 86 75 68 87 81 94 100 95 90 93 78 88 78 68 61 72 84 93 98 98 96 84 87 77 66 79 88
78 96 77 75 93 94 95 95 80 78 54 60 58 54 44 50 64 85 85 83 79 78 96 85 92 99 74 55 57 64 70 53 83 65 84 90 99 84 84 82 72 79 50 48 50
97 97 70 80 97 93 82 77 80 68 63 67 60 49 46 62 67 64 72 67 68 66 66 63 82 94 77 62 59 71 55 52 64 74 83 90 100 63 55 55 50 52 59 51 51
94 93 92 93 88 82 83 84 72 65 66 60 62 45 49 55 55 60 65 61 57 54 60 62 70 80 94 79 73 74 61 57 66 86 82 98 95 64 60 58 55 57 59 61 60
91 90 81 95 89 83 82 81 72 76 63 59 53 61 60 72 61 62 54 54 56 48 48 60 79 82 57 57 59 64 67 64 65 63 73 83 72 66 62 61 57 55 57 59 60
85 88 79 76 78 76 78 66 72 68 68 70 73 65 70 76 71 72 61 62 64 56 51 60 78 67 62 56 58 63 61 64 59 56 61 63 64 53 55 55 56 57 59 62 63
72 69 73 80 87 84 67 64 70 66 60 65 70 65 74 71 68 66 50 53 51 56 64 60 78 84 79 59 62 72 61 61 59 61 55 68 57 51 57 57 60 63 63 66 66